[[[{"header":{"parameterUnit":"kt","parameterCategory":2,"dx":1,"dy":1,"la1":29.46422004699707,"la2":30.564109802246094,"lo1":-89.4342041015625,"lo2":-87.934326171875,"nx":46,"ny":34,"refTime":"2022-10-27T00:00:00:Z","depth":"0","parameterNumber":2,"parameterNumberName":"U-component_of_CURRENTS"},"data":[0.0262,0.0406,0.0566,0.0726,0.087,0.0913,0.0897,0,0.0069,0.0918,0.2349,0.2755,0.2419,0.2178,0.1655,0.0747,-0.0128,-0.0774,-0.1757,-0.276,-0.2985,-0.2808,-0.2638,-0.2413,-0.2301,-0.2477,-0.2718,-0.2814,-0.2792,-0.2787,-0.2846,-0.3033,-0.339,-0.3791,-0.4175,-0.4586,-0.4981,-0.5254,-0.5328,-0.5286,-0.5243,-0.5222,-0.519,-0.5093,-0.4843,-0.4362,0.0144,0.0251,0.0368,0.047,0.0507,0.0363,-0.0176,-0.0582,0,0.0673,0.2216,0.212,0.1351,0.1687,0.165,0.1062,0.0176,-0.0545,-0.0918,-0.1698,-0.2787,-0.3171,-0.291,-0.2477,-0.2141,-0.2104,-0.2296,-0.2451,-0.2509,-0.2525,-0.2472,-0.2312,-0.2264,-0.2515,-0.2931,-0.3337,-0.3711,-0.3908,-0.3919,-0.3972,-0.4095,-0.4202,-0.4245,-0.4266,-0.4298,-0.4234,0.0069,0.0149,0.024,0.0336,0.0432,0.0545,0.0721,0.1399,0.2862,0.2888,0.2018,0,0.0689,0.1698,0.1847,0.1324,0.0577,-0.023,-0.079,-0.0998,-0.1602,-0.2589,-0.3155,-0.3075,-0.2632,-0.229,-0.2157,-0.2109,-0.2098,-0.2109,-0.2007,-0.1789,-0.1602,-0.1682,-0.2013,-0.2322,-0.2488,-0.2589,-0.2686,-0.2814,-0.2904,-0.2926,-0.2936,-0.2969,-0.3054,-0.3209,0.0075,0.0091,0.0139,0.0214,0.032,0.0464,0.0673,0.1041,0.1538,0.1735,0.1575,0.2819,0.3769,0.33,0.2675,0.1596,0.0673,0.0,-0.0593,-0.1046,-0.1169,-0.157,-0.2387,-0.3022,-0.3198,-0.2856,-0.2333,-0.1965,-0.1773,-0.1628,-0.1447,-0.1271,-0.1201,-0.1319,-0.1543,-0.1628,-0.1741,-0.2045,-0.2333,-0.2483,-0.2493,-0.2376,-0.2232,-0.2146,-0.2125,-0.2162,0.0192,0.0096,0.008,0.0112,0.0187,0.0299,0.0454,0.0673,0.0929,0.1137,0.1303,0.1741,0.229,0.2995,0.2616,0.1207,0.0352,-0.0208,-0.0539,-0.0747,-0.1046,-0.1233,-0.1404,-0.1906,-0.2509,-0.2846,-0.2707,-0.2232,-0.1741,-0.1287,-0.0908,-0.0747,-0.0806,-0.1025,-0.1233,-0.1239,-0.142,-0.1869,-0.2226,-0.244,-0.2451,-0.2226,-0.1997,-0.1895,-0.1789,-0.1676,0.0198,0.0166,0.0075,0.0027,0.0032,0.0075,0.016,0.0304,0.0448,0.0555,0.0598,0.063,0.063,0.0609,0,-0.0278,-0.0609,-0.0753,-0.0886,-0.0924,-0.0929,-0.1046,-0.1164,-0.1137,-0.1276,-0.1703,-0.2045,-0.1927,-0.1447,-0.0902,-0.0518,-0.039,-0.0539,-0.0833,-0.1036,-0.1068,-0.1223,-0.1564,-0.1853,-0.2045,-0.2061,-0.1917,-0.1869,-0.197,-0.2056,-0.2029,0.0587,0.04,0.0117,-0.0043,-0.0117,-0.023,-0.0219,-0.0059,0.0053,0.0085,0.0005,-0.0224,-0.078,-0.1746,-0.2317,0,-0.0657,-0.1308,-0.1244,-0.1127,-0.103,-0.0956,-0.0945,-0.094,-0.0886,-0.0902,-0.0934,-0.086,-0.0699,-0.0545,-0.0459,-0.0502,-0.0689,-0.095,-0.1105,-0.1095,-0.1089,-0.1228,-0.1474,-0.1703,-0.173,-0.1698,-0.181,-0.2029,-0.2237,-0.2339,0,0.0005,-0.0037,-0.008,-0.0128,-0.0545,-0.0673,-0.0326,-0.0176,-0.016,-0.024,-0.0416,-0.0689,-0.1073,-0.1468,-0.1644,0,-0.0806,-0.1442,-0.1196,-0.1068,-0.0956,-0.0865,-0.0812,-0.078,-0.0753,-0.063,-0.0534,-0.0769,-0.1036,-0.1148,-0.1249,-0.1388,-0.1522,-0.1484,-0.1292,-0.1057,-0.0982,-0.118,-0.1383,-0.1431,-0.149,-0.1596,-0.1698,-0.1821,-0.1933,0,-0.024,0,0.0069,0.0139,0,-0.0107,-0.0198,-0.0187,-0.0208,-0.0267,-0.0358,-0.0486,-0.079,-0.1073,-0.1175,-0.1223,0,-0.0475,-0.0988,-0.0982,-0.0892,-0.0796,-0.0742,-0.0705,-0.0667,-0.0683,-0.0886,-0.1228,-0.1612,-0.1901,-0.2034,-0.212,-0.2082,-0.1879,-0.1511,-0.1073,-0.086,-0.1036,-0.1217,-0.1249,-0.1319,-0.1436,-0.1506,-0.1506,-0.1463,0,0.0187,0.0267,0.0304,0,0.0182,0.0182,-0.0064,-0.0149,-0.0192,-0.0214,-0.0198,-0.0069,-0.0502,-0.0876,-0.0582,-0.0448,0,-0.0689,-0.118,-0.0881,-0.0731,-0.0641,-0.0582,-0.0561,-0.0571,-0.0614,-0.078,-0.1185,-0.1927,-0.2483,-0.2611,-0.2616,-0.2445,-0.2098,-0.1607,-0.11,-0.0902,-0.1014,-0.1089,-0.1116,-0.1233,-0.1372,-0.1436,-0.1431,-0.1372,0,0,0,0,0,-0.0262,-0.0422,-0.0278,-0.0214,-0.0203,-0.0214,-0.0208,-0.0198,0,-0.0043,-0.0016,0.0053,0,0,-0.0203,-0.0438,-0.0464,-0.0454,-0.0438,-0.0443,-0.0464,-0.0491,-0.0577,-0.0908,-0.1687,-0.2467,-0.276,-0.2755,-0.2541,-0.212,-0.1612,-0.1175,-0.102,-0.0993,-0.0924,-0.0977,-0.1137,-0.1271,-0.1324,-0.1319,-0.1287,0,0,0,0,0,0,-0.0171,-0.0299,-0.0214,-0.0166,-0.0214,-0.039,-0.0657,-0.016,0.0416,0.0518,0.0683,0,0,-0.0117,-0.0262,-0.0299,-0.0304,-0.0299,-0.0315,-0.0347,-0.0384,-0.0432,-0.0555,-0.095,-0.1719,-0.236,-0.2509,-0.2344,-0.1986,-0.1554,-0.1217,-0.0982,-0.0785,-0.0763,-0.0892,-0.1025,-0.1121,-0.118,-0.1217,-0.1249,0,0,0,0,0,0,-0.0299,-0.0598,-0.0523,-0.032,-0.0192,-0.023,-0.024,-0.0123,-0.0027,-0.0011,0,0,0,-0.0085,-0.0187,-0.0192,-0.0182,-0.0176,-0.0192,-0.024,-0.0299,-0.0347,-0.04,-0.0513,-0.0812,-0.1265,-0.158,-0.1607,-0.1404,-0.1089,-0.0817,-0.0667,-0.0657,-0.0731,-0.0812,-0.0886,-0.0966,-0.1062,-0.1159,-0.1239,0,0,0,0,0,0,-0.0443,-0.1313,-0.1618,-0.1121,-0.0529,-0.0272,-0.0203,-0.0171,-0.031,-0.0769,-0.0828,-0.0561,0,-0.0069,-0.0128,-0.0091,-0.0059,-0.0048,-0.0069,-0.0133,-0.0208,-0.0272,-0.0331,-0.0379,-0.0448,-0.0566,-0.0694,-0.0737,-0.0689,-0.0603,-0.055,-0.0561,-0.0625,-0.0689,-0.0742,-0.0806,-0.0908,-0.1036,-0.1159,-0.1244,0,0,0,0,0,0,0,-0.1452,-0.2552,-0.173,-0.0833,-0.0246,-0.0021,0.0069,0.0048,-0.0096,-0.0208,-0.023,0,-0.0059,-0.0053,0.0043,0.0096,0.0112,0.0075,0.0,-0.0091,-0.0176,-0.0256,-0.0315,-0.0352,-0.039,-0.0416,-0.0438,-0.0454,-0.0475,-0.0507,-0.0571,-0.0646,-0.071,-0.078,-0.0881,-0.1014,-0.1137,-0.1239,-0.1324,0,0,0,0.0203,0.0411,0,0,0,-0.0491,-0.0614,-0.0053,0.0262,0.0368,0.0304,0.0256,0.0176,0.0016,-0.0069,0,-0.0037,0.0059,0.024,0.0304,0.0299,0.0235,0.0144,0.0037,-0.0059,-0.0149,-0.023,-0.0288,-0.0331,-0.0368,-0.04,-0.0438,-0.0491,-0.0566,-0.0657,-0.0747,-0.0849,-0.0977,-0.1116,-0.1244,-0.1345,-0.1436,-0.1516,0,0,0.0577,0.1078,0.1367,0.3609,0.5985,0.653,0.5056,0.2552,0.1313,0.103,0.0972,0.087,0.0721,0.0464,0.0048,-0.0208,0,0.0139,0.0432,0.0603,0.0593,0.0518,0.0411,0.0288,0.0166,0.0053,-0.0059,-0.0166,-0.0251,-0.032,-0.0384,-0.0454,-0.0534,-0.063,-0.0721,-0.0812,-0.0908,-0.1036,-0.1191,-0.1345,-0.1484,-0.1607,-0.1703,-0.1762,0,0,0.0422,0.126,0.1506,0.134,0,0,-0.0411,-0.0379,0.0422,0.0945,0.1207,0.1308,0.1169,0.0886,0.0747,0,0.086,0.1676,0.1479,0.1185,0.0934,0.0737,0.0561,0.0395,0.024,0.0091,-0.0069,-0.0214,-0.032,-0.0411,-0.0497,-0.0598,-0.0705,-0.0785,-0.0833,-0.0892,-0.0998,-0.1137,-0.1292,-0.1442,-0.1586,-0.1725,-0.1842,-0.1911,0.0731,0.2477,0.3492,0,0,0,0,0,-0.0464,-0.0507,0.0214,0.0828,0.1297,0.1495,0.1586,0.1799,0.2627,0.3508,0.3332,0.2654,0.2104,0.1612,0.1212,0.0908,0.0667,0.047,0.0288,0.0107,-0.0101,-0.031,-0.047,-0.0587,-0.0673,-0.0737,-0.078,-0.0796,-0.0806,-0.0876,-0.1009,-0.1153,-0.1287,-0.1415,-0.1543,-0.1692,-0.1847,-0.1959,0.8607,0.5686,0.2654,0.1511,0.1239,0,0,0,-0.0678,-0.0865,0.0075,0.079,0.1233,0.1538,0.181,0.2141,0.268,0.3155,0.3193,0.2904,0.2435,0.1879,0.1383,0.0998,0.0699,0.0464,0.0283,0.0128,-0.0101,-0.04,-0.0657,-0.0806,-0.0833,-0.0806,-0.0774,-0.0774,-0.078,-0.0833,-0.0972,-0.1153,-0.134,-0.1516,-0.1607,-0.1676,-0.1794,-0.1917,0,0.016,0.094,0.157,0.1965,0.2344,0,0,0.0064,0.0582,0.1281,0.1538,0.1639,0.1997,0.2285,0.2344,0.2472,0.2691,0.2856,0.2851,0.2547,0.1991,0.1452,0.1025,0.0667,0.0363,0.0139,0.0069,-0.0101,-0.0481,-0.0865,-0.1078,-0.1073,-0.0972,-0.1009,-0.1495,-0.1757,-0.1506,-0.1404,-0.1532,-0.1778,-0.2024,-0.1949,-0.1783,-0.181,-0.1874,1.0235,0.6861,0.3924,0.2429,0.2216,0.3497,0.4805,0.5675,0.5873,0.4672,0.3396,0.2499,0.189,0.2162,0.2525,0.2429,0.2216,0.2029,0.2216,0.2595,0.2525,0.1901,0.1377,0.0998,0.0651,0.0278,-0.0112,-0.0198,-0.0272,-0.0587,-0.0982,-0.1287,-0.1345,-0.1287,-0.1895,-0.3081,-0.3049,-0.2296,-0.2157,-0.2461,-0.3097,-0.315,-0.2461,-0.2034,-0.1922,-0.1917,0.1591,0.3561,0.3657,0.3107,0.2936,0.3428,0.3898,0.3785,0.3994,0.4351,0.3705,0.228,0.1223,0.0982,0,0,0.0144,0.0609,0.1223,0.2226,0.2301,0.1479,0.1169,0.0961,0.0753,0.0443,-0.0123,-0.0491,0,0,0,-0.0438,-0.1148,-0.1164,-0.1885,-0.3337,-0.3123,-0.2435,-0.2477,-0.2531,-0.2525,0,-0.1442,-0.2675,-0.2258,-0.1959,0,0.15,0.3225,0.3337,0.3193,0.3219,0.338,0.3262,0.3038,0,0,0,0.0267,0.063,0.0715,0.0705,0,0.0166,0.0326,0.0326,0,0,0,0,0,0,0,-0.0294,-0.0064,0.0593,0.0726,0.0326,-0.0593,-0.1116,0,0,-0.1388,-0.3161,-0.3988,-0.464,-0.4223,-0.2157,-0.0715,0,0,0,0,0,0.15,0.3278,0.3668,0.3865,0.3919,0.3711,0.3609,0.347,0.3123,0.291,0.2403,0.1773,0.1634,0.2189,0.2894,0.2621,0.15,0.0176,0.008,0.0977,0.1329,0.1468,0.1826,0.2867,0.3951,0.3518,0.22,0.1452,0.1095,0.0406,-0.0833,-0.204,-0.1842,-0.071,-0.1671,-0.3091,0,0,0,-0.1185,-0.142,-0.0587,-0.0886,0,0,0,0,0.1046,0.2985,0.4261,0.4592,0.4431,0.3823,0.3134,0.2862,0.2627,0.229,0.2045,0.2082,0.2376,0.2654,0.2611,0.2339,0.2162,0.1943,0.1741,0.1853,0.1938,0.1313,0.1959,0.3721,0.3513,0.2429,0.205,0.1655,0.0945,0.0347,-0.0283,-0.1046,-0.26,-0.5008,-0.646,-0.6241,-0.5334,-0.3171,-0.157,-0.1458,-0.1191,-0.094,0,0,0,0,0,0,0,0,0,0.0796,0.2248,0.3081,0.2872,0.2371,0.228,0.2392,0.2568,0.267,0.26,0.2429,0.2723,0.291,0.2605,0.2563,0.292,0.1922,0.0635,0,0,0,0,0.0363,0.087,0.0614,-0.0208,-0.0641,0,0,0,0,0,-0.1324,-0.236,-0.1735,-0.1052,-0.0448,0,0,0,0,0,0,0,0,0,0,0,0,0.0657,0.1725,0.2322,0.2616,0.2771,0.2792,0.26,0.2098,0.1762,0,0,0,0,0,0,0,0,0,0,0,0,-0.0107,-0.0032,0.0139,0,0,0,0,0,-0.0822,-0.181,-0.1612,-0.094,-0.0422,0,0,0,0,0,0,0,0,0,0,0,0,0,0,0,0,0,0,0,0,0,0,0,0,0,0,0,0,0,0,0,0,0,0,0,0,0,0,0,0,0,-0.078,-0.149,-0.142,-0.1548,-0.1687,0,0,0,0,0,0,0,0,0,0,0,0,0,0,0,0,0,0,0,0,0,0,0,0,0,0,0,0,0,0,0,0,0,0,0,0,0,0,0,0,0,-0.0609,-0.0988,-0.1324,-0.2451,-0.2979,0,0,0,0,0,0,0,0,0,0,0,0,0,0,0,0,0,0,0,0,0,0,0,0,0,0,0,0,0,0,0,0,0,0,0,0,0,0,0,0,0,0,-0.0507,-0.1554,-0.2915,-0.2814,0,0,0,0,0,0,0,0,0,0,0,0,0,0,0,0,0,0,0,0,0,0,0,0,0,0,0,0,0,0,0,0,0,0,0,0,0,0,0,0,0,0,-0.0561,-0.2184,-0.3027,-0.2557,0,0,0,0,0,0,0,0,0,0,0,0,0,0,0,0,0,0,0,0,0,0,0,0,0,0,0,0,0,0,0,0,0,0,0,0,0,0,0,0,0,0,-0.0881,-0.2504,-0.2974,-0.2328,0,0,0,0,0,0,0,0,0,0,0,0,0,0,0,0,0,0,0,0,0,0,0,0,0,0,0,0,0,0,0,0,0,0,0,0,0,0,0,0,0,0,-0.0886,-0.2098,-0.2419,-0.2114,0]}],[{"header":{"parameterUnit":"kt","parameterCategory":2,"dx":1,"dy":1,"la1":29.46422004699707,"la2":30.564109802246094,"lo1":-89.4342041015625,"lo2":-87.934326171875,"nx":46,"ny":34,"refTime":"2022-10-27T00:00:00:Z","depth":"0","parameterNumber":3,"parameterNumberName":"V-component_of_CURRENTS"},"data":[-0.0598,-0.0812,-0.1062,-0.134,-0.1709,-0.2253,-0.3444,0,0.016,-0.3139,-0.3956,-0.2846,-0.3561,-0.4148,-0.4602,-0.5045,-0.457,-0.3812,-0.3673,-0.354,-0.3428,-0.3433,-0.3508,-0.362,-0.3593,-0.3454,-0.3444,-0.3615,-0.3828,-0.4159,-0.4496,-0.4415,-0.402,-0.3529,-0.3214,-0.3049,-0.3022,-0.3113,-0.3107,-0.299,-0.2835,-0.2702,-0.2536,-0.2274,-0.1954,-0.1474,-0.0603,-0.0822,-0.1052,-0.1292,-0.1559,-0.1842,-0.2061,-0.0203,0,-0.4704,-0.5483,-0.2456,-0.347,-0.4127,-0.4325,-0.4565,-0.4618,-0.4031,-0.3695,-0.3769,-0.3481,-0.3022,-0.2696,-0.2648,-0.2771,-0.2953,-0.3182,-0.3449,-0.3679,-0.3882,-0.4266,-0.4581,-0.4399,-0.3919,-0.362,-0.354,-0.354,-0.3513,-0.33,-0.2969,-0.2638,-0.2317,-0.2007,-0.1741,-0.1554,-0.1388,-0.0593,-0.0812,-0.102,-0.1228,-0.142,-0.1554,-0.1532,-0.094,-0.0897,-0.4255,-0.4907,0,-0.4394,-0.4463,-0.3967,-0.3908,-0.4015,-0.3908,-0.3567,-0.3631,-0.3892,-0.354,-0.2872,-0.2285,-0.205,-0.2152,-0.2381,-0.2664,-0.2942,-0.3129,-0.3353,-0.362,-0.3737,-0.3615,-0.3588,-0.362,-0.3428,-0.323,-0.3081,-0.291,-0.267,-0.2322,-0.1906,-0.1543,-0.1244,-0.1041,-0.0529,-0.0769,-0.0972,-0.118,-0.1372,-0.1538,-0.165,-0.1671,-0.1954,-0.2835,-0.3219,-0.1431,-0.4565,-0.4533,-0.2995,-0.2878,-0.3193,-0.3358,-0.3321,-0.3187,-0.3556,-0.3887,-0.3657,-0.2969,-0.2237,-0.1735,-0.1586,-0.1719,-0.1991,-0.2232,-0.2392,-0.2531,-0.2696,-0.2883,-0.3193,-0.3374,-0.2995,-0.267,-0.2605,-0.2589,-0.2435,-0.2178,-0.1815,-0.1484,-0.1121,-0.0747,-0.0374,-0.0667,-0.0892,-0.1116,-0.1324,-0.1538,-0.1751,-0.1933,-0.2178,-0.2611,-0.3001,-0.3139,-0.4036,-0.4875,-0.2258,-0.1479,-0.2339,-0.2808,-0.2926,-0.2974,-0.3043,-0.3481,-0.3796,-0.3727,-0.3203,-0.2403,-0.1682,-0.1388,-0.1479,-0.1671,-0.1719,-0.1703,-0.1767,-0.2034,-0.2488,-0.291,-0.2755,-0.2461,-0.2493,-0.2589,-0.2493,-0.2178,-0.1725,-0.1393,-0.103,-0.0609,-0.0256,-0.0502,-0.0742,-0.0993,-0.1223,-0.1484,-0.1799,-0.2029,-0.2253,-0.2552,-0.292,-0.3342,-0.401,-0.4848,0,-0.0753,-0.1751,-0.2381,-0.2696,-0.2824,-0.2856,-0.3043,-0.3385,-0.3615,-0.3721,-0.3454,-0.2776,-0.2157,-0.1879,-0.1869,-0.1564,-0.1185,-0.102,-0.1175,-0.1639,-0.2216,-0.2403,-0.228,-0.2387,-0.2525,-0.2456,-0.212,-0.165,-0.1335,-0.1116,-0.0806,-0.0246,-0.0198,-0.0481,-0.079,-0.103,-0.1265,-0.1853,-0.2088,-0.2258,-0.2445,-0.2686,-0.299,-0.3353,-0.3529,-0.1228,0,-0.1612,-0.2114,-0.2605,-0.276,-0.2814,-0.2878,-0.3033,-0.3171,-0.3316,-0.3353,-0.3209,-0.2936,-0.2547,-0.2557,-0.1895,-0.1052,-0.0545,-0.047,-0.0849,-0.1484,-0.1975,-0.2157,-0.229,-0.2413,-0.2322,-0.1975,-0.1436,-0.1084,-0.0977,-0.0833,0,-0.0043,-0.0315,-0.0603,-0.0769,-0.1095,-0.2072,-0.2157,-0.2232,-0.2312,-0.2408,-0.2509,-0.2557,-0.244,-0.2168,-0.087,0,-0.2029,-0.275,-0.2755,-0.2803,-0.2835,-0.2904,-0.2969,-0.2872,-0.275,-0.2712,-0.2798,-0.2723,-0.2915,-0.2189,-0.1078,-0.0304,-0.0053,-0.031,-0.0929,-0.1612,-0.2002,-0.2114,-0.2242,-0.2141,-0.1762,-0.1223,-0.087,-0.0747,-0.0646,0,-0.0096,0,-0.0667,-0.0625,0,-0.2157,-0.2125,-0.2136,-0.2173,-0.2205,-0.2205,-0.2152,-0.1789,-0.1783,-0.1618,-0.0635,0,-0.2322,-0.2654,-0.2755,-0.2824,-0.2867,-0.2867,-0.276,-0.2568,-0.2387,-0.244,-0.2707,-0.2878,-0.2168,-0.1078,-0.0256,0.0048,-0.0112,-0.0662,-0.1345,-0.1746,-0.1874,-0.2007,-0.1938,-0.1474,-0.1046,-0.079,-0.0635,-0.0513,0,-0.0096,0.0,-0.079,0,-0.0315,-0.1757,-0.1895,-0.1975,-0.2045,-0.2088,-0.2104,-0.2104,-0.1463,-0.1863,-0.1623,-0.1399,0,-0.1757,-0.2734,-0.2734,-0.2808,-0.2846,-0.2803,-0.268,-0.2467,-0.2237,-0.2162,-0.2483,-0.2723,-0.2114,-0.1175,-0.0438,-0.0139,-0.0214,-0.063,-0.1137,-0.1431,-0.1644,-0.1762,-0.1612,-0.1201,-0.094,-0.079,-0.0667,-0.055,0,0,0,0,0,-0.063,-0.1543,-0.1757,-0.1869,-0.1959,-0.2013,-0.2093,-0.2168,0,-0.2077,-0.181,-0.1361,0,0,-0.2712,-0.267,-0.2755,-0.2782,-0.2718,-0.2573,-0.236,-0.2125,-0.1949,-0.2034,-0.2408,-0.2146,-0.1431,-0.078,-0.047,-0.0454,-0.0689,-0.0998,-0.1292,-0.15,-0.149,-0.1223,-0.0982,-0.0876,-0.0796,-0.0705,-0.0609,0,0,0,0,0,0,-0.149,-0.1799,-0.1927,-0.1938,-0.1885,-0.1911,-0.1933,-0.0785,-0.1986,-0.2072,-0.1191,0,0,-0.2397,-0.2499,-0.2632,-0.2664,-0.2589,-0.2445,-0.2248,-0.204,-0.1831,-0.1703,-0.1874,-0.197,-0.1709,-0.1185,-0.0886,-0.0785,-0.0886,-0.1057,-0.1281,-0.1313,-0.1153,-0.0945,-0.0849,-0.0822,-0.079,-0.0715,-0.0614,0,0,0,0,0,0,-0.1111,-0.2007,-0.221,-0.212,-0.1773,-0.1639,-0.1714,-0.1623,-0.1837,-0.2136,0,0,0,-0.2216,-0.2333,-0.2499,-0.2536,-0.2467,-0.2333,-0.2146,-0.1954,-0.1773,-0.1591,-0.1479,-0.1554,-0.1543,-0.1308,-0.1132,-0.102,-0.103,-0.1095,-0.1143,-0.1057,-0.0918,-0.0806,-0.0769,-0.0774,-0.0742,-0.0673,-0.0566,0,0,0,0,0,0,-0.0865,-0.2162,-0.2525,-0.2664,-0.1991,-0.1522,-0.1687,-0.1628,-0.1612,-0.1586,-0.0352,-0.0251,0,-0.2077,-0.221,-0.2408,-0.2435,-0.2355,-0.2221,-0.2045,-0.1863,-0.1703,-0.1543,-0.1388,-0.1281,-0.1207,-0.1143,-0.1078,-0.1014,-0.0993,-0.0993,-0.0977,-0.0902,-0.0822,-0.0758,-0.0731,-0.0705,-0.0657,-0.0582,-0.0502,0,0,0,0,0,0,0,-0.2152,-0.2979,-0.33,-0.2664,-0.166,-0.1735,-0.1612,-0.1335,-0.1014,-0.0646,-0.0481,0,-0.1991,-0.2168,-0.2381,-0.236,-0.2253,-0.2114,-0.1938,-0.1767,-0.1623,-0.1495,-0.1356,-0.1239,-0.1137,-0.1068,-0.1009,-0.0977,-0.0956,-0.0934,-0.0908,-0.0854,-0.079,-0.0742,-0.0694,-0.063,-0.0571,-0.0507,-0.0438,0,0,0,-0.0763,0.0299,0,0,0,-0.378,-0.3401,-0.3177,-0.1895,-0.1703,-0.1559,-0.1212,-0.0737,-0.0438,-0.0347,0,-0.1986,-0.2269,-0.2429,-0.2317,-0.2157,-0.2002,-0.1837,-0.1676,-0.1543,-0.1442,-0.1324,-0.1228,-0.1137,-0.1068,-0.1014,-0.0977,-0.0945,-0.0913,-0.0876,-0.0828,-0.0774,-0.071,-0.0646,-0.0577,-0.0518,-0.0454,-0.0384,0,0,-0.2029,-0.102,-0.0192,-0.1943,0.0,0.0,-0.3177,-0.2082,-0.2573,-0.1767,-0.1452,-0.1335,-0.0998,-0.0347,0.0037,-0.0235,0,-0.2258,-0.252,-0.252,-0.229,-0.2066,-0.1901,-0.1757,-0.1618,-0.1506,-0.142,-0.1324,-0.1249,-0.1175,-0.11,-0.1046,-0.0998,-0.0956,-0.0913,-0.0876,-0.0822,-0.0753,-0.0667,-0.0582,-0.0518,-0.0448,-0.039,-0.0326,0,0,-0.5344,-0.0518,-0.0977,-0.3887,0,0,-0.2563,-0.1068,-0.2066,-0.1703,-0.1313,-0.1073,-0.0625,0.0133,0.1014,0,-0.118,-0.2477,-0.2611,-0.2488,-0.2194,-0.1949,-0.1794,-0.1687,-0.1586,-0.149,-0.1426,-0.1356,-0.1308,-0.1239,-0.1159,-0.1089,-0.102,-0.0972,-0.0934,-0.0892,-0.0817,-0.0715,-0.0598,-0.0486,-0.04,-0.032,-0.0278,-0.0256,-0.1484,-0.166,-0.3593,0,0,0,0,0,-0.3134,-0.1687,-0.2509,-0.229,-0.1442,-0.0918,-0.0406,0.0208,0.1036,-0.0272,-0.1981,-0.2274,-0.2387,-0.2242,-0.1975,-0.1762,-0.166,-0.1607,-0.1548,-0.1458,-0.1377,-0.1345,-0.1324,-0.1281,-0.1201,-0.1116,-0.103,-0.0988,-0.0972,-0.0897,-0.078,-0.0641,-0.0491,-0.0352,-0.0251,-0.0144,-0.0128,-0.016,-0.2974,-0.1185,0.0288,0.0432,0.1249,0,0,0,-0.3406,-0.2814,-0.3305,-0.3316,-0.1853,-0.0972,-0.0459,-0.0091,0.0064,-0.0742,-0.1634,-0.205,-0.2056,-0.1869,-0.165,-0.15,-0.1474,-0.1516,-0.1527,-0.1426,-0.1196,-0.118,-0.1228,-0.1297,-0.1276,-0.1191,-0.1062,-0.1057,-0.1105,-0.0924,-0.0705,-0.0529,-0.0331,-0.0214,-0.0187,0.0016,0.0032,-0.0043,0,0.0166,0.0464,0.0758,0.2317,0.173,0,0,-0.4245,-0.393,-0.3833,-0.3785,-0.236,-0.142,-0.0539,-0.0267,-0.0342,-0.1116,-0.1901,-0.2168,-0.1757,-0.1415,-0.1239,-0.1164,-0.1212,-0.1361,-0.1511,-0.15,-0.0854,-0.0822,-0.094,-0.1404,-0.1564,-0.1474,-0.1175,-0.1372,-0.189,-0.134,-0.0726,-0.0443,-0.0016,-0.0075,-0.0347,0.0096,0.0155,0.0059,0.1634,0.1436,0.1014,0.102,0.1692,0.2456,-0.0219,-0.1004,-0.4512,-0.3668,-0.3086,-0.3006,-0.2435,-0.2355,-0.0545,-0.0278,-0.0075,-0.126,-0.2381,-0.2942,-0.1527,-0.0892,-0.0774,-0.0774,-0.0849,-0.1046,-0.1313,-0.1725,-0.0641,-0.0593,-0.0742,-0.166,-0.2157,-0.2157,-0.1404,-0.1687,-0.3193,-0.2109,-0.094,-0.0464,0.0678,0.0,-0.0651,0.0053,0.0198,0.0085,0.3262,0.3332,0.2621,0.1746,0.1175,0.0913,-0.0432,-0.1879,-0.433,-0.2942,-0.2322,-0.2333,-0.1607,-0.1949,0,0,0.0262,-0.1559,-0.3054,-0.4544,-0.1426,-0.0609,-0.0534,-0.0566,-0.0635,-0.0822,-0.1127,-0.2066,0,0,0,-0.1655,-0.2611,-0.2766,-0.1559,-0.1735,-0.4004,-0.2563,-0.1148,-0.079,0.04,0,0.0747,-0.0005,0.0203,0.0069,0,0.3177,0.3118,0.2312,0.1169,0.0149,-0.0513,-0.1265,-0.2125,0,0,0,-0.1201,-0.094,-0.0005,0.0523,0,-0.2258,-0.3561,-0.4949,0,0,0,0,0,0,0,-0.2162,-0.0742,-0.0256,-0.0144,-0.1303,-0.244,-0.2856,0,0,-0.3823,-0.2525,-0.1207,-0.1062,-0.0363,-0.1516,0.204,0,0,0,0,0,0.323,0.2435,0.1217,-0.0171,-0.0737,-0.0694,0.0374,0.0101,0.0,0.0005,-0.0913,-0.0603,-0.0037,0.0587,-0.0262,-0.204,-0.2974,-0.3444,-0.1041,-0.0731,-0.0352,-0.0374,-0.0817,-0.1479,-0.1447,-0.2109,-0.1185,-0.0331,-0.0155,-0.0758,-0.1426,-0.204,-0.1073,-0.0934,-0.2787,-0.2344,0,0,0,-0.1847,0.0806,0.0,-0.0048,0,0,0,0,0.2339,0.1196,-0.0278,-0.0876,-0.0614,0.1041,0.047,0.0075,0.0187,-0.008,-0.0149,-0.008,-0.0027,-0.0518,-0.1233,-0.1922,-0.2413,-0.1671,-0.1068,-0.0577,-0.086,-0.2061,-0.4266,-0.2888,-0.2157,-0.0892,-0.0149,0.0438,-0.0069,-0.0486,-0.1057,-0.1703,-0.1869,-0.2114,-0.2274,0.0,0.0,-0.2157,-0.0635,-0.039,-0.0203,-0.0123,0,0,0,0,0,0,0,0,0,0.166,0.0747,0.0149,0.0849,0.04,0.0048,-0.0096,-0.0187,-0.0438,-0.0806,-0.1271,-0.2381,-0.126,-0.0673,-0.0454,-0.0966,-0.2488,-0.5579,0,0,0,0,0.0892,0.0272,-0.0128,-0.055,-0.0934,0,0,0,0,0,-0.3406,-0.0982,-0.0966,-0.0806,-0.0235,0,0,0,0,0,0,0,0,0,0,0,0,0.1335,0.0619,0.0107,-0.0091,-0.0198,-0.0363,-0.0609,-0.0993,-0.2451,0,0,0,0,0,0,0,0,0,0,0,0,0.0059,-0.0262,-0.0609,0,0,0,0,0,-0.1853,-0.1185,-0.15,-0.1634,-0.0715,0,0,0,0,0,0,0,0,0,0,0,0,0,0,0,0,0,0,0,0,0,0,0,0,0,0,0,0,0,0,0,0,0,0,0,0,0,0,0,0,0,-0.0812,-0.1169,-0.1602,-0.2104,-0.1879,0,0,0,0,0,0,0,0,0,0,0,0,0,0,0,0,0,0,0,0,0,0,0,0,0,0,0,0,0,0,0,0,0,0,0,0,0,0,0,0,0,-0.023,-0.1612,-0.1105,-0.197,-0.3251,0,0,0,0,0,0,0,0,0,0,0,0,0,0,0,0,0,0,0,0,0,0,0,0,0,0,0,0,0,0,0,0,0,0,0,0,0,0,0,0,0,0,-0.1917,-0.0352,-0.1714,-0.4042,0,0,0,0,0,0,0,0,0,0,0,0,0,0,0,0,0,0,0,0,0,0,0,0,0,0,0,0,0,0,0,0,0,0,0,0,0,0,0,0,0,0,-0.1991,-0.0021,-0.1885,-0.4351,0,0,0,0,0,0,0,0,0,0,0,0,0,0,0,0,0,0,0,0,0,0,0,0,0,0,0,0,0,0,0,0,0,0,0,0,0,0,0,0,0,0,-0.1575,-0.0454,-0.2355,-0.4576,0,0,0,0,0,0,0,0,0,0,0,0,0,0,0,0,0,0,0,0,0,0,0,0,0,0,0,0,0,0,0,0,0,0,0,0,0,0,0,0,0,0,-0.11,-0.1078,-0.2579,-0.4912,0]}]],[[{"header":{"parameterUnit":"kt","parameterCategory":2,"dx":1,"dy":1,"la1":29.46422004699707,"la2":30.564109802246094,"lo1":-89.4342041015625,"lo2":-87.934326171875,"nx":46,"ny":34,"refTime":"2022-10-27T00:00:00:Z","depth":"2","parameterNumber":2,"parameterNumberName":"U-component_of_CURRENTS"},"data":[0.0384,0.0529,0.0689,0.0844,0.0977,0.1014,0.0998,0,0.0128,0.1014,0.2408,0.2792,0.2472,0.2232,0.1719,0.0849,-0.0005,-0.0641,-0.1623,-0.2627,-0.2851,-0.267,-0.2504,-0.2285,-0.2178,-0.236,-0.26,-0.2696,-0.268,-0.267,-0.2734,-0.292,-0.3273,-0.3668,-0.4052,-0.4458,-0.4853,-0.512,-0.52,-0.5158,-0.5115,-0.5093,-0.5061,-0.4971,-0.4714,-0.4239,0.0267,0.0379,0.0491,0.0587,0.0619,0.0475,-0.0064,-0.0464,0,0.071,0.2269,0.2178,0.1431,0.1757,0.1714,0.1137,0.0288,-0.0411,-0.078,-0.1564,-0.2659,-0.3049,-0.2787,-0.2355,-0.2018,-0.1981,-0.2173,-0.2333,-0.2387,-0.2408,-0.2349,-0.2194,-0.2146,-0.2392,-0.2808,-0.3214,-0.3583,-0.378,-0.3791,-0.3839,-0.3967,-0.4074,-0.4116,-0.4138,-0.4164,-0.4106,0.0192,0.0272,0.0363,0.0459,0.055,0.0651,0.0822,0.149,0.292,0.2936,0.2077,0,0.0726,0.1762,0.1911,0.1393,0.0657,-0.0112,-0.0657,-0.086,-0.1463,-0.2461,-0.3027,-0.2953,-0.2515,-0.2168,-0.2034,-0.1986,-0.197,-0.1981,-0.1885,-0.166,-0.1479,-0.1554,-0.189,-0.2194,-0.2365,-0.2456,-0.2552,-0.268,-0.2776,-0.2798,-0.2803,-0.2835,-0.292,-0.3075,0.0198,0.0219,0.0267,0.0342,0.0443,0.0577,0.078,0.1143,0.1628,0.1821,0.166,0.2872,0.3785,0.3321,0.2718,0.166,0.0753,0.0096,-0.0475,-0.0913,-0.1036,-0.1442,-0.2258,-0.2894,-0.3075,-0.2734,-0.221,-0.1842,-0.1644,-0.15,-0.1313,-0.1143,-0.1073,-0.1191,-0.1415,-0.15,-0.1612,-0.1917,-0.22,-0.2344,-0.236,-0.2242,-0.2098,-0.2018,-0.1991,-0.2034,0.031,0.023,0.0214,0.024,0.031,0.0411,0.0566,0.078,0.1036,0.1239,0.1399,0.1821,0.2349,0.3038,0.267,0.1287,0.0443,-0.0107,-0.0427,-0.0625,-0.0913,-0.1105,-0.1276,-0.1773,-0.2376,-0.2718,-0.2579,-0.2109,-0.1612,-0.1159,-0.0774,-0.0614,-0.0667,-0.0886,-0.11,-0.1111,-0.1292,-0.1735,-0.2082,-0.2301,-0.2317,-0.2093,-0.1869,-0.1767,-0.1655,-0.1543,0.0315,0.0294,0.0208,0.016,0.016,0.0192,0.0278,0.0416,0.0561,0.0667,0.071,0.0737,0.0726,0.0705,0,-0.0224,-0.0491,-0.063,-0.0763,-0.0801,-0.0806,-0.0918,-0.103,-0.1009,-0.1143,-0.157,-0.1911,-0.1799,-0.1319,-0.0774,-0.0379,-0.0251,-0.0395,-0.0689,-0.0897,-0.0934,-0.1089,-0.1426,-0.1709,-0.1901,-0.1922,-0.1783,-0.173,-0.1831,-0.1922,-0.1895,0.0694,0.0518,0.0256,0.0096,0.0016,-0.0101,-0.0096,0.0059,0.0171,0.0203,0.0128,-0.0107,-0.0651,-0.1596,-0.2162,0,-0.0593,-0.118,-0.1105,-0.0998,-0.0908,-0.0833,-0.0822,-0.0812,-0.0758,-0.0763,-0.0801,-0.0726,-0.0571,-0.0411,-0.032,-0.0352,-0.0534,-0.0796,-0.0961,-0.0956,-0.095,-0.1084,-0.1324,-0.1559,-0.1591,-0.1559,-0.1671,-0.1885,-0.2093,-0.22,0,0.0064,0.0096,0.0064,0.0011,-0.0406,-0.0539,-0.0203,-0.0059,-0.0037,-0.0117,-0.0288,-0.0561,-0.0934,-0.1324,-0.1506,0,-0.0737,-0.1297,-0.1057,-0.0934,-0.0828,-0.0737,-0.0683,-0.0646,-0.0619,-0.0497,-0.04,-0.063,-0.0892,-0.0998,-0.1095,-0.1228,-0.1361,-0.1335,-0.1143,-0.0913,-0.0833,-0.103,-0.1233,-0.1281,-0.1345,-0.1447,-0.1548,-0.1671,-0.1789,0,-0.0133,0,0.0133,0.0267,0,-0.0043,-0.0075,-0.0069,-0.0091,-0.0144,-0.023,-0.0352,-0.0651,-0.0929,-0.103,-0.1089,0,-0.04,-0.0844,-0.0844,-0.0758,-0.0667,-0.0609,-0.0571,-0.0529,-0.0545,-0.0747,-0.1078,-0.1458,-0.1746,-0.1874,-0.1954,-0.1922,-0.1719,-0.1356,-0.0918,-0.071,-0.0881,-0.1068,-0.11,-0.1164,-0.1281,-0.1351,-0.1356,-0.1313,0,0.0294,0.0384,0.0427,0,0.0246,0.031,0.0064,-0.0027,-0.0069,-0.0085,-0.0064,0.0064,-0.0368,-0.0737,-0.0443,-0.0315,0,-0.0619,-0.103,-0.0737,-0.0593,-0.0502,-0.0443,-0.0422,-0.0427,-0.047,-0.063,-0.103,-0.1773,-0.2322,-0.2445,-0.2456,-0.228,-0.1938,-0.1452,-0.094,-0.0747,-0.086,-0.0934,-0.0961,-0.1073,-0.1212,-0.1281,-0.1276,-0.1223,0,0,0,0,0,-0.0192,-0.0283,-0.0139,-0.0085,-0.0069,-0.0075,-0.0069,-0.0059,0,0.0027,0.0117,0.0192,0,0,-0.0133,-0.0294,-0.032,-0.0304,-0.0294,-0.0294,-0.0315,-0.0342,-0.0427,-0.0753,-0.1522,-0.2301,-0.2595,-0.2589,-0.2381,-0.1959,-0.1447,-0.1014,-0.086,-0.0828,-0.0758,-0.0817,-0.0977,-0.1105,-0.1159,-0.1159,-0.1132,0,0,0,0,0,0,-0.0101,-0.016,-0.0075,-0.0021,-0.0069,-0.0246,-0.0507,-0.0021,0.055,0.0651,0.0817,0,0,-0.0043,-0.0112,-0.0149,-0.0155,-0.0149,-0.0166,-0.0198,-0.0235,-0.0278,-0.0395,-0.079,-0.1554,-0.2189,-0.2344,-0.2178,-0.1821,-0.1383,-0.1046,-0.0812,-0.0614,-0.0598,-0.0726,-0.086,-0.0956,-0.1014,-0.1057,-0.1089,0,0,0,0,0,0,-0.0219,-0.0438,-0.0358,-0.016,-0.0037,-0.0075,-0.0091,0.0021,0.0112,0.0128,0,0,0,-0.0011,-0.0027,-0.0037,-0.0027,-0.0021,-0.0043,-0.0085,-0.0144,-0.0187,-0.024,-0.0347,-0.0641,-0.1095,-0.1404,-0.1436,-0.1228,-0.0918,-0.0641,-0.0491,-0.0481,-0.0555,-0.0641,-0.0715,-0.0796,-0.0892,-0.0993,-0.1073,0,0,0,0,0,0,-0.0352,-0.1121,-0.142,-0.0934,-0.0358,-0.0107,-0.0048,-0.0027,-0.0166,-0.0619,-0.0678,-0.0411,0,0.0011,0.0037,0.0064,0.0096,0.0107,0.0085,0.0027,-0.0043,-0.0112,-0.0166,-0.0214,-0.0278,-0.039,-0.0518,-0.0561,-0.0507,-0.0422,-0.0368,-0.0379,-0.0443,-0.0513,-0.0566,-0.0625,-0.0726,-0.086,-0.0982,-0.1073,0,0,0,0,0,0,0,-0.1329,-0.2312,-0.1516,-0.0646,-0.0075,0.0133,0.0224,0.0198,0.0053,-0.0059,-0.008,0,0.0021,0.0107,0.0203,0.0256,0.0267,0.0235,0.016,0.0069,-0.0011,-0.0085,-0.0144,-0.0182,-0.0208,-0.0235,-0.0256,-0.0267,-0.0288,-0.0326,-0.0384,-0.0459,-0.0523,-0.0598,-0.0699,-0.0828,-0.0956,-0.1057,-0.1143,0,0,0,0.0278,0.0555,0,0,0,-0.039,-0.0416,0.0133,0.0438,0.0534,0.0464,0.0416,0.0331,0.0166,0.008,0,0.0048,0.023,0.0406,0.047,0.0459,0.04,0.0304,0.0203,0.0112,0.0021,-0.0053,-0.0112,-0.0149,-0.0182,-0.0214,-0.0246,-0.0299,-0.0374,-0.0459,-0.0555,-0.0657,-0.078,-0.0924,-0.1052,-0.1153,-0.1244,-0.1329,0,0,0.0673,0.1276,0.1575,0.3807,0.6156,0.6685,0.5232,0.2744,0.15,0.1212,0.1148,0.1041,0.0886,0.0625,0.0198,-0.0053,0,0.0224,0.0598,0.0769,0.0758,0.0678,0.0571,0.0454,0.0336,0.0224,0.0117,0.0016,-0.0064,-0.0133,-0.0198,-0.0262,-0.0336,-0.0427,-0.0518,-0.0609,-0.0705,-0.0833,-0.0982,-0.1137,-0.1281,-0.1404,-0.1506,-0.157,0,0,0.0529,0.1474,0.1837,0.1767,0,0,-0.0294,-0.0166,0.0614,0.1132,0.1388,0.1479,0.1335,0.1046,0.0902,0,0.0934,0.1826,0.1634,0.1345,0.11,0.0902,0.0726,0.0566,0.0411,0.0267,0.0112,-0.0027,-0.0133,-0.0219,-0.0304,-0.0395,-0.0497,-0.0577,-0.063,-0.0689,-0.0785,-0.0924,-0.1073,-0.1228,-0.1372,-0.1516,-0.1634,-0.1714,0.0828,0.268,0.37,0,0,0,0,0,-0.0352,-0.0288,0.0416,0.1014,0.1474,0.1666,0.1741,0.1943,0.2744,0.3599,0.3433,0.2782,0.2253,0.1767,0.1372,0.1073,0.0833,0.0635,0.0464,0.0288,0.0085,-0.0117,-0.0272,-0.039,-0.047,-0.0529,-0.0571,-0.0587,-0.0598,-0.0667,-0.079,-0.0929,-0.1062,-0.1196,-0.1329,-0.1479,-0.1639,-0.1757,0.874,0.5836,0.2846,0.1714,0.1442,0,0,0,-0.0561,-0.0625,0.0294,0.0988,0.1415,0.1692,0.1949,0.2274,0.2803,0.3268,0.331,0.3033,0.2579,0.2034,0.1543,0.1159,0.0865,0.0635,0.0459,0.0315,0.0091,-0.0203,-0.0459,-0.0603,-0.063,-0.0598,-0.0566,-0.0566,-0.0566,-0.0609,-0.0747,-0.0924,-0.1116,-0.1292,-0.1388,-0.1463,-0.1586,-0.1714,0,0.0267,0.1137,0.1762,0.2157,0.2531,0,0,0.0171,0.0806,0.15,0.1735,0.181,0.2146,0.2419,0.2477,0.2605,0.2819,0.2979,0.2985,0.2686,0.2141,0.1607,0.1185,0.0833,0.0539,0.032,0.0256,0.008,-0.0288,-0.0667,-0.0876,-0.0865,-0.0763,-0.0801,-0.1271,-0.1522,-0.1271,-0.1169,-0.1292,-0.1543,-0.1789,-0.1719,-0.157,-0.1602,-0.1671,0.9626,0.6813,0.409,0.2589,0.2387,0.3663,0.4965,0.5846,0.6065,0.4869,0.3599,0.2691,0.2077,0.2322,0.2659,0.2557,0.2349,0.2162,0.2349,0.2723,0.2654,0.2045,0.1527,0.1148,0.0806,0.0443,0.0069,-0.0027,-0.0107,-0.0411,-0.0796,-0.1078,-0.1132,-0.1062,-0.165,-0.2798,-0.276,-0.2034,-0.1901,-0.2189,-0.2819,-0.2883,-0.2216,-0.1826,-0.1714,-0.1714,0.166,0.3705,0.3796,0.3246,0.3086,0.3572,0.4042,0.3962,0.4197,0.4538,0.3871,0.2461,0.1415,0.1169,0,0,0.0219,0.0763,0.1388,0.2365,0.2424,0.1607,0.1303,0.11,0.0897,0.0593,0.0037,-0.0326,0,0,0,-0.0331,-0.0913,-0.0929,-0.1655,-0.3054,-0.2798,-0.2168,-0.221,-0.2242,-0.2226,0,-0.1335,-0.2461,-0.2056,-0.1757,0,0.1543,0.3316,0.3449,0.3316,0.3348,0.3508,0.3406,0.3203,0,0,0,0.0347,0.0785,0.0865,0.0849,0,0.0251,0.0518,0.0534,0,0,0,0,0,0,0,-0.0219,0.008,0.0731,0.0881,0.0513,-0.0368,-0.087,0,0,-0.1121,-0.2638,-0.3513,-0.4223,-0.3865,-0.189,-0.0502,0,0,0,0,0,0.1532,0.3353,0.3764,0.3983,0.4026,0.3812,0.3721,0.3599,0.3251,0.3022,0.252,0.189,0.1751,0.2296,0.2985,0.2734,0.1666,0.0347,0.0224,0.1111,0.1463,0.1596,0.1959,0.3011,0.4074,0.3625,0.2312,0.1575,0.1233,0.0582,-0.063,-0.1837,-0.1655,-0.0486,-0.103,-0.2082,0,0,0,-0.1068,-0.1175,-0.0347,-0.0667,0,0,0,0,0.1078,0.3054,0.4335,0.4656,0.4474,0.3871,0.3214,0.2953,0.2712,0.2376,0.2136,0.2168,0.2461,0.2728,0.2702,0.2445,0.228,0.2061,0.1853,0.1959,0.2056,0.1794,0.2696,0.4132,0.3636,0.2504,0.2125,0.1751,0.1062,0.0486,-0.0123,-0.0865,-0.2285,-0.4277,-0.5542,-0.5686,-0.5077,-0.2963,-0.1345,-0.1217,-0.0945,-0.071,0,0,0,0,0,0,0,0,0,0.0822,0.2301,0.3118,0.291,0.2419,0.2328,0.244,0.2611,0.2712,0.2648,0.2477,0.2771,0.2953,0.2632,0.2584,0.2963,0.2445,0.1618,0,0,0,0,0.0395,0.0945,0.071,-0.0101,-0.0529,0,0,0,0,0,-0.1228,-0.2141,-0.1516,-0.0833,-0.0246,0,0,0,0,0,0,0,0,0,0,0,0,0.0678,0.1757,0.2339,0.2627,0.2776,0.2798,0.2611,0.212,0.1789,0,0,0,0,0,0,0,0,0,0,0,0,-0.008,0.0016,0.0192,0,0,0,0,0,-0.0737,-0.1612,-0.141,-0.0753,-0.024,0,0,0,0,0,0,0,0,0,0,0,0,0,0,0,0,0,0,0,0,0,0,0,0,0,0,0,0,0,0,0,0,0,0,0,0,0,0,0,0,0,-0.0705,-0.1319,-0.1228,-0.134,-0.1431,0,0,0,0,0,0,0,0,0,0,0,0,0,0,0,0,0,0,0,0,0,0,0,0,0,0,0,0,0,0,0,0,0,0,0,0,0,0,0,0,0,-0.0545,-0.0854,-0.1143,-0.2152,-0.2509,0,0,0,0,0,0,0,0,0,0,0,0,0,0,0,0,0,0,0,0,0,0,0,0,0,0,0,0,0,0,0,0,0,0,0,0,0,0,0,0,0,0,-0.0395,-0.1345,-0.252,-0.213,0,0,0,0,0,0,0,0,0,0,0,0,0,0,0,0,0,0,0,0,0,0,0,0,0,0,0,0,0,0,0,0,0,0,0,0,0,0,0,0,0,0,-0.0507,-0.1954,-0.2611,-0.1847,0,0,0,0,0,0,0,0,0,0,0,0,0,0,0,0,0,0,0,0,0,0,0,0,0,0,0,0,0,0,0,0,0,0,0,0,0,0,0,0,0,0,-0.0838,-0.2264,-0.2584,-0.1842,0,0,0,0,0,0,0,0,0,0,0,0,0,0,0,0,0,0,0,0,0,0,0,0,0,0,0,0,0,0,0,0,0,0,0,0,0,0,0,0,0,0,-0.0817,-0.1762,-0.1949,-0.1762,0]}],[{"header":{"parameterUnit":"kt","parameterCategory":2,"dx":1,"dy":1,"la1":29.46422004699707,"la2":30.564109802246094,"lo1":-89.4342041015625,"lo2":-87.934326171875,"nx":46,"ny":34,"refTime":"2022-10-27T00:00:00:Z","depth":"2","parameterNumber":3,"parameterNumberName":"V-component_of_CURRENTS"},"data":[-0.0513,-0.0721,-0.0972,-0.1249,-0.1607,-0.2141,-0.3305,0,0.0214,-0.299,-0.3775,-0.2712,-0.3412,-0.3972,-0.4437,-0.4907,-0.4479,-0.3732,-0.3588,-0.346,-0.3337,-0.3337,-0.3412,-0.3524,-0.3497,-0.3358,-0.3353,-0.3518,-0.3732,-0.4063,-0.4399,-0.4319,-0.393,-0.3438,-0.3134,-0.2969,-0.2942,-0.3033,-0.3022,-0.2899,-0.2744,-0.2611,-0.244,-0.2184,-0.1863,-0.1388,-0.0518,-0.0737,-0.0961,-0.1201,-0.1463,-0.1746,-0.1959,-0.0166,0,-0.4512,-0.5248,-0.2333,-0.3316,-0.3951,-0.4148,-0.441,-0.4496,-0.3946,-0.3609,-0.3684,-0.3396,-0.2942,-0.2611,-0.2557,-0.2675,-0.2862,-0.3086,-0.3358,-0.3583,-0.3785,-0.417,-0.4479,-0.4303,-0.3828,-0.3529,-0.3454,-0.346,-0.3433,-0.3225,-0.2888,-0.2557,-0.2237,-0.1927,-0.1655,-0.1468,-0.1292,-0.0507,-0.0721,-0.0929,-0.1132,-0.1324,-0.1458,-0.1442,-0.086,-0.0844,-0.4079,-0.4709,0,-0.4207,-0.4271,-0.3801,-0.3753,-0.3876,-0.3801,-0.3481,-0.3545,-0.3807,-0.346,-0.2798,-0.2205,-0.1965,-0.2061,-0.229,-0.2568,-0.2846,-0.3033,-0.3257,-0.3524,-0.3641,-0.3518,-0.3492,-0.3529,-0.3342,-0.315,-0.3001,-0.283,-0.2589,-0.2248,-0.1831,-0.1463,-0.1169,-0.0961,-0.0443,-0.0678,-0.0876,-0.1084,-0.1276,-0.1436,-0.1554,-0.1575,-0.1847,-0.2707,-0.3081,-0.1367,-0.4378,-0.4341,-0.2856,-0.2755,-0.3065,-0.3235,-0.3219,-0.3097,-0.347,-0.3801,-0.3583,-0.2894,-0.2162,-0.1655,-0.1506,-0.1634,-0.1901,-0.2146,-0.2301,-0.244,-0.2605,-0.2787,-0.3091,-0.3278,-0.2904,-0.2584,-0.252,-0.2504,-0.2355,-0.2098,-0.1735,-0.141,-0.1052,-0.0673,-0.0283,-0.0571,-0.0796,-0.1014,-0.1223,-0.1436,-0.1644,-0.1826,-0.2072,-0.2493,-0.2872,-0.3006,-0.3871,-0.4677,-0.2141,-0.1388,-0.2232,-0.2696,-0.2814,-0.2867,-0.2953,-0.3396,-0.3711,-0.3647,-0.3123,-0.2333,-0.1612,-0.1313,-0.1404,-0.1591,-0.1639,-0.1618,-0.1682,-0.1943,-0.2397,-0.2814,-0.2664,-0.2371,-0.2408,-0.2499,-0.2403,-0.2093,-0.1644,-0.1313,-0.0956,-0.0534,-0.0166,-0.0406,-0.0646,-0.0892,-0.1116,-0.1372,-0.1687,-0.1911,-0.2141,-0.2429,-0.2798,-0.3203,-0.3849,-0.4661,0,-0.0678,-0.166,-0.2269,-0.2584,-0.2712,-0.275,-0.2947,-0.3294,-0.3529,-0.3636,-0.3374,-0.2702,-0.2082,-0.1805,-0.1794,-0.149,-0.1111,-0.0934,-0.1084,-0.1543,-0.212,-0.2306,-0.2189,-0.2301,-0.2435,-0.2371,-0.2034,-0.1564,-0.1244,-0.103,-0.0726,-0.016,-0.0107,-0.0384,-0.0689,-0.0929,-0.1153,-0.1725,-0.1959,-0.2136,-0.2322,-0.2563,-0.2856,-0.3209,-0.3374,-0.1164,0,-0.1522,-0.2007,-0.2488,-0.2648,-0.2702,-0.2771,-0.2936,-0.3081,-0.3225,-0.3268,-0.3123,-0.2851,-0.2461,-0.2472,-0.181,-0.0966,-0.0459,-0.0379,-0.0758,-0.1393,-0.1879,-0.2061,-0.2194,-0.2322,-0.2232,-0.1885,-0.1351,-0.0993,-0.0886,-0.0742,0,0.0048,-0.0214,-0.0507,-0.0667,-0.0988,-0.1938,-0.2024,-0.2098,-0.2184,-0.2285,-0.2387,-0.2429,-0.2312,-0.205,-0.0812,0,-0.1917,-0.2621,-0.2638,-0.2691,-0.2728,-0.2798,-0.2867,-0.2776,-0.2654,-0.2621,-0.2707,-0.2632,-0.2819,-0.2093,-0.0982,-0.0208,0.0043,-0.0214,-0.0833,-0.1511,-0.1906,-0.2018,-0.2146,-0.205,-0.1671,-0.1127,-0.0774,-0.0657,-0.0555,0,-0.0005,0,-0.0566,-0.0529,0,-0.2029,-0.1991,-0.2007,-0.2045,-0.2077,-0.2082,-0.2029,-0.1671,-0.1666,-0.1506,-0.0582,0,-0.2205,-0.2531,-0.2638,-0.2712,-0.276,-0.276,-0.2654,-0.2467,-0.2285,-0.2339,-0.2605,-0.2782,-0.2066,-0.0977,-0.0155,0.0149,-0.0011,-0.0566,-0.1244,-0.1644,-0.1778,-0.1911,-0.1847,-0.1377,-0.095,-0.0699,-0.0545,-0.0427,0,-0.0011,0.0,-0.0694,0,-0.0267,-0.1639,-0.1773,-0.1847,-0.1911,-0.1959,-0.197,-0.197,-0.1351,-0.1741,-0.1506,-0.1287,0,-0.165,-0.26,-0.2616,-0.2696,-0.2728,-0.2691,-0.2568,-0.236,-0.213,-0.2061,-0.2381,-0.2627,-0.2018,-0.1073,-0.0336,-0.0037,-0.0112,-0.0529,-0.1036,-0.1329,-0.1543,-0.1666,-0.1511,-0.11,-0.0844,-0.0694,-0.0571,-0.0459,0,0,0,0,0,-0.0529,-0.1426,-0.1628,-0.1741,-0.1826,-0.1879,-0.1954,-0.2034,0,-0.1949,-0.1687,-0.1249,0,0,-0.2579,-0.2547,-0.2632,-0.2664,-0.26,-0.2456,-0.2248,-0.2018,-0.1842,-0.1927,-0.2301,-0.2045,-0.1329,-0.0678,-0.0368,-0.0347,-0.0587,-0.0897,-0.1191,-0.1393,-0.1383,-0.1116,-0.0881,-0.0769,-0.0694,-0.0609,-0.0513,0,0,0,0,0,0,-0.1372,-0.1666,-0.1794,-0.1799,-0.1746,-0.1767,-0.1794,-0.0721,-0.1853,-0.1938,-0.1078,0,0,-0.2269,-0.2365,-0.2504,-0.2541,-0.2472,-0.2333,-0.2136,-0.1927,-0.1719,-0.1596,-0.1767,-0.1863,-0.1607,-0.1084,-0.078,-0.0678,-0.0774,-0.095,-0.1169,-0.1201,-0.1041,-0.0833,-0.0737,-0.0715,-0.0683,-0.0614,-0.0513,0,0,0,0,0,0,-0.0993,-0.1863,-0.2061,-0.197,-0.1634,-0.1495,-0.157,-0.149,-0.1698,-0.1997,0,0,0,-0.2082,-0.22,-0.2371,-0.2408,-0.2344,-0.2216,-0.2034,-0.1842,-0.1655,-0.1479,-0.1367,-0.1442,-0.1436,-0.1201,-0.1025,-0.0908,-0.0918,-0.0977,-0.1025,-0.094,-0.0801,-0.0689,-0.0657,-0.0662,-0.063,-0.0561,-0.0459,0,0,0,0,0,0,-0.0753,-0.2018,-0.236,-0.2499,-0.1842,-0.1377,-0.1543,-0.149,-0.1479,-0.1452,-0.0294,-0.0192,0,-0.1943,-0.2072,-0.2274,-0.2301,-0.2232,-0.2104,-0.1927,-0.1746,-0.1591,-0.1426,-0.1276,-0.1164,-0.1089,-0.1025,-0.0961,-0.0897,-0.0876,-0.0876,-0.0854,-0.0785,-0.0705,-0.0641,-0.0614,-0.0587,-0.0539,-0.0464,-0.0384,0,0,0,0,0,0,0,-0.2002,-0.2808,-0.3129,-0.2509,-0.1527,-0.1602,-0.1474,-0.1201,-0.0881,-0.0518,-0.0363,0,-0.1853,-0.2024,-0.2242,-0.2226,-0.2125,-0.1986,-0.1815,-0.1644,-0.1506,-0.1377,-0.1239,-0.1121,-0.102,-0.095,-0.0892,-0.0854,-0.0833,-0.0812,-0.0785,-0.0731,-0.0667,-0.0619,-0.0566,-0.0507,-0.0448,-0.0384,-0.0315,0,0,0,-0.0699,0.0358,0,0,0,-0.3636,-0.3251,-0.3033,-0.1767,-0.1575,-0.1431,-0.1078,-0.0609,-0.031,-0.0224,0,-0.1842,-0.2114,-0.2285,-0.2184,-0.2024,-0.1874,-0.1714,-0.1554,-0.142,-0.1319,-0.1207,-0.1105,-0.1014,-0.0945,-0.0892,-0.0854,-0.0822,-0.079,-0.0747,-0.0699,-0.0646,-0.0582,-0.0513,-0.0443,-0.0379,-0.032,-0.0251,0,0,-0.1965,-0.0902,-0.0043,-0.1842,0.0,0.0,-0.3054,-0.1954,-0.2445,-0.1644,-0.1329,-0.1207,-0.0865,-0.0219,0.0171,-0.0112,0,-0.2098,-0.236,-0.2371,-0.2146,-0.1927,-0.1767,-0.1623,-0.149,-0.1377,-0.1297,-0.1196,-0.1121,-0.1046,-0.0972,-0.0918,-0.0865,-0.0817,-0.078,-0.0737,-0.0683,-0.0614,-0.0523,-0.0438,-0.0368,-0.0299,-0.024,-0.0182,0,0,-0.519,-0.0411,-0.0801,-0.3689,0,0,-0.2408,-0.0934,-0.1927,-0.1575,-0.1191,-0.0945,-0.0491,0.0262,0.1132,0,-0.1095,-0.2306,-0.2445,-0.2333,-0.2045,-0.1805,-0.1655,-0.1548,-0.1447,-0.1351,-0.1287,-0.1217,-0.1164,-0.1095,-0.102,-0.0945,-0.0876,-0.0822,-0.079,-0.0747,-0.0673,-0.0566,-0.0443,-0.0331,-0.0246,-0.0166,-0.0123,-0.0107,-0.1399,-0.1602,-0.3454,0,0,0,0,0,-0.2947,-0.1522,-0.2344,-0.2136,-0.1303,-0.0785,-0.0272,0.0336,0.1148,-0.0203,-0.181,-0.2104,-0.2221,-0.2088,-0.1826,-0.1612,-0.1511,-0.1463,-0.1404,-0.1308,-0.1223,-0.1191,-0.1175,-0.1127,-0.1046,-0.0961,-0.0876,-0.0833,-0.0817,-0.0742,-0.0619,-0.0481,-0.0331,-0.0198,-0.0091,0.0016,0.0027,-0.0005,-0.2798,-0.1062,0.04,0.0491,0.1308,0,0,0,-0.3219,-0.2621,-0.3107,-0.3118,-0.1687,-0.0828,-0.0326,0.0043,0.0198,-0.0593,-0.1468,-0.1879,-0.189,-0.1709,-0.1495,-0.1345,-0.1324,-0.1361,-0.1372,-0.1265,-0.1036,-0.102,-0.1068,-0.1137,-0.1111,-0.1025,-0.0902,-0.0897,-0.094,-0.0758,-0.0539,-0.0363,-0.016,-0.0048,-0.0016,0.0176,0.0198,0.0117,0,0.0363,0.0582,0.087,0.2429,0.1778,0,0,-0.4058,-0.3743,-0.3641,-0.3577,-0.2184,-0.126,-0.0395,-0.0123,-0.0192,-0.095,-0.1719,-0.1981,-0.1586,-0.1255,-0.1078,-0.1004,-0.1057,-0.1201,-0.1345,-0.1329,-0.0694,-0.0662,-0.078,-0.1233,-0.1393,-0.1303,-0.1009,-0.1201,-0.1703,-0.1164,-0.0555,-0.0262,0.016,0.0112,-0.0155,0.0267,0.032,0.0224,0.1692,0.1666,0.1127,0.1132,0.1805,0.2563,-0.0155,-0.0934,-0.4335,-0.3508,-0.292,-0.283,-0.2248,-0.2168,-0.0395,-0.0128,0.0075,-0.1089,-0.2178,-0.2723,-0.1345,-0.0726,-0.0614,-0.0614,-0.0689,-0.0881,-0.1148,-0.1548,-0.0481,-0.0432,-0.0577,-0.1479,-0.1965,-0.1959,-0.1223,-0.149,-0.2958,-0.1906,-0.0753,-0.0267,0.0886,0.0203,-0.0443,0.023,0.0363,0.0251,0.338,0.3465,0.2712,0.1853,0.1287,0.103,-0.0299,-0.173,-0.4159,-0.2792,-0.2178,-0.2178,-0.1431,-0.1767,0,0,0.04,-0.1393,-0.284,-0.425,-0.1233,-0.0443,-0.0374,-0.0406,-0.047,-0.0657,-0.0961,-0.1885,0,0,0,-0.1479,-0.2392,-0.2525,-0.1356,-0.1511,-0.3684,-0.2306,-0.0929,-0.0561,0.0651,0,0.095,0.0176,0.0368,0.0235,0,0.3241,0.3193,0.2403,0.1276,0.0278,-0.0368,-0.1105,-0.1975,0,0,0,-0.1046,-0.079,0.0059,0.0582,0,-0.2072,-0.3348,-0.4672,0,0,0,0,0,0,0,-0.1981,-0.0657,-0.0192,-0.0075,-0.1137,-0.2242,-0.2659,0,0,-0.347,-0.2061,-0.0993,-0.0838,-0.0085,-0.141,0.2226,0,0,0,0,0,0.3289,0.2499,0.1313,-0.0048,-0.0587,-0.0534,0.0502,0.016,0.0059,0.0059,-0.0785,-0.047,0.0091,0.0705,-0.0192,-0.1858,-0.2782,-0.3241,-0.0961,-0.0651,-0.0272,-0.0304,-0.071,-0.1313,-0.11,-0.1879,-0.103,-0.0203,-0.0021,-0.0609,-0.126,-0.1874,-0.0998,-0.086,-0.2451,-0.1623,0,0,0,-0.1634,0.1004,0.0091,0.0043,0,0,0,0,0.2387,0.1276,-0.016,-0.0721,-0.0448,0.1143,0.0587,0.0192,0.0294,0.0032,-0.0027,0.0043,0.0096,-0.0384,-0.1078,-0.1767,-0.2253,-0.1522,-0.0918,-0.0427,-0.0721,-0.165,-0.3486,-0.22,-0.189,-0.0742,-0.0027,0.055,0.0053,-0.0363,-0.0924,-0.1564,-0.1719,-0.1821,-0.1511,0.0,0.0,-0.2061,-0.0438,-0.0192,-0.0016,0.0064,0,0,0,0,0,0,0,0,0,0.1741,0.0854,0.0267,0.094,0.0497,0.0149,0.0011,-0.008,-0.0326,-0.0694,-0.1153,-0.2248,-0.1121,-0.0529,-0.031,-0.0838,-0.1879,-0.4335,0,0,0,0,0.0988,0.0374,-0.0027,-0.0438,-0.0822,0,0,0,0,0,-0.3214,-0.078,-0.0769,-0.0625,-0.0069,0,0,0,0,0,0,0,0,0,0,0,0,0.1404,0.0699,0.0198,0.0,-0.0101,-0.0267,-0.0518,-0.0902,-0.2339,0,0,0,0,0,0,0,0,0,0,0,0,0.0149,-0.0166,-0.0518,0,0,0,0,0,-0.1692,-0.0982,-0.1313,-0.1447,-0.055,0,0,0,0,0,0,0,0,0,0,0,0,0,0,0,0,0,0,0,0,0,0,0,0,0,0,0,0,0,0,0,0,0,0,0,0,0,0,0,0,0,-0.0683,-0.0993,-0.142,-0.1879,-0.1623,0,0,0,0,0,0,0,0,0,0,0,0,0,0,0,0,0,0,0,0,0,0,0,0,0,0,0,0,0,0,0,0,0,0,0,0,0,0,0,0,0,-0.0117,-0.1463,-0.0934,-0.1692,-0.276,0,0,0,0,0,0,0,0,0,0,0,0,0,0,0,0,0,0,0,0,0,0,0,0,0,0,0,0,0,0,0,0,0,0,0,0,0,0,0,0,0,0,-0.1789,-0.0155,-0.1388,-0.33,0,0,0,0,0,0,0,0,0,0,0,0,0,0,0,0,0,0,0,0,0,0,0,0,0,0,0,0,0,0,0,0,0,0,0,0,0,0,0,0,0,0,-0.1869,0.0235,-0.1538,-0.3593,0,0,0,0,0,0,0,0,0,0,0,0,0,0,0,0,0,0,0,0,0,0,0,0,0,0,0,0,0,0,0,0,0,0,0,0,0,0,0,0,0,0,-0.1474,-0.0064,-0.1938,-0.3908,0,0,0,0,0,0,0,0,0,0,0,0,0,0,0,0,0,0,0,0,0,0,0,0,0,0,0,0,0,0,0,0,0,0,0,0,0,0,0,0,0,0,-0.1004,-0.0475,-0.1874,-0.4122,0]}]],[[{"header":{"parameterUnit":"kt","parameterCategory":2,"dx":1,"dy":1,"la1":29.46422004699707,"la2":30.564109802246094,"lo1":-89.4342041015625,"lo2":-87.934326171875,"nx":46,"ny":34,"refTime":"2022-10-27T00:00:00:Z","depth":"4","parameterNumber":2,"parameterNumberName":"U-component_of_CURRENTS"},"data":[0.0422,0.0571,0.0726,0.0876,0.1004,0.1036,0.1014,0,0.016,0.1041,0.2355,0.2718,0.2413,0.2168,0.1687,0.0897,0.0112,-0.0491,-0.1442,-0.2424,-0.2627,-0.2435,-0.2296,-0.213,-0.2072,-0.228,-0.2541,-0.2648,-0.2638,-0.2638,-0.2702,-0.2894,-0.3241,-0.3631,-0.4015,-0.4426,-0.4816,-0.5083,-0.5158,-0.5115,-0.5072,-0.5056,-0.5024,-0.4928,-0.4677,-0.4197,0.031,0.0422,0.0534,0.063,0.0657,0.0507,-0.0021,-0.0422,0,0.0699,0.221,0.213,0.1426,0.173,0.1676,0.1132,0.0358,-0.0278,-0.0614,-0.1415,-0.2552,-0.2953,-0.2691,-0.2264,-0.1933,-0.1906,-0.2104,-0.2274,-0.2339,-0.236,-0.2306,-0.2157,-0.2114,-0.236,-0.2776,-0.3182,-0.355,-0.3743,-0.3753,-0.3801,-0.3924,-0.4031,-0.4074,-0.4095,-0.4122,-0.4063,0.0235,0.032,0.0411,0.0497,0.0587,0.0683,0.0849,0.15,0.2867,0.2862,0.2024,0,0.0715,0.1725,0.1863,0.1367,0.0667,-0.0043,-0.0529,-0.0699,-0.1335,-0.2387,-0.2969,-0.2894,-0.2451,-0.2104,-0.197,-0.1927,-0.1917,-0.1933,-0.1837,-0.1618,-0.1442,-0.1522,-0.1853,-0.2162,-0.2328,-0.2424,-0.2515,-0.2643,-0.2739,-0.276,-0.2766,-0.2798,-0.2883,-0.3033,0.024,0.0262,0.0315,0.0384,0.0481,0.0603,0.0801,0.1159,0.1634,0.181,0.1655,0.2808,0.3663,0.3203,0.2648,0.1634,0.0753,0.0117,-0.0406,-0.0806,-0.0929,-0.1356,-0.2189,-0.2835,-0.3022,-0.2686,-0.2162,-0.1794,-0.1602,-0.1458,-0.1271,-0.11,-0.103,-0.1153,-0.1377,-0.1468,-0.1586,-0.1879,-0.2157,-0.2306,-0.2322,-0.221,-0.2061,-0.1975,-0.1954,-0.1991,0.0347,0.0272,0.0262,0.0288,0.0347,0.0443,0.0587,0.0801,0.1052,0.1249,0.1404,0.1805,0.2296,0.2963,0.2616,0.1281,0.0459,-0.008,-0.0395,-0.0571,-0.0849,-0.1041,-0.1217,-0.1719,-0.2322,-0.2664,-0.2536,-0.2066,-0.1575,-0.1116,-0.0731,-0.0571,-0.0625,-0.0844,-0.1062,-0.1078,-0.1265,-0.1698,-0.204,-0.2264,-0.2274,-0.2056,-0.1831,-0.173,-0.1618,-0.1506,0.0352,0.0336,0.0262,0.0214,0.0203,0.0224,0.0304,0.0443,0.0587,0.0694,0.0737,0.0753,0.0742,0.0715,0,-0.0208,-0.0454,-0.0582,-0.0721,-0.0758,-0.0763,-0.0865,-0.0972,-0.095,-0.1089,-0.1522,-0.1869,-0.1762,-0.1281,-0.0731,-0.0336,-0.0208,-0.0347,-0.0641,-0.0854,-0.0902,-0.1057,-0.1388,-0.1666,-0.1863,-0.1885,-0.1746,-0.1692,-0.1794,-0.1885,-0.1858,0.0721,0.0555,0.031,0.0155,0.0064,-0.0059,-0.0064,0.0091,0.0203,0.024,0.0171,-0.0059,-0.0593,-0.1511,-0.2061,0,-0.0566,-0.1116,-0.1046,-0.0945,-0.086,-0.079,-0.0785,-0.0769,-0.071,-0.0721,-0.0758,-0.0689,-0.0534,-0.0368,-0.0272,-0.0304,-0.0481,-0.0742,-0.0913,-0.0918,-0.0918,-0.1046,-0.1287,-0.1516,-0.1554,-0.1522,-0.1628,-0.1842,-0.205,-0.2162,0,0.0091,0.0149,0.0117,0.0059,-0.0352,-0.0486,-0.0171,-0.0032,-0.0005,-0.0069,-0.024,-0.0507,-0.087,-0.1255,-0.1431,0,-0.0699,-0.1228,-0.0993,-0.0886,-0.0785,-0.0694,-0.0646,-0.0609,-0.0582,-0.0459,-0.0368,-0.0587,-0.0844,-0.095,-0.1036,-0.1169,-0.1308,-0.1281,-0.1105,-0.0876,-0.0796,-0.0993,-0.1196,-0.1244,-0.1303,-0.1404,-0.15,-0.1628,-0.1746,0,-0.0101,0,0.016,0.032,0,-0.0021,-0.0043,-0.0043,-0.0059,-0.0101,-0.0182,-0.0299,-0.0598,-0.0865,-0.0972,-0.103,0,-0.0368,-0.078,-0.079,-0.0715,-0.0625,-0.0566,-0.0529,-0.0491,-0.0502,-0.0699,-0.103,-0.141,-0.1698,-0.1821,-0.1901,-0.1863,-0.1671,-0.1313,-0.0881,-0.0667,-0.0844,-0.1025,-0.1057,-0.1121,-0.1233,-0.1303,-0.1308,-0.1276,0,0.0326,0.0422,0.047,0,0.0262,0.0342,0.0091,0.0,-0.0037,-0.0043,-0.0016,0.0107,-0.032,-0.0678,-0.039,-0.0262,0,-0.0587,-0.0972,-0.0683,-0.055,-0.0459,-0.04,-0.0379,-0.0384,-0.0427,-0.0587,-0.0982,-0.1719,-0.2274,-0.2392,-0.2403,-0.2232,-0.189,-0.141,-0.0897,-0.0705,-0.0817,-0.0892,-0.0913,-0.103,-0.1164,-0.1233,-0.1233,-0.1185,0,0,0,0,0,-0.0171,-0.024,-0.0101,-0.0048,-0.0032,-0.0032,-0.0027,-0.0011,0,0.0048,0.0166,0.0235,0,0,-0.0107,-0.0246,-0.0272,-0.0256,-0.0246,-0.0251,-0.0272,-0.0299,-0.0384,-0.0705,-0.1474,-0.2248,-0.2541,-0.2541,-0.2328,-0.1911,-0.1404,-0.0966,-0.0817,-0.0785,-0.0715,-0.0769,-0.0929,-0.1057,-0.1116,-0.1116,-0.1089,0,0,0,0,0,0,-0.008,-0.0123,-0.0037,0.0021,-0.0021,-0.0192,-0.0454,0.0021,0.0582,0.0683,0.0854,0,0,-0.0016,-0.0064,-0.0096,-0.0101,-0.0107,-0.0123,-0.0155,-0.0192,-0.0235,-0.0352,-0.0737,-0.15,-0.2136,-0.229,-0.2125,-0.1773,-0.1335,-0.1004,-0.0769,-0.0571,-0.055,-0.0678,-0.0812,-0.0908,-0.0972,-0.1014,-0.1046,0,0,0,0,0,0,-0.0187,-0.0358,-0.0272,-0.0096,0.0016,-0.0027,-0.0043,0.0059,0.0144,0.016,0,0,0,0.0016,0.0021,0.0011,0.0021,0.0027,0.0,-0.0043,-0.0096,-0.0144,-0.0192,-0.0299,-0.0593,-0.1041,-0.1356,-0.1383,-0.118,-0.0865,-0.0593,-0.0443,-0.0432,-0.0507,-0.0593,-0.0667,-0.0747,-0.0849,-0.0945,-0.1025,0,0,0,0,0,0,-0.0299,-0.0961,-0.1201,-0.0785,-0.0283,-0.0059,-0.0005,0.0011,-0.0128,-0.0582,-0.063,-0.0363,0,0.0037,0.0085,0.0117,0.0144,0.0155,0.0128,0.0069,0.0,-0.0064,-0.0117,-0.0166,-0.023,-0.0342,-0.0464,-0.0513,-0.0459,-0.0368,-0.0315,-0.0331,-0.0395,-0.0464,-0.0518,-0.0582,-0.0683,-0.0812,-0.0934,-0.1025,0,0,0,0,0,0,0,-0.0972,-0.1682,-0.1143,-0.0507,-0.0016,0.0176,0.0262,0.0235,0.0085,-0.0021,-0.0037,0,0.0053,0.016,0.0251,0.0304,0.031,0.0272,0.0203,0.0117,0.0032,-0.0043,-0.0096,-0.0133,-0.016,-0.0187,-0.0208,-0.0219,-0.024,-0.0272,-0.0336,-0.0411,-0.0475,-0.055,-0.0651,-0.078,-0.0902,-0.1009,-0.1095,0,0,0,0.031,0.0614,0,0,0,0.0128,0.0219,0.0299,0.0518,0.0587,0.0507,0.0454,0.0363,0.0203,0.0117,0,0.008,0.0278,0.0454,0.0513,0.0502,0.0438,0.0347,0.0251,0.0155,0.0069,-0.0005,-0.0064,-0.0101,-0.0133,-0.016,-0.0198,-0.0251,-0.032,-0.0406,-0.0502,-0.0603,-0.0726,-0.0865,-0.0993,-0.11,-0.1191,-0.1276,0,0,0.0854,0.1821,0.204,0.3999,0.5707,0.5398,0.4853,0.3235,0.166,0.1292,0.1201,0.1089,0.0934,0.0662,0.0235,-0.0011,0,0.0246,0.0646,0.0812,0.0801,0.0721,0.0614,0.0491,0.0379,0.0272,0.0166,0.0064,-0.0016,-0.0085,-0.0144,-0.0208,-0.0283,-0.0374,-0.0464,-0.0555,-0.0651,-0.0774,-0.0924,-0.1078,-0.1217,-0.134,-0.1442,-0.1506,0,0,0.0753,0.1837,0.2472,0.2798,0,0,0.0128,0.032,0.0721,0.1201,0.1442,0.1532,0.1383,0.1084,0.0934,0,0.094,0.1837,0.1666,0.1388,0.1143,0.094,0.0763,0.0603,0.0459,0.0315,0.0166,0.0027,-0.0075,-0.0166,-0.0246,-0.0342,-0.0438,-0.0518,-0.0571,-0.063,-0.0726,-0.086,-0.1009,-0.1159,-0.1303,-0.1447,-0.157,-0.165,0.0961,0.3006,0.4106,0,0,0,0,0,-0.0037,0.0107,0.0529,0.1084,0.1532,0.1709,0.1767,0.1949,0.2718,0.3534,0.3374,0.2771,0.2274,0.1805,0.141,0.1111,0.0876,0.0678,0.0513,0.0342,0.0144,-0.0059,-0.0214,-0.0331,-0.0411,-0.047,-0.0507,-0.0529,-0.0545,-0.0603,-0.0721,-0.086,-0.0993,-0.1127,-0.126,-0.141,-0.157,-0.1692,0.7635,0.5334,0.2915,0.1805,0.1543,0,0,0,-0.0299,-0.0166,0.0593,0.1137,0.1474,0.1714,0.1954,0.2269,0.2782,0.323,0.3278,0.3033,0.2595,0.2066,0.158,0.1201,0.0908,0.0683,0.0518,0.0374,0.0149,-0.0144,-0.0395,-0.0539,-0.0566,-0.0539,-0.0513,-0.0507,-0.0507,-0.0545,-0.0673,-0.0849,-0.1036,-0.1217,-0.1313,-0.1388,-0.1522,-0.165,0,0.0395,0.1308,0.1858,0.2242,0.2611,0,0,0.0432,0.1458,0.2098,0.2002,0.1879,0.2152,0.2413,0.2467,0.2595,0.2798,0.2969,0.2979,0.2702,0.2168,0.1644,0.1223,0.0881,0.0593,0.0384,0.0315,0.0144,-0.0224,-0.0598,-0.0801,-0.0796,-0.0705,-0.0737,-0.1164,-0.1383,-0.1148,-0.1068,-0.1201,-0.1458,-0.1698,-0.1639,-0.1506,-0.1532,-0.1602,0.7966,0.6081,0.4138,0.2648,0.2451,0.3689,0.4794,0.5318,0.5675,0.527,0.4282,0.3022,0.2194,0.2371,0.2648,0.2552,0.2349,0.2168,0.2344,0.2712,0.2659,0.2072,0.1559,0.1191,0.0854,0.0502,0.0139,0.0037,-0.0059,-0.0352,-0.0726,-0.0982,-0.1014,-0.094,-0.1335,-0.229,-0.2301,-0.1762,-0.1703,-0.1943,-0.2504,-0.267,-0.2082,-0.1762,-0.1644,-0.1639,0.1506,0.3636,0.3914,0.3289,0.3129,0.3567,0.393,0.401,0.4522,0.4645,0.3785,0.2611,0.1612,0.1276,0,0,0.0246,0.0817,0.1458,0.2371,0.2413,0.1634,0.1335,0.1137,0.0934,0.0641,0.0096,-0.0251,0,0,0,-0.0246,-0.0609,-0.0625,-0.1073,-0.2104,-0.2061,-0.1869,-0.1874,-0.1655,-0.1436,0,-0.126,-0.2355,-0.1981,-0.1687,0,0.1511,0.3316,0.3497,0.3353,0.3353,0.3449,0.338,0.3241,0,0,0,0.0374,0.0828,0.0897,0.0886,0,0.0304,0.0683,0.0763,0,0,0,0,0,0,0,-0.0182,0.0139,0.0774,0.0924,0.0641,0.0064,-0.0219,0,0,-0.0582,-0.165,-0.2659,-0.3428,-0.3038,-0.1388,-0.039,0,0,0,0,0,0.1511,0.3326,0.3769,0.3903,0.3769,0.354,0.3518,0.3476,0.3225,0.3011,0.2509,0.1895,0.1757,0.2285,0.2953,0.2739,0.1794,0.0539,0.0352,0.1191,0.1543,0.1682,0.2109,0.3033,0.3732,0.3262,0.2232,0.1591,0.1281,0.0747,-0.0278,-0.1426,-0.1393,-0.0246,0.0459,0.0582,0,0,0,-0.0838,-0.0865,-0.0208,-0.055,0,0,0,0,0.1073,0.2926,0.3828,0.3898,0.3951,0.3657,0.3118,0.2904,0.2691,0.236,0.2125,0.2157,0.244,0.2712,0.2696,0.2488,0.2371,0.2173,0.1959,0.2056,0.2242,0.2643,0.3609,0.37,0.2824,0.2312,0.2114,0.1767,0.1121,0.0582,0.0112,-0.0497,-0.1233,-0.1725,-0.2184,-0.3065,-0.3865,-0.2552,-0.1148,-0.1062,-0.0758,-0.0534,0,0,0,0,0,0,0,0,0,0.0817,0.2264,0.3054,0.2856,0.2387,0.2301,0.2408,0.2579,0.268,0.2627,0.2472,0.2723,0.2814,0.2483,0.2403,0.244,0.2675,0.2915,0,0,0,0,0.0406,0.0988,0.0881,0.0358,0.0117,0,0,0,0,0,-0.0924,-0.1709,-0.1297,-0.0678,-0.0128,0,0,0,0,0,0,0,0,0,0,0,0,0.0673,0.1735,0.2306,0.2579,0.2728,0.275,0.2573,0.2098,0.1778,0,0,0,0,0,0,0,0,0,0,0,0,-0.0053,0.0059,0.0224,0,0,0,0,0,-0.055,-0.1233,-0.1137,-0.0609,-0.0096,0,0,0,0,0,0,0,0,0,0,0,0,0,0,0,0,0,0,0,0,0,0,0,0,0,0,0,0,0,0,0,0,0,0,0,0,0,0,0,0,0,-0.0561,-0.1025,-0.094,-0.0966,-0.0721,0,0,0,0,0,0,0,0,0,0,0,0,0,0,0,0,0,0,0,0,0,0,0,0,0,0,0,0,0,0,0,0,0,0,0,0,0,0,0,0,0,-0.0443,-0.0651,-0.0731,-0.1308,-0.1217,0,0,0,0,0,0,0,0,0,0,0,0,0,0,0,0,0,0,0,0,0,0,0,0,0,0,0,0,0,0,0,0,0,0,0,0,0,0,0,0,0,0,-0.0149,-0.0619,-0.0961,-0.039,0,0,0,0,0,0,0,0,0,0,0,0,0,0,0,0,0,0,0,0,0,0,0,0,0,0,0,0,0,0,0,0,0,0,0,0,0,0,0,0,0,0,-0.0384,-0.0982,-0.0715,-0.0139,0,0,0,0,0,0,0,0,0,0,0,0,0,0,0,0,0,0,0,0,0,0,0,0,0,0,0,0,0,0,0,0,0,0,0,0,0,0,0,0,0,0,-0.0561,-0.11,-0.0737,-0.0198,0,0,0,0,0,0,0,0,0,0,0,0,0,0,0,0,0,0,0,0,0,0,0,0,0,0,0,0,0,0,0,0,0,0,0,0,0,0,0,0,0,0,-0.0166,0.0016,0.0155,0.0085,0]}],[{"header":{"parameterUnit":"kt","parameterCategory":2,"dx":1,"dy":1,"la1":29.46422004699707,"la2":30.564109802246094,"lo1":-89.4342041015625,"lo2":-87.934326171875,"nx":46,"ny":34,"refTime":"2022-10-27T00:00:00:Z","depth":"4","parameterNumber":3,"parameterNumberName":"V-component_of_CURRENTS"},"data":[-0.0481,-0.0689,-0.0934,-0.1201,-0.1554,-0.2072,-0.3166,0,0.0208,-0.283,-0.3545,-0.2579,-0.3235,-0.3727,-0.4202,-0.4736,-0.441,-0.3684,-0.354,-0.3401,-0.3262,-0.3241,-0.3305,-0.3417,-0.3417,-0.3294,-0.33,-0.347,-0.3684,-0.401,-0.4351,-0.4277,-0.3898,-0.3412,-0.3107,-0.2942,-0.2915,-0.3006,-0.299,-0.2867,-0.2707,-0.2568,-0.2397,-0.2141,-0.1821,-0.1345,-0.0491,-0.0705,-0.0924,-0.1159,-0.1415,-0.1692,-0.1901,-0.0155,0,-0.4266,-0.4933,-0.2221,-0.3139,-0.3721,-0.3903,-0.4218,-0.4373,-0.3882,-0.3556,-0.3631,-0.3364,-0.291,-0.2563,-0.2493,-0.2611,-0.2798,-0.3033,-0.3305,-0.3529,-0.3732,-0.4116,-0.4431,-0.4261,-0.3791,-0.3497,-0.3428,-0.3433,-0.3412,-0.3198,-0.2867,-0.2531,-0.2205,-0.189,-0.1618,-0.1426,-0.1249,-0.0475,-0.0694,-0.0892,-0.1095,-0.1281,-0.1415,-0.1399,-0.0828,-0.0817,-0.3882,-0.4458,0,-0.3972,-0.4031,-0.3599,-0.3583,-0.3753,-0.3711,-0.3428,-0.3497,-0.3769,-0.3438,-0.2782,-0.2178,-0.1927,-0.2018,-0.2242,-0.252,-0.2803,-0.299,-0.3214,-0.3481,-0.3599,-0.3476,-0.3454,-0.3497,-0.3316,-0.3123,-0.2974,-0.2808,-0.2568,-0.2226,-0.181,-0.1442,-0.1143,-0.0934,-0.0416,-0.0646,-0.0844,-0.1041,-0.1228,-0.1393,-0.1506,-0.1532,-0.1794,-0.2611,-0.2963,-0.1313,-0.4154,-0.4111,-0.2728,-0.2648,-0.2974,-0.3155,-0.315,-0.3049,-0.3438,-0.3775,-0.3567,-0.2883,-0.2152,-0.1639,-0.1479,-0.1607,-0.1874,-0.2114,-0.2269,-0.2408,-0.2568,-0.275,-0.3054,-0.3241,-0.2878,-0.2557,-0.2493,-0.2477,-0.2328,-0.2072,-0.1714,-0.1388,-0.103,-0.0657,-0.0256,-0.0539,-0.0758,-0.0972,-0.1175,-0.1383,-0.1591,-0.1773,-0.2007,-0.2413,-0.2776,-0.2899,-0.3705,-0.4447,-0.2056,-0.1356,-0.2173,-0.2627,-0.2744,-0.2814,-0.2915,-0.3364,-0.3684,-0.3625,-0.3118,-0.2328,-0.1607,-0.1303,-0.1393,-0.1575,-0.1623,-0.1596,-0.1655,-0.1917,-0.236,-0.2782,-0.2632,-0.2344,-0.2381,-0.2472,-0.2376,-0.2066,-0.1618,-0.1292,-0.0934,-0.0518,-0.0139,-0.0374,-0.0609,-0.0849,-0.1068,-0.1319,-0.1618,-0.1842,-0.2072,-0.2355,-0.2707,-0.3097,-0.3705,-0.4447,0,-0.0667,-0.1618,-0.221,-0.2525,-0.2659,-0.2702,-0.291,-0.3262,-0.3508,-0.3609,-0.3364,-0.2691,-0.2077,-0.1799,-0.1789,-0.1484,-0.11,-0.0918,-0.1062,-0.1516,-0.2088,-0.228,-0.2162,-0.2274,-0.2408,-0.2344,-0.2007,-0.1538,-0.1217,-0.0998,-0.0694,-0.0128,-0.0069,-0.0347,-0.0651,-0.0881,-0.11,-0.1644,-0.1874,-0.2056,-0.2242,-0.2483,-0.2766,-0.3097,-0.3241,-0.1121,0,-0.1479,-0.1954,-0.2424,-0.2589,-0.2648,-0.2728,-0.2899,-0.3054,-0.3193,-0.3241,-0.3102,-0.2835,-0.2451,-0.2456,-0.1799,-0.095,-0.0443,-0.0358,-0.0731,-0.1361,-0.1853,-0.2034,-0.2168,-0.2301,-0.2205,-0.1863,-0.1324,-0.0966,-0.086,-0.0715,0,0.0085,-0.0176,-0.047,-0.063,-0.094,-0.1853,-0.1938,-0.2013,-0.2104,-0.2205,-0.2306,-0.2344,-0.2226,-0.1975,-0.078,0,-0.1863,-0.2547,-0.2573,-0.2632,-0.268,-0.2755,-0.283,-0.2744,-0.2627,-0.2595,-0.268,-0.2605,-0.2792,-0.2066,-0.0956,-0.0187,0.0064,-0.0187,-0.0806,-0.1484,-0.1879,-0.1991,-0.212,-0.2024,-0.1644,-0.11,-0.0747,-0.0625,-0.0529,0,0.0027,0,-0.0534,-0.0497,0,-0.1943,-0.1911,-0.1927,-0.1965,-0.2002,-0.2007,-0.1954,-0.1612,-0.1602,-0.1447,-0.0561,0,-0.213,-0.2461,-0.2579,-0.2659,-0.2712,-0.2718,-0.2616,-0.2435,-0.2258,-0.2312,-0.2573,-0.2755,-0.2034,-0.0945,-0.0128,0.0176,0.0016,-0.0539,-0.1217,-0.1618,-0.1751,-0.1885,-0.1821,-0.1351,-0.0924,-0.0673,-0.0523,-0.04,0,0.0021,0.0,-0.0657,0,-0.0246,-0.1575,-0.1709,-0.1778,-0.1837,-0.1879,-0.189,-0.1895,-0.1297,-0.1676,-0.1452,-0.1239,0,-0.1591,-0.252,-0.2552,-0.2643,-0.268,-0.2643,-0.2525,-0.2322,-0.2093,-0.2029,-0.2355,-0.26,-0.1986,-0.1041,-0.0304,-0.0005,-0.0085,-0.0497,-0.1009,-0.1303,-0.1516,-0.1639,-0.1484,-0.1073,-0.0817,-0.0667,-0.0545,-0.0438,0,0,0,0,0,-0.0497,-0.1372,-0.157,-0.1676,-0.1746,-0.1799,-0.1869,-0.1949,0,-0.1869,-0.1623,-0.1201,0,0,-0.2493,-0.2477,-0.2573,-0.2611,-0.2552,-0.2413,-0.2205,-0.1981,-0.181,-0.1895,-0.2274,-0.2018,-0.1308,-0.0651,-0.0342,-0.0326,-0.0561,-0.087,-0.1164,-0.1367,-0.1356,-0.1084,-0.0849,-0.0742,-0.0667,-0.0582,-0.0486,0,0,0,0,0,0,-0.1313,-0.1591,-0.1709,-0.1714,-0.166,-0.1687,-0.1709,-0.0683,-0.1773,-0.1869,-0.1036,0,0,-0.2189,-0.2296,-0.244,-0.2483,-0.2419,-0.2285,-0.2098,-0.189,-0.1687,-0.1564,-0.1735,-0.1837,-0.158,-0.1057,-0.0758,-0.0651,-0.0747,-0.0924,-0.1143,-0.1169,-0.1009,-0.0801,-0.0705,-0.0689,-0.0657,-0.0587,-0.0486,0,0,0,0,0,0,-0.0945,-0.1757,-0.1917,-0.1853,-0.1548,-0.1415,-0.1484,-0.1415,-0.1628,-0.1922,0,0,0,-0.2007,-0.2125,-0.2306,-0.2355,-0.2296,-0.2168,-0.1991,-0.1805,-0.1623,-0.1442,-0.1335,-0.141,-0.1404,-0.1175,-0.0998,-0.0881,-0.0892,-0.095,-0.0993,-0.0908,-0.0769,-0.0662,-0.063,-0.063,-0.0603,-0.0534,-0.0432,0,0,0,0,0,0,-0.0705,-0.1858,-0.213,-0.228,-0.1735,-0.1303,-0.1468,-0.142,-0.141,-0.1388,-0.0267,-0.0171,0,-0.1869,-0.1997,-0.2216,-0.2248,-0.2184,-0.2056,-0.1885,-0.1709,-0.1554,-0.1393,-0.1239,-0.1137,-0.1062,-0.0998,-0.0929,-0.0865,-0.0844,-0.0844,-0.0822,-0.0753,-0.0673,-0.0609,-0.0582,-0.0561,-0.0507,-0.0438,-0.0358,0,0,0,0,0,0,0,-0.181,-0.2381,-0.2739,-0.236,-0.1463,-0.1538,-0.1415,-0.1137,-0.0822,-0.047,-0.032,0,-0.1778,-0.1949,-0.2178,-0.2173,-0.2077,-0.1943,-0.1778,-0.1607,-0.1468,-0.134,-0.1207,-0.1089,-0.0988,-0.0918,-0.086,-0.0822,-0.0801,-0.0785,-0.0753,-0.0699,-0.0641,-0.0587,-0.0539,-0.0475,-0.0416,-0.0352,-0.0283,0,0,0,-0.0609,0.039,0,0,0,-0.2707,-0.2846,-0.2883,-0.1719,-0.1527,-0.1383,-0.1025,-0.0555,-0.0262,-0.0187,0,-0.1762,-0.204,-0.2221,-0.2125,-0.1975,-0.1831,-0.1671,-0.1516,-0.1388,-0.1287,-0.1175,-0.1073,-0.0982,-0.0913,-0.0865,-0.0822,-0.079,-0.0758,-0.0715,-0.0667,-0.0614,-0.0545,-0.0475,-0.0406,-0.0342,-0.0283,-0.0214,0,0,-0.1799,-0.0758,0.0176,-0.1575,0.0,0.0,-0.1938,-0.1714,-0.236,-0.1607,-0.1292,-0.1164,-0.0822,-0.0176,0.0208,-0.0075,0,-0.2007,-0.2274,-0.2301,-0.2088,-0.1874,-0.1719,-0.158,-0.1447,-0.134,-0.126,-0.1159,-0.1084,-0.1009,-0.094,-0.0881,-0.0828,-0.078,-0.0737,-0.0699,-0.0646,-0.0577,-0.0486,-0.0395,-0.0326,-0.0251,-0.0198,-0.0139,0,0,-0.4709,-0.0304,-0.0422,-0.3145,0,0,-0.1527,-0.0753,-0.1858,-0.1532,-0.1153,-0.0902,-0.0448,0.0294,0.1153,0,-0.1041,-0.2205,-0.236,-0.2258,-0.1986,-0.1746,-0.1602,-0.1495,-0.1399,-0.1303,-0.1239,-0.1169,-0.1116,-0.1046,-0.0972,-0.0897,-0.0828,-0.078,-0.0742,-0.0705,-0.0625,-0.0518,-0.0395,-0.0283,-0.0192,-0.0112,-0.0075,-0.0059,-0.1127,-0.1495,-0.3118,0,0,0,0,0,-0.2184,-0.1212,-0.2205,-0.2013,-0.1244,-0.0742,-0.023,0.0363,0.1153,-0.0176,-0.1709,-0.2007,-0.2136,-0.2013,-0.1762,-0.1559,-0.1458,-0.141,-0.1345,-0.1249,-0.1164,-0.1132,-0.1111,-0.1068,-0.0988,-0.0902,-0.0822,-0.0785,-0.0769,-0.0694,-0.0571,-0.0427,-0.0278,-0.0144,-0.0037,0.0064,0.008,0.0043,-0.2258,-0.0838,0.0443,0.0507,0.1319,0,0,0,-0.2509,-0.2114,-0.2734,-0.275,-0.1532,-0.0785,-0.0283,0.0075,0.023,-0.0529,-0.1377,-0.1783,-0.181,-0.1639,-0.1431,-0.1287,-0.1265,-0.1303,-0.1308,-0.1196,-0.0972,-0.095,-0.0998,-0.1068,-0.1046,-0.0961,-0.0849,-0.0838,-0.0881,-0.0699,-0.0481,-0.0304,-0.0101,0.0011,0.0043,0.023,0.0246,0.0166,0,0.078,0.0715,0.0908,0.2451,0.1778,0,0,-0.3171,-0.2969,-0.2878,-0.284,-0.1847,-0.1185,-0.0347,-0.0069,-0.0133,-0.087,-0.1618,-0.1869,-0.15,-0.1185,-0.1014,-0.094,-0.0993,-0.1137,-0.1271,-0.1249,-0.063,-0.0593,-0.071,-0.1153,-0.1303,-0.1223,-0.094,-0.1105,-0.1559,-0.1057,-0.0481,-0.0182,0.0235,0.0192,-0.0069,0.0326,0.0374,0.0278,0.1554,0.1959,0.1319,0.118,0.1842,0.2573,-0.0053,-0.0486,-0.3145,-0.2445,-0.2157,-0.2018,-0.181,-0.1991,-0.0331,-0.0069,0.0128,-0.1009,-0.2029,-0.2525,-0.1239,-0.0657,-0.055,-0.0545,-0.0619,-0.0812,-0.1068,-0.1452,-0.0422,-0.0368,-0.0507,-0.1383,-0.1815,-0.1821,-0.1014,-0.1175,-0.2568,-0.1671,-0.0635,-0.0107,0.1073,0.0304,-0.0315,0.0294,0.0416,0.0304,0.3107,0.339,0.2872,0.1895,0.1335,0.1084,-0.0117,-0.103,-0.3113,-0.1618,-0.1623,-0.1479,-0.1164,-0.1596,0,0,0.0443,-0.1297,-0.2605,-0.3828,-0.11,-0.0374,-0.031,-0.0336,-0.04,-0.0587,-0.0886,-0.1762,0,0,0,-0.1351,-0.1991,-0.197,-0.087,-0.078,-0.2963,-0.1853,-0.0678,-0.0208,0.1249,0,0.1116,0.0262,0.0416,0.0294,0,0.3118,0.3166,0.2435,0.1335,0.0416,-0.0176,-0.0726,-0.1474,0,0,0,-0.0966,-0.0715,0.008,0.0593,0,-0.1943,-0.3049,-0.4197,0,0,0,0,0,0,0,-0.1767,-0.0593,-0.0166,-0.0043,-0.0998,-0.1842,-0.2082,0,0,-0.275,-0.1196,-0.0747,-0.0561,0.0614,-0.1062,0.2339,0,0,0,0,0,0.3107,0.2504,0.1404,0.0352,-0.0101,-0.016,0.0662,0.0219,0.0101,0.008,-0.0726,-0.0416,0.0139,0.0742,-0.0155,-0.1719,-0.2531,-0.2931,-0.0876,-0.0587,-0.0208,-0.0224,-0.0555,-0.079,-0.0171,-0.0977,-0.0726,-0.016,0.0048,-0.0475,-0.102,-0.1564,-0.0908,-0.0796,-0.1714,0.0021,0,0,0,-0.1159,0.1132,0.0133,0.0101,0,0,0,0,0.2371,0.1404,0.0459,0.0032,0.0043,0.1207,0.0689,0.0278,0.0336,0.008,0.0021,0.0101,0.0155,-0.0315,-0.0977,-0.1618,-0.2029,-0.1308,-0.0747,-0.0256,-0.0294,-0.0774,-0.2232,-0.0336,-0.0374,-0.0267,0.0016,0.0593,0.0128,-0.0267,-0.0731,-0.1249,-0.1591,-0.1078,0.0491,0.0,0.0,-0.1757,-0.0064,-0.0064,0.0096,0.0166,0,0,0,0,0,0,0,0,0,0.1746,0.0934,0.0347,0.0966,0.0534,0.0198,0.0064,-0.0021,-0.0267,-0.063,-0.1089,-0.2077,-0.0854,-0.032,-0.0096,-0.0139,-0.0448,-0.2878,0,0,0,0,0.1014,0.0416,0.0043,-0.016,-0.0571,0,0,0,0,0,-0.2397,-0.0272,-0.0603,-0.0481,0.0011,0,0,0,0,0,0,0,0,0,0,0,0,0.1415,0.0726,0.024,0.0053,-0.0048,-0.0214,-0.047,-0.0865,-0.2237,0,0,0,0,0,0,0,0,0,0,0,0,0.0224,0.0182,-0.0448,0,0,0,0,0,-0.1057,-0.0507,-0.1078,-0.1255,-0.0406,0,0,0,0,0,0,0,0,0,0,0,0,0,0,0,0,0,0,0,0,0,0,0,0,0,0,0,0,0,0,0,0,0,0,0,0,0,0,0,0,0,-0.0395,-0.0619,-0.1159,-0.1511,-0.1062,0,0,0,0,0,0,0,0,0,0,0,0,0,0,0,0,0,0,0,0,0,0,0,0,0,0,0,0,0,0,0,0,0,0,0,0,0,0,0,0,0,0.0091,-0.1175,-0.063,-0.1068,-0.1548,0,0,0,0,0,0,0,0,0,0,0,0,0,0,0,0,0,0,0,0,0,0,0,0,0,0,0,0,0,0,0,0,0,0,0,0,0,0,0,0,0,0,-0.15,0.0288,-0.0587,-0.1655,0,0,0,0,0,0,0,0,0,0,0,0,0,0,0,0,0,0,0,0,0,0,0,0,0,0,0,0,0,0,0,0,0,0,0,0,0,0,0,0,0,0,-0.1463,0.0934,-0.0609,-0.1618,0,0,0,0,0,0,0,0,0,0,0,0,0,0,0,0,0,0,0,0,0,0,0,0,0,0,0,0,0,0,0,0,0,0,0,0,0,0,0,0,0,0,-0.0886,0.0956,-0.0731,-0.1826,0,0,0,0,0,0,0,0,0,0,0,0,0,0,0,0,0,0,0,0,0,0,0,0,0,0,0,0,0,0,0,0,0,0,0,0,0,0,0,0,0,0,-0.0331,0.1057,-0.0182,-0.1938,0]}]],[[{"header":{"parameterUnit":"kt","parameterCategory":2,"dx":1,"dy":1,"la1":29.46422004699707,"la2":30.564109802246094,"lo1":-89.4342041015625,"lo2":-87.934326171875,"nx":46,"ny":34,"refTime":"2022-10-27T00:00:00:Z","depth":"6","parameterNumber":2,"parameterNumberName":"U-component_of_CURRENTS"},"data":[0.0448,0.0587,0.0737,0.0886,0.1009,0.103,0.1004,0,0.0182,0.103,0.2226,0.2552,0.2274,0.2013,0.1575,0.0982,0.0395,-0.0069,-0.0929,-0.181,-0.1938,-0.173,-0.165,-0.1634,-0.1757,-0.2109,-0.2445,-0.2589,-0.2595,-0.2605,-0.2686,-0.2878,-0.3225,-0.3615,-0.3999,-0.4405,-0.4789,-0.5056,-0.5136,-0.5088,-0.5045,-0.5029,-0.5003,-0.4907,-0.465,-0.4175,0.0336,0.0443,0.0555,0.0646,0.0673,0.0523,0.0,-0.0384,0,0.0667,0.2082,0.2018,0.1377,0.1639,0.1554,0.1068,0.0539,0.0128,-0.0133,-0.0993,-0.2178,-0.2568,-0.2317,-0.1943,-0.1671,-0.1709,-0.1965,-0.2173,-0.2269,-0.2312,-0.2274,-0.2136,-0.2104,-0.2349,-0.276,-0.3161,-0.3529,-0.3727,-0.3732,-0.378,-0.3903,-0.401,-0.4047,-0.4063,-0.409,-0.4031,0.0262,0.0347,0.0432,0.0523,0.0603,0.0689,0.0849,0.1479,0.275,0.2707,0.1911,0,0.0673,0.1623,0.1746,0.1276,0.0646,0.016,-0.0139,-0.0299,-0.1052,-0.2221,-0.2862,-0.2771,-0.2312,-0.1959,-0.1842,-0.1826,-0.1847,-0.1885,-0.1794,-0.1586,-0.142,-0.1506,-0.1837,-0.2146,-0.2312,-0.2403,-0.2499,-0.2621,-0.2718,-0.2739,-0.2744,-0.2776,-0.2856,-0.3006,0.0267,0.0294,0.0347,0.0411,0.0497,0.0614,0.0801,0.1148,0.1602,0.1762,0.1612,0.2675,0.3433,0.3001,0.2493,0.1559,0.0726,0.0139,-0.024,-0.0523,-0.0651,-0.1185,-0.2104,-0.2776,-0.2963,-0.2616,-0.2098,-0.1741,-0.1554,-0.1415,-0.1233,-0.1073,-0.1009,-0.1132,-0.1361,-0.1458,-0.1575,-0.1863,-0.2136,-0.2285,-0.2301,-0.2189,-0.2045,-0.1959,-0.1933,-0.197,0.0368,0.0304,0.0294,0.032,0.0368,0.0448,0.0587,0.0796,0.1046,0.1233,0.1377,0.1741,0.2184,0.2808,0.2504,0.1244,0.0459,-0.0069,-0.0379,-0.0534,-0.0747,-0.0913,-0.1137,-0.1666,-0.228,-0.2621,-0.2499,-0.204,-0.1548,-0.1089,-0.0705,-0.0545,-0.0593,-0.0817,-0.1041,-0.1068,-0.1255,-0.1676,-0.2018,-0.2237,-0.2253,-0.2034,-0.1815,-0.1714,-0.1596,-0.1484,0.0374,0.0363,0.0294,0.0251,0.023,0.0235,0.031,0.0448,0.0593,0.0699,0.0737,0.0747,0.0726,0.0699,0,-0.0198,-0.0422,-0.0545,-0.0689,-0.0731,-0.0737,-0.0828,-0.0908,-0.0865,-0.1036,-0.1484,-0.1842,-0.1735,-0.126,-0.071,-0.031,-0.0176,-0.032,-0.0609,-0.0828,-0.0886,-0.1046,-0.1367,-0.1644,-0.1842,-0.1863,-0.1725,-0.1676,-0.1773,-0.1863,-0.1837,0.0731,0.0577,0.0342,0.0192,0.0096,-0.0032,-0.0043,0.0101,0.0214,0.0256,0.0192,-0.0032,-0.0539,-0.1415,-0.1943,0,-0.0539,-0.1062,-0.0993,-0.0902,-0.0828,-0.0763,-0.0758,-0.0742,-0.0678,-0.0689,-0.0731,-0.0673,-0.0518,-0.0347,-0.0246,-0.0272,-0.0448,-0.071,-0.0881,-0.0897,-0.0902,-0.1025,-0.126,-0.1495,-0.1532,-0.15,-0.1607,-0.1815,-0.2029,-0.2141,0,0.0101,0.0182,0.0155,0.0096,-0.031,-0.0448,-0.0155,-0.0021,0.0011,-0.0043,-0.0203,-0.0459,-0.0806,-0.118,-0.1361,0,-0.0667,-0.1159,-0.094,-0.0849,-0.0753,-0.0673,-0.0625,-0.0587,-0.0561,-0.0443,-0.0352,-0.0561,-0.0817,-0.0924,-0.1004,-0.1132,-0.1271,-0.1255,-0.1078,-0.0854,-0.0774,-0.0972,-0.1175,-0.1228,-0.1281,-0.1377,-0.1474,-0.1602,-0.1725,0,-0.008,0,0.0176,0.0347,0,-0.0011,-0.0027,-0.0037,-0.0043,-0.008,-0.0149,-0.0267,-0.055,-0.0806,-0.0918,-0.0982,0,-0.0342,-0.0731,-0.0753,-0.0689,-0.0598,-0.0545,-0.0507,-0.047,-0.0486,-0.0678,-0.0998,-0.1377,-0.1666,-0.1789,-0.1863,-0.1831,-0.1639,-0.1287,-0.086,-0.0646,-0.0822,-0.1009,-0.1036,-0.11,-0.1207,-0.1276,-0.1281,-0.1249,0,0.0347,0.0448,0.0491,0,0.0272,0.0358,0.0101,0.0011,-0.0021,-0.0021,0.0011,0.0133,-0.0288,-0.0635,-0.0347,-0.0224,0,-0.0561,-0.0913,-0.0641,-0.0518,-0.0432,-0.0374,-0.0352,-0.0363,-0.0406,-0.0561,-0.0956,-0.1687,-0.2237,-0.236,-0.2365,-0.22,-0.1863,-0.1383,-0.0876,-0.0683,-0.0796,-0.087,-0.0892,-0.1004,-0.1137,-0.1207,-0.1207,-0.1159,0,0,0,0,0,-0.016,-0.0214,-0.0085,-0.0037,-0.0011,-0.0011,0.0,0.0016,0,0.0059,0.0187,0.0262,0,0,-0.0085,-0.0214,-0.024,-0.023,-0.0219,-0.0224,-0.0251,-0.0278,-0.0358,-0.0678,-0.1442,-0.221,-0.2509,-0.2509,-0.2301,-0.1885,-0.1377,-0.0945,-0.0796,-0.0763,-0.0689,-0.0742,-0.0902,-0.103,-0.1089,-0.1095,-0.1068,0,0,0,0,0,0,-0.0069,-0.0101,-0.0016,0.0048,0.0005,-0.016,-0.0416,0.0048,0.0587,0.0694,0.0865,0,0,0.0,-0.0032,-0.0064,-0.0075,-0.008,-0.0096,-0.0128,-0.0171,-0.0214,-0.0326,-0.071,-0.1468,-0.2104,-0.2264,-0.2098,-0.1746,-0.1313,-0.0977,-0.0742,-0.0545,-0.0523,-0.0651,-0.0785,-0.0881,-0.0945,-0.0988,-0.1025,0,0,0,0,0,0,-0.0155,-0.0256,-0.0144,-0.0011,0.0053,0.0005,-0.0016,0.008,0.016,0.0171,0,0,0,0.0037,0.0059,0.0043,0.0048,0.0048,0.0027,-0.0021,-0.0075,-0.0123,-0.0171,-0.0272,-0.0566,-0.1014,-0.1324,-0.1356,-0.1153,-0.0844,-0.0566,-0.0416,-0.0406,-0.0481,-0.0571,-0.0646,-0.0726,-0.0822,-0.0924,-0.1004,0,0,0,0,0,0,-0.0246,-0.0555,-0.0646,-0.0513,-0.0203,-0.0027,0.0011,0.0021,-0.0117,-0.0555,-0.0603,-0.0336,0,0.0053,0.0123,0.0149,0.0176,0.0176,0.0149,0.0091,0.0021,-0.0043,-0.0096,-0.0139,-0.0208,-0.032,-0.0438,-0.0486,-0.0427,-0.0342,-0.0288,-0.0304,-0.0368,-0.0438,-0.0497,-0.0555,-0.0657,-0.0785,-0.0908,-0.1004,0,0,0,0,0,0,0,-0.0107,-0.0267,-0.0336,-0.0224,0.0016,0.0198,0.0278,0.0246,0.0096,-0.0005,-0.0016,0,0.0069,0.0192,0.0283,0.0331,0.0331,0.0294,0.0224,0.0139,0.0053,-0.0016,-0.0069,-0.0107,-0.0139,-0.016,-0.0182,-0.0192,-0.0214,-0.0251,-0.031,-0.0384,-0.0448,-0.0523,-0.0625,-0.0753,-0.0876,-0.0977,-0.1062,0,0,0,0.0331,0.0662,0,0,0,0.102,0.1564,0.0886,0.0662,0.0619,0.0529,0.0475,0.0379,0.0214,0.0139,0,0.0096,0.031,0.0481,0.0539,0.0523,0.0459,0.0368,0.0272,0.0176,0.0091,0.0021,-0.0037,-0.0075,-0.0107,-0.0133,-0.0171,-0.0224,-0.0294,-0.0379,-0.0475,-0.0577,-0.0699,-0.0838,-0.0966,-0.1068,-0.1159,-0.1244,0,0,0.173,0.3113,0.3123,0.378,0.3737,0.3449,0.3241,0.291,0.2237,0.149,0.1244,0.1116,0.0956,0.0673,0.0246,0.0005,0,0.0256,0.0667,0.0833,0.0822,0.0737,0.063,0.0513,0.04,0.0294,0.0187,0.0091,0.0011,-0.0059,-0.0117,-0.0182,-0.0256,-0.0342,-0.0432,-0.0523,-0.0619,-0.0742,-0.0886,-0.1041,-0.118,-0.1303,-0.1404,-0.1474,0,0,0.1447,0.284,0.2872,0.283,0,0,0.0646,0.1458,0.1361,0.126,0.1479,0.1559,0.1399,0.1089,0.0934,0,0.0924,0.181,0.166,0.1404,0.1159,0.0956,0.078,0.0625,0.0481,0.0336,0.0192,0.0059,-0.0048,-0.0133,-0.0219,-0.031,-0.0406,-0.0486,-0.0539,-0.0598,-0.0694,-0.0822,-0.0966,-0.1116,-0.1265,-0.1404,-0.1532,-0.1612,0.1062,0.3892,0.5654,0,0,0,0,0,0.0107,0.0411,0.0742,0.1164,0.1564,0.1714,0.1751,0.1911,0.2616,0.3358,0.3214,0.2707,0.2264,0.1815,0.1426,0.1127,0.0892,0.0699,0.0534,0.0368,0.0176,-0.0027,-0.0182,-0.0294,-0.0379,-0.0432,-0.0475,-0.0497,-0.0513,-0.0571,-0.0683,-0.0817,-0.095,-0.1084,-0.1217,-0.1372,-0.1532,-0.1655,0.6177,0.4666,0.3652,0.2691,0.1917,0,0,0,0.0246,0.095,0.1313,0.1292,0.1474,0.1692,0.1922,0.221,0.2686,0.3102,0.3182,0.2979,0.2579,0.2072,0.1596,0.1217,0.0929,0.071,0.0545,0.0406,0.0187,-0.0107,-0.0358,-0.0502,-0.0529,-0.0507,-0.0481,-0.0481,-0.0481,-0.0513,-0.0635,-0.0801,-0.0993,-0.1175,-0.1271,-0.1351,-0.1479,-0.1612,0,0.079,0.1938,0.2355,0.2707,0.3054,0,0,0.1463,0.3038,0.268,0.1922,0.1735,0.2066,0.2344,0.2408,0.2525,0.2712,0.2888,0.2926,0.268,0.2168,0.1655,0.1239,0.0902,0.0625,0.0427,0.0352,0.0176,-0.0192,-0.0555,-0.0753,-0.0742,-0.0673,-0.0699,-0.1014,-0.1143,-0.0977,-0.0972,-0.1121,-0.1399,-0.1644,-0.1591,-0.1463,-0.149,-0.1564,0.6215,0.4565,0.3908,0.3241,0.2846,0.3097,0.3358,0.3759,0.4095,0.354,0.2867,0.2376,0.2056,0.2306,0.2552,0.2483,0.2296,0.212,0.2269,0.2632,0.2616,0.2066,0.157,0.1207,0.0881,0.0539,0.0192,0.0075,-0.0037,-0.032,-0.0673,-0.0881,-0.0833,-0.0769,-0.1057,-0.1703,-0.1751,-0.1415,-0.134,-0.1335,-0.1719,-0.2141,-0.1858,-0.1709,-0.1596,-0.1586,0.1239,0.2355,0.2488,0.268,0.2536,0.2691,0.2947,0.3177,0.3647,0.331,0.2627,0.2381,0.1783,0.1372,0,0,0.0262,0.0844,0.1463,0.2232,0.2296,0.1628,0.1345,0.1148,0.095,0.0662,0.0144,-0.0198,0,0,0,-0.016,-0.031,-0.0406,-0.0785,-0.157,-0.1356,-0.1345,-0.1036,-0.023,0.0379,0,-0.1185,-0.2248,-0.1922,-0.1628,0,0.1191,0.2146,0.2024,0.2205,0.2477,0.2776,0.284,0.2798,0,0,0,0.039,0.0849,0.0908,0.0897,0,0.0347,0.0838,0.0988,0,0,0,0,0,0,0,-0.0155,0.0176,0.0785,0.094,0.0774,0.0475,0.0352,0,0,-0.0107,-0.0961,-0.1431,-0.1137,-0.079,-0.0395,-0.031,0,0,0,0,0,0.094,0.205,0.2312,0.2547,0.2819,0.2963,0.3022,0.2958,0.2824,0.2814,0.244,0.1858,0.1725,0.2226,0.284,0.2648,0.1901,0.086,0.079,0.1591,0.1789,0.1842,0.1991,0.2381,0.2851,0.2675,0.205,0.1575,0.1313,0.0934,0.0123,-0.086,-0.0785,0.0523,0.1458,0.1618,0,0,0,-0.0641,-0.0587,-0.0048,-0.0384,0,0,0,0,0.0838,0.213,0.2712,0.3022,0.3353,0.3161,0.2686,0.2589,0.2536,0.2285,0.2072,0.2104,0.2376,0.2632,0.2627,0.2472,0.244,0.2376,0.22,0.2194,0.2306,0.2776,0.3326,0.2824,0.2152,0.2109,0.2061,0.1757,0.1175,0.0742,0.0459,0.0011,-0.0438,-0.0822,-0.0998,-0.1084,-0.2072,-0.197,-0.0982,-0.0785,-0.0416,-0.0256,0,0,0,0,0,0,0,0,0,0.0785,0.1917,0.2611,0.267,0.2296,0.2226,0.2333,0.2493,0.26,0.2563,0.2408,0.2584,0.2573,0.2264,0.22,0.2007,0.2157,0.2488,0,0,0,0,0.0411,0.1068,0.1169,0.0849,0.0673,0,0,0,0,0,-0.0689,-0.126,-0.094,-0.0416,0.0027,0,0,0,0,0,0,0,0,0,0,0,0,0.0662,0.1692,0.2232,0.2483,0.2621,0.2648,0.2493,0.2056,0.1746,0,0,0,0,0,0,0,0,0,0,0,0,0.0304,0.0432,0.0256,0,0,0,0,0,-0.0256,-0.0609,-0.0683,-0.039,0.0096,0,0,0,0,0,0,0,0,0,0,0,0,0,0,0,0,0,0,0,0,0,0,0,0,0,0,0,0,0,0,0,0,0,0,0,0,0,0,0,0,0,-0.0262,-0.0347,-0.031,-0.0481,-0.0123,0,0,0,0,0,0,0,0,0,0,0,0,0,0,0,0,0,0,0,0,0,0,0,0,0,0,0,0,0,0,0,0,0,0,0,0,0,0,0,0,0,-0.0133,0.016,0.0278,-0.0085,0.0133,0,0,0,0,0,0,0,0,0,0,0,0,0,0,0,0,0,0,0,0,0,0,0,0,0,0,0,0,0,0,0,0,0,0,0,0,0,0,0,0,0,0,0.1025,0.0988,0.126,0.1089,0,0,0,0,0,0,0,0,0,0,0,0,0,0,0,0,0,0,0,0,0,0,0,0,0,0,0,0,0,0,0,0,0,0,0,0,0,0,0,0,0,0,0.0091,0.1148,0.2152,0.1863,0,0,0,0,0,0,0,0,0,0,0,0,0,0,0,0,0,0,0,0,0,0,0,0,0,0,0,0,0,0,0,0,0,0,0,0,0,0,0,0,0,0,0.0123,0.1543,0.2605,0.1943,0,0,0,0,0,0,0,0,0,0,0,0,0,0,0,0,0,0,0,0,0,0,0,0,0,0,0,0,0,0,0,0,0,0,0,0,0,0,0,0,0,0,0.1458,0.3075,0.2819,0.1922,0]}],[{"header":{"parameterUnit":"kt","parameterCategory":2,"dx":1,"dy":1,"la1":29.46422004699707,"la2":30.564109802246094,"lo1":-89.4342041015625,"lo2":-87.934326171875,"nx":46,"ny":34,"refTime":"2022-10-27T00:00:00:Z","depth":"6","parameterNumber":3,"parameterNumberName":"V-component_of_CURRENTS"},"data":[-0.0464,-0.0667,-0.0902,-0.1159,-0.149,-0.1975,-0.2979,0,0.0187,-0.2605,-0.3246,-0.2371,-0.2979,-0.338,-0.3801,-0.4314,-0.4245,-0.362,-0.3502,-0.338,-0.3171,-0.3097,-0.3091,-0.3166,-0.3209,-0.3155,-0.3209,-0.3396,-0.3625,-0.3951,-0.4303,-0.4239,-0.3871,-0.339,-0.3091,-0.2926,-0.2899,-0.2985,-0.2969,-0.284,-0.2675,-0.2536,-0.2365,-0.2104,-0.1789,-0.1319,-0.0475,-0.0683,-0.0897,-0.1121,-0.1367,-0.1634,-0.1831,-0.0149,0,-0.393,-0.4522,-0.2045,-0.2894,-0.3406,-0.354,-0.3775,-0.3994,-0.3753,-0.3481,-0.3577,-0.3369,-0.291,-0.2493,-0.236,-0.2461,-0.2664,-0.292,-0.3209,-0.346,-0.3673,-0.4068,-0.4389,-0.4229,-0.3764,-0.3476,-0.3412,-0.3422,-0.3396,-0.3187,-0.2856,-0.2515,-0.2189,-0.1869,-0.1591,-0.1393,-0.1217,-0.0459,-0.0667,-0.0865,-0.1057,-0.1239,-0.1367,-0.1356,-0.0806,-0.078,-0.3615,-0.4132,0,-0.3663,-0.3711,-0.33,-0.3289,-0.3428,-0.3433,-0.3321,-0.3433,-0.3711,-0.3444,-0.2798,-0.2162,-0.1869,-0.1933,-0.2146,-0.244,-0.2734,-0.2936,-0.3166,-0.3438,-0.3561,-0.3449,-0.3422,-0.3476,-0.33,-0.3113,-0.2963,-0.2798,-0.2557,-0.2216,-0.1799,-0.1431,-0.1127,-0.0913,-0.0395,-0.0619,-0.0812,-0.1004,-0.1185,-0.1345,-0.1458,-0.1484,-0.1719,-0.2483,-0.2808,-0.1244,-0.3849,-0.3812,-0.2536,-0.2493,-0.2851,-0.2985,-0.2979,-0.3017,-0.3396,-0.3743,-0.3567,-0.2894,-0.2157,-0.1628,-0.1452,-0.157,-0.1837,-0.2082,-0.2242,-0.2381,-0.2541,-0.2723,-0.3022,-0.3214,-0.2856,-0.2541,-0.2477,-0.2461,-0.2312,-0.2061,-0.1703,-0.1383,-0.1025,-0.0651,-0.0235,-0.0518,-0.0726,-0.0934,-0.1132,-0.1335,-0.1532,-0.1709,-0.1938,-0.2317,-0.2648,-0.2744,-0.3476,-0.4143,-0.1933,-0.1313,-0.2109,-0.2557,-0.2686,-0.276,-0.2878,-0.3337,-0.3668,-0.362,-0.3123,-0.2344,-0.1618,-0.1308,-0.1388,-0.157,-0.1612,-0.1591,-0.1639,-0.1895,-0.2333,-0.2755,-0.2611,-0.2328,-0.2365,-0.2456,-0.236,-0.205,-0.1607,-0.1276,-0.0924,-0.0507,-0.0117,-0.0352,-0.0582,-0.0812,-0.1025,-0.1271,-0.1548,-0.1767,-0.1986,-0.2264,-0.2589,-0.2947,-0.3502,-0.4164,0,-0.0667,-0.158,-0.2146,-0.2467,-0.2611,-0.2659,-0.2883,-0.3241,-0.3486,-0.3593,-0.3364,-0.2702,-0.2088,-0.181,-0.1794,-0.1484,-0.11,-0.0913,-0.1052,-0.15,-0.2066,-0.2258,-0.2146,-0.2258,-0.2392,-0.2328,-0.1991,-0.1522,-0.1201,-0.0982,-0.0678,-0.0107,-0.0048,-0.032,-0.0619,-0.0849,-0.1057,-0.1559,-0.1778,-0.1959,-0.2152,-0.2381,-0.2643,-0.2947,-0.3059,-0.1068,0,-0.1442,-0.1885,-0.2349,-0.2531,-0.26,-0.2696,-0.2878,-0.3033,-0.3171,-0.3225,-0.3091,-0.283,-0.2445,-0.2451,-0.1794,-0.0945,-0.0432,-0.0352,-0.0715,-0.1345,-0.1831,-0.2018,-0.2157,-0.2285,-0.2194,-0.1853,-0.1308,-0.095,-0.0838,-0.0694,0,0.0107,-0.0149,-0.0443,-0.0603,-0.0897,-0.1757,-0.1831,-0.1911,-0.2007,-0.2114,-0.221,-0.2242,-0.2125,-0.1885,-0.0747,0,-0.1799,-0.2451,-0.2504,-0.2579,-0.2638,-0.2723,-0.2803,-0.2728,-0.2611,-0.2579,-0.267,-0.2595,-0.2776,-0.205,-0.094,-0.0171,0.008,-0.0171,-0.079,-0.1468,-0.1863,-0.1981,-0.2109,-0.2013,-0.1634,-0.1084,-0.0731,-0.0609,-0.0513,0,0.0048,0,-0.0507,-0.047,0,-0.1853,-0.1821,-0.1831,-0.1874,-0.1911,-0.1922,-0.1874,-0.1548,-0.1538,-0.1393,-0.0539,0,-0.2045,-0.2387,-0.252,-0.2616,-0.2675,-0.2686,-0.2589,-0.2413,-0.2237,-0.2296,-0.2557,-0.2739,-0.2018,-0.0929,-0.0112,0.0192,0.0027,-0.0523,-0.1201,-0.1602,-0.1735,-0.1869,-0.1805,-0.1335,-0.0908,-0.0657,-0.0507,-0.039,0,0.0037,0.0,-0.063,0,-0.0235,-0.1506,-0.1634,-0.1698,-0.1751,-0.1789,-0.1805,-0.181,-0.1249,-0.1602,-0.1393,-0.1196,0,-0.1538,-0.2429,-0.2493,-0.2595,-0.2643,-0.2611,-0.2493,-0.2301,-0.2072,-0.2007,-0.2339,-0.2584,-0.1975,-0.1025,-0.0294,0.0005,-0.0075,-0.0486,-0.0993,-0.1292,-0.15,-0.1623,-0.1468,-0.1057,-0.0801,-0.0651,-0.0534,-0.0427,0,0,0,0,0,-0.047,-0.1319,-0.1506,-0.1602,-0.1666,-0.1709,-0.1773,-0.1847,0,-0.1783,-0.1559,-0.1153,0,0,-0.2392,-0.2413,-0.2525,-0.2563,-0.2515,-0.2381,-0.2184,-0.1959,-0.1789,-0.1879,-0.2264,-0.2007,-0.1292,-0.0641,-0.0331,-0.031,-0.055,-0.0854,-0.1148,-0.1351,-0.134,-0.1068,-0.0833,-0.0726,-0.0651,-0.0571,-0.0475,0,0,0,0,0,0,-0.126,-0.1506,-0.1607,-0.1607,-0.157,-0.1596,-0.1612,-0.0651,-0.1692,-0.1783,-0.0993,0,0,-0.2098,-0.2226,-0.2387,-0.244,-0.2381,-0.2258,-0.2072,-0.1869,-0.1666,-0.1548,-0.1719,-0.1821,-0.157,-0.1046,-0.0747,-0.0641,-0.0737,-0.0908,-0.1127,-0.1153,-0.0993,-0.0785,-0.0689,-0.0673,-0.0641,-0.0571,-0.0475,0,0,0,0,0,0,-0.0902,-0.1543,-0.1655,-0.1644,-0.1442,-0.134,-0.1399,-0.1351,-0.1554,-0.1842,0,0,0,-0.1922,-0.205,-0.2253,-0.2312,-0.2258,-0.2141,-0.1965,-0.1783,-0.1602,-0.1426,-0.1319,-0.1393,-0.1388,-0.1159,-0.0982,-0.087,-0.0876,-0.0934,-0.0977,-0.0892,-0.0753,-0.0646,-0.0614,-0.0619,-0.0587,-0.0518,-0.0416,0,0,0,0,0,0,-0.0667,-0.1287,-0.1634,-0.1837,-0.1543,-0.1249,-0.1388,-0.1351,-0.1345,-0.1324,-0.0246,-0.0155,0,-0.1789,-0.1922,-0.2162,-0.2205,-0.2146,-0.2029,-0.1863,-0.1687,-0.1532,-0.1372,-0.1223,-0.1121,-0.1046,-0.0977,-0.0913,-0.0849,-0.0828,-0.0822,-0.0806,-0.0737,-0.0657,-0.0593,-0.0571,-0.0545,-0.0497,-0.0422,-0.0342,0,0,0,0,0,0,0,-0.1014,-0.1692,-0.1789,-0.181,-0.142,-0.1479,-0.1356,-0.1084,-0.078,-0.0438,-0.0294,0,-0.1703,-0.1879,-0.213,-0.213,-0.2045,-0.1917,-0.1751,-0.1586,-0.1447,-0.1324,-0.1185,-0.1068,-0.0972,-0.0902,-0.0844,-0.0806,-0.0785,-0.0769,-0.0737,-0.0683,-0.0625,-0.0571,-0.0523,-0.0459,-0.0395,-0.0331,-0.0267,0,0,0,-0.0187,0.0406,0,0,0,-0.1735,-0.1564,-0.1922,-0.1655,-0.1495,-0.1345,-0.0982,-0.0518,-0.0235,-0.016,0,-0.1682,-0.1965,-0.2168,-0.2088,-0.1943,-0.1799,-0.1644,-0.1495,-0.1367,-0.1265,-0.1153,-0.1057,-0.0966,-0.0897,-0.0849,-0.0806,-0.0774,-0.0742,-0.0699,-0.0651,-0.0598,-0.0529,-0.0454,-0.0384,-0.032,-0.0256,-0.0187,0,0,-0.0929,0.0214,0.102,-0.1233,0.0,0.0,-0.1121,-0.103,-0.166,-0.1554,-0.1276,-0.1137,-0.079,-0.0144,0.0235,-0.0048,0,-0.1906,-0.2194,-0.2248,-0.2045,-0.1842,-0.1687,-0.1554,-0.1426,-0.1313,-0.1239,-0.1137,-0.1068,-0.0988,-0.0918,-0.0865,-0.0812,-0.0758,-0.0721,-0.0683,-0.063,-0.0555,-0.0459,-0.0368,-0.0299,-0.0224,-0.0166,-0.0112,0,0,-0.2835,0.0844,0.1228,-0.2461,0,0,-0.11,-0.0625,-0.1527,-0.149,-0.1132,-0.0876,-0.0422,0.0304,0.1143,0,-0.0972,-0.2082,-0.2274,-0.22,-0.1938,-0.1709,-0.157,-0.1463,-0.1367,-0.1271,-0.1212,-0.1137,-0.1089,-0.102,-0.094,-0.087,-0.0801,-0.0747,-0.0721,-0.0683,-0.0603,-0.0491,-0.0368,-0.0251,-0.016,-0.008,-0.0048,-0.0032,-0.0785,-0.0998,-0.1986,0,0,0,0,0,-0.1725,-0.0844,-0.1746,-0.1741,-0.1159,-0.071,-0.0198,0.0374,0.1127,-0.0155,-0.1591,-0.1901,-0.2061,-0.1959,-0.1719,-0.1516,-0.142,-0.1372,-0.1308,-0.1212,-0.1127,-0.1089,-0.1073,-0.1025,-0.095,-0.0865,-0.0785,-0.0753,-0.0742,-0.0667,-0.0539,-0.0395,-0.024,-0.0112,-0.0005,0.0096,0.0107,0.0069,-0.157,0.0032,0.0705,0.047,0.1249,0,0,0,-0.1329,-0.0998,-0.1431,-0.1692,-0.1159,-0.0747,-0.0256,0.0096,0.0246,-0.0464,-0.1276,-0.1692,-0.1741,-0.1586,-0.1383,-0.1244,-0.1223,-0.126,-0.126,-0.1143,-0.0924,-0.0902,-0.095,-0.102,-0.0998,-0.0924,-0.0817,-0.0806,-0.0844,-0.0662,-0.0443,-0.0262,-0.0064,0.0053,0.0085,0.0267,0.0278,0.0198,0,0.15,0.1223,0.0988,0.2141,0.142,0,0,-0.141,-0.1111,-0.0715,-0.1137,-0.1111,-0.1052,-0.0299,-0.0032,-0.0085,-0.0785,-0.1495,-0.1751,-0.142,-0.1127,-0.0966,-0.0897,-0.095,-0.1089,-0.1212,-0.118,-0.0582,-0.055,-0.0662,-0.1089,-0.1223,-0.1164,-0.0897,-0.0961,-0.1335,-0.0913,-0.0416,-0.0101,0.0288,0.0251,0.0,0.0368,0.04,0.031,0.1393,0.1767,0.1799,0.1596,0.1847,0.2088,0.0085,-0.0117,-0.1575,-0.0422,-0.0198,-0.0518,-0.0972,-0.1612,-0.0267,-0.0021,0.0171,-0.0924,-0.1826,-0.228,-0.1105,-0.0603,-0.0497,-0.0497,-0.0566,-0.0758,-0.1004,-0.1356,-0.0379,-0.0326,-0.0459,-0.1265,-0.1516,-0.1527,-0.0828,-0.079,-0.2034,-0.1308,-0.0432,0.0272,0.141,0.039,-0.0123,0.0363,0.0443,0.0336,0.2782,0.2557,0.2584,0.2205,0.1837,0.1164,0.0192,-0.0262,-0.1484,0.0363,0.0021,-0.0256,-0.0699,-0.1255,0,0,0.047,-0.1196,-0.2253,-0.3268,-0.0897,-0.032,-0.0256,-0.0283,-0.0347,-0.0529,-0.0817,-0.1623,0,0,0,-0.1169,-0.1506,-0.1207,-0.0571,-0.0486,-0.2125,-0.1153,-0.0224,0.0497,0.2189,0,0.1255,0.0326,0.0443,0.0326,0,0.2563,0.2258,0.2253,0.1773,0.0982,0.0192,-0.0198,-0.0464,0,0,0,-0.087,-0.0614,0.0091,0.0587,0,-0.1762,-0.2573,-0.3508,0,0,0,0,0,0,0,-0.1532,-0.0534,-0.0144,-0.0011,-0.079,-0.1431,-0.1468,0,0,-0.1954,-0.0454,-0.039,0.0251,0.2104,-0.0358,0.2403,0,0,0,0,0,0.2066,0.1991,0.1575,0.094,0.0272,0.008,0.078,0.0299,0.0182,0.0107,-0.0673,-0.0363,0.0171,0.0758,-0.0117,-0.1516,-0.2098,-0.2429,-0.0561,-0.0171,0.0053,-0.0037,-0.0085,-0.0096,0.0283,-0.0566,-0.0577,-0.0123,0.0107,-0.0299,-0.0763,-0.1212,-0.0657,-0.0662,-0.1329,0.0438,0,0,0,-0.0358,0.1276,0.0182,0.0182,0,0,0,0,0.1703,0.1415,0.0902,0.0368,0.0262,0.1233,0.0838,0.0448,0.039,0.0123,0.0064,0.0149,0.0203,-0.024,-0.0838,-0.1356,-0.1644,-0.0812,-0.0192,0.0091,0.0139,0.0112,-0.0753,0.0566,0.0144,-0.0085,0.0048,0.063,0.0214,-0.0133,-0.055,-0.0796,-0.1324,-0.0854,0.0577,0.0,0.0,-0.1233,0.0144,0.0155,0.0246,0.0304,0,0,0,0,0,0,0,0,0,0.1709,0.1084,0.0534,0.0988,0.0561,0.024,0.0112,0.0032,-0.0203,-0.0555,-0.0993,-0.1815,-0.0507,-0.0043,0.0069,0.0347,0.0368,-0.1324,0,0,0,0,0.1025,0.0464,0.0219,-0.0011,-0.0331,0,0,0,0,0,-0.1335,0.0128,-0.0304,-0.0256,0.0107,0,0,0,0,0,0,0,0,0,0,0,0,0.1399,0.0742,0.0278,0.0096,0.0,-0.016,-0.0422,-0.0812,-0.2104,0,0,0,0,0,0,0,0,0,0,0,0,0.047,0.0342,-0.0384,0,0,0,0,0,-0.0208,0.0101,-0.0657,-0.095,-0.0267,0,0,0,0,0,0,0,0,0,0,0,0,0,0,0,0,0,0,0,0,0,0,0,0,0,0,0,0,0,0,0,0,0,0,0,0,0,0,0,0,0,0.0091,0.0133,-0.0651,-0.1009,-0.0566,0,0,0,0,0,0,0,0,0,0,0,0,0,0,0,0,0,0,0,0,0,0,0,0,0,0,0,0,0,0,0,0,0,0,0,0,0,0,0,0,0,0.0539,-0.0053,-0.0176,-0.039,-0.0459,0,0,0,0,0,0,0,0,0,0,0,0,0,0,0,0,0,0,0,0,0,0,0,0,0,0,0,0,0,0,0,0,0,0,0,0,0,0,0,0,0,0,0.0021,0.071,0.0005,-0.04,0,0,0,0,0,0,0,0,0,0,0,0,0,0,0,0,0,0,0,0,0,0,0,0,0,0,0,0,0,0,0,0,0,0,0,0,0,0,0,0,0,0,0.0117,0.1522,-0.0112,-0.079,0,0,0,0,0,0,0,0,0,0,0,0,0,0,0,0,0,0,0,0,0,0,0,0,0,0,0,0,0,0,0,0,0,0,0,0,0,0,0,0,0,0,0.0737,0.1767,-0.0331,-0.0769,0,0,0,0,0,0,0,0,0,0,0,0,0,0,0,0,0,0,0,0,0,0,0,0,0,0,0,0,0,0,0,0,0,0,0,0,0,0,0,0,0,0,0.141,0.1735,0.0123,-0.0198,0]}]],[[{"header":{"parameterUnit":"kt","parameterCategory":2,"dx":1,"dy":1,"la1":29.46422004699707,"la2":30.564109802246094,"lo1":-89.4342041015625,"lo2":-87.934326171875,"nx":46,"ny":34,"refTime":"2022-10-27T00:00:00:Z","depth":"8","parameterNumber":2,"parameterNumberName":"U-component_of_CURRENTS"},"data":[0.0459,0.0593,0.0737,0.087,0.0972,0.0982,0.095,0,0.0203,0.0972,0.1986,0.2269,0.2029,0.1767,0.141,0.1052,0.1057,0.1127,0.0133,-0.0641,-0.0587,-0.0288,-0.032,-0.0555,-0.0993,-0.1634,-0.2168,-0.2424,-0.2499,-0.2557,-0.2664,-0.2867,-0.3214,-0.3604,-0.3988,-0.4389,-0.4773,-0.504,-0.5115,-0.5067,-0.5019,-0.5008,-0.4981,-0.4885,-0.4634,-0.4159,0.0352,0.0459,0.0566,0.0646,0.0662,0.0518,0.0021,-0.0347,0,0.0603,0.1847,0.1805,0.1255,0.1468,0.1383,0.0966,0.071,0.0822,0.0998,0.031,-0.1212,-0.1543,-0.1265,-0.103,-0.0961,-0.1164,-0.157,-0.1901,-0.2082,-0.2194,-0.221,-0.2114,-0.2093,-0.2339,-0.275,-0.315,-0.3518,-0.3711,-0.3716,-0.3764,-0.3887,-0.3988,-0.4026,-0.4036,-0.4063,-0.4004,0.0283,0.0363,0.0448,0.0529,0.0598,0.0673,0.0828,0.1404,0.2499,0.2419,0.1714,0,0.0603,0.1447,0.1548,0.1148,0.0593,0.0384,0.0507,0.0641,0.0032,-0.1479,-0.22,-0.2104,-0.1741,-0.1468,-0.1431,-0.1527,-0.1655,-0.1751,-0.1703,-0.1538,-0.1399,-0.1495,-0.1826,-0.2136,-0.2306,-0.2392,-0.2483,-0.2611,-0.2702,-0.2723,-0.2728,-0.276,-0.2835,-0.2985,0.0283,0.0315,0.0363,0.0427,0.0497,0.0598,0.0769,0.1095,0.15,0.1623,0.149,0.2413,0.3049,0.2659,0.2226,0.1404,0.0673,0.0144,-0.0021,0.0112,0.0155,-0.0272,-0.15,-0.2397,-0.2568,-0.2258,-0.181,-0.1548,-0.1426,-0.1319,-0.1169,-0.1036,-0.0982,-0.1116,-0.1345,-0.1452,-0.157,-0.1853,-0.2125,-0.2274,-0.229,-0.2178,-0.2029,-0.1943,-0.1917,-0.1949,0.0379,0.0326,0.032,0.0342,0.0374,0.0438,0.0566,0.0763,0.0993,0.1164,0.1287,0.1596,0.1965,0.2525,0.2274,0.1153,0.0432,-0.0064,-0.0363,-0.0481,-0.0454,-0.0411,-0.063,-0.1377,-0.2152,-0.2504,-0.2387,-0.1991,-0.1506,-0.1052,-0.0673,-0.0513,-0.0566,-0.079,-0.102,-0.1057,-0.1249,-0.1666,-0.2002,-0.2221,-0.2242,-0.2024,-0.1805,-0.1698,-0.1586,-0.1468,0.039,0.0384,0.032,0.0278,0.0246,0.024,0.0304,0.0432,0.0571,0.0673,0.071,0.0705,0.0673,0.0646,0,-0.0182,-0.0384,-0.0497,-0.0651,-0.071,-0.0721,-0.079,-0.0801,-0.071,-0.0918,-0.1447,-0.1821,-0.1719,-0.1249,-0.0694,-0.0294,-0.0155,-0.0288,-0.0582,-0.0806,-0.0876,-0.1041,-0.1356,-0.1623,-0.1826,-0.1853,-0.1714,-0.166,-0.1757,-0.1847,-0.1821,0.0726,0.0587,0.0368,0.0224,0.0117,-0.0011,-0.0027,0.0101,0.0208,0.0262,0.0208,-0.0005,-0.047,-0.1265,-0.1746,0,-0.0502,-0.0972,-0.0918,-0.0854,-0.0796,-0.0747,-0.0742,-0.0715,-0.0635,-0.0646,-0.071,-0.0657,-0.0502,-0.0336,-0.023,-0.0246,-0.0416,-0.0678,-0.086,-0.0881,-0.0892,-0.1009,-0.1244,-0.1479,-0.1522,-0.149,-0.1596,-0.1799,-0.2007,-0.2125,0,0.0117,0.0208,0.0187,0.0123,-0.0267,-0.0406,-0.0139,-0.0016,0.0021,-0.0016,-0.016,-0.0406,-0.0721,-0.1073,-0.1244,0,-0.0609,-0.1062,-0.0876,-0.0806,-0.0731,-0.0657,-0.0609,-0.0577,-0.0545,-0.0432,-0.0342,-0.0545,-0.0796,-0.0897,-0.0972,-0.1095,-0.1233,-0.1228,-0.1062,-0.0844,-0.0758,-0.0956,-0.1164,-0.1212,-0.1265,-0.1356,-0.1452,-0.158,-0.1709,0,-0.0064,0,0.0187,0.0374,0,0.0,-0.0021,-0.0037,-0.0037,-0.0059,-0.0117,-0.0224,-0.0491,-0.0731,-0.0838,-0.0913,0,-0.0304,-0.0667,-0.071,-0.0662,-0.0582,-0.0529,-0.0491,-0.0454,-0.047,-0.0662,-0.0977,-0.1351,-0.1639,-0.1762,-0.1826,-0.1794,-0.1612,-0.1271,-0.0844,-0.0635,-0.0806,-0.0993,-0.102,-0.1078,-0.1185,-0.1255,-0.1265,-0.1233,0,0.0352,0.0459,0.0507,0,0.0272,0.0358,0.0101,0.0005,-0.0016,-0.0005,0.0032,0.0149,-0.0256,-0.0582,-0.0299,-0.0187,0,-0.0518,-0.0844,-0.0598,-0.0497,-0.0411,-0.0358,-0.0336,-0.0347,-0.039,-0.0539,-0.0929,-0.1666,-0.2216,-0.2333,-0.2339,-0.2173,-0.1842,-0.1367,-0.086,-0.0667,-0.0785,-0.086,-0.0876,-0.0988,-0.1121,-0.1185,-0.1191,-0.1148,0,0,0,0,0,-0.0144,-0.0192,-0.0075,-0.0027,0.0,0.0011,0.0027,0.0043,0,0.0069,0.0203,0.0278,0,0,-0.0064,-0.0182,-0.0214,-0.0208,-0.0198,-0.0208,-0.0235,-0.0262,-0.0342,-0.0657,-0.1415,-0.2184,-0.2483,-0.2483,-0.228,-0.1869,-0.1361,-0.0929,-0.078,-0.0753,-0.0673,-0.0726,-0.0886,-0.1014,-0.1073,-0.1078,-0.1052,0,0,0,0,0,0,-0.0053,-0.0085,0.0,0.0069,0.0027,-0.0128,-0.0374,0.0064,0.0571,0.0673,0.0849,0,0,0.0016,0.0,-0.0037,-0.0048,-0.0059,-0.008,-0.0112,-0.0155,-0.0198,-0.031,-0.0689,-0.1447,-0.2082,-0.2237,-0.2082,-0.173,-0.1292,-0.0961,-0.0726,-0.0529,-0.0507,-0.0635,-0.0769,-0.0865,-0.0929,-0.0977,-0.1009,0,0,0,0,0,0,-0.0123,-0.0139,0.0011,0.008,0.0091,0.0032,0.0005,0.0091,0.016,0.0166,0,0,0,0.0048,0.0085,0.0069,0.0075,0.0064,0.0043,-0.0005,-0.0059,-0.0107,-0.0155,-0.0256,-0.055,-0.0993,-0.1303,-0.1335,-0.1137,-0.0822,-0.055,-0.0395,-0.039,-0.0464,-0.0555,-0.063,-0.071,-0.0806,-0.0908,-0.0988,0,0,0,0,0,0,-0.0187,-0.0005,0.0144,-0.0144,-0.0112,0.0,0.0021,0.0027,-0.0107,-0.0534,-0.0571,-0.031,0,0.0069,0.0149,0.0171,0.0192,0.0192,0.016,0.0107,0.0037,-0.0027,-0.008,-0.0123,-0.0187,-0.0299,-0.0422,-0.0464,-0.0411,-0.032,-0.0272,-0.0288,-0.0352,-0.0422,-0.0481,-0.0539,-0.0641,-0.0769,-0.0892,-0.0982,0,0,0,0,0,0,0,0.0267,0.0529,0.0182,-0.0107,0.0053,0.0208,0.0283,0.0246,0.0096,0.0005,0.0,0,0.008,0.0219,0.0304,0.0347,0.0347,0.0304,0.0235,0.0155,0.0069,0.0,-0.0053,-0.0091,-0.0117,-0.0144,-0.0166,-0.0176,-0.0198,-0.0235,-0.0294,-0.0368,-0.0432,-0.0507,-0.0609,-0.0731,-0.086,-0.0961,-0.1046,0,0,0,0.0459,0.0924,0,0,0,0.0641,0.1185,0.1068,0.0972,0.0742,0.0539,0.0481,0.0379,0.0219,0.0144,0,0.0107,0.0331,0.0502,0.0555,0.0534,0.047,0.0379,0.0283,0.0192,0.0107,0.0037,-0.0021,-0.0059,-0.0091,-0.0117,-0.0155,-0.0203,-0.0278,-0.0363,-0.0454,-0.0555,-0.0678,-0.0817,-0.0945,-0.1046,-0.1137,-0.1217,0,0,0.118,0.1671,0.1287,0.1847,0.2077,0.2248,0.2355,0.1997,0.1682,0.1703,0.1591,0.1271,0.0998,0.0673,0.024,0.0011,0,0.0256,0.0673,0.0849,0.0833,0.0747,0.0641,0.0523,0.0411,0.031,0.0203,0.0107,0.0027,-0.0043,-0.0101,-0.016,-0.0235,-0.032,-0.0416,-0.0507,-0.0598,-0.0715,-0.0865,-0.1014,-0.1153,-0.1276,-0.1377,-0.1447,0,0,0.0918,0.1543,0.1383,0.1511,0,0,0.1025,0.1628,0.1297,0.157,0.1762,0.157,0.1281,0.1057,0.0902,0,0.0865,0.1714,0.1634,0.1404,0.1164,0.0966,0.079,0.0635,0.0491,0.0352,0.0208,0.0075,-0.0027,-0.0117,-0.0198,-0.0288,-0.0379,-0.0464,-0.0523,-0.0577,-0.0667,-0.079,-0.094,-0.1084,-0.1233,-0.1377,-0.15,-0.1586,0.079,0.1805,0.2024,0,0,0,0,0,0.0838,0.1479,0.1111,0.1143,0.142,0.1511,0.157,0.1767,0.2376,0.3001,0.2883,0.2568,0.2221,0.181,0.1431,0.1132,0.0902,0.071,0.055,0.039,0.0198,0.0,-0.016,-0.0272,-0.0352,-0.0411,-0.0448,-0.0475,-0.0491,-0.0545,-0.0651,-0.0785,-0.0918,-0.1052,-0.1185,-0.134,-0.15,-0.1623,0.4266,0.2643,0.1965,0.2093,0.2109,0,0,0,0.0913,0.1644,0.1191,0.1036,0.1313,0.1607,0.1815,0.2045,0.2451,0.2808,0.2969,0.2867,0.2531,0.2056,0.1596,0.1223,0.0934,0.0721,0.0566,0.0427,0.0208,-0.008,-0.0331,-0.047,-0.0502,-0.0481,-0.0464,-0.0464,-0.0459,-0.0491,-0.0603,-0.0769,-0.0956,-0.1137,-0.1233,-0.1313,-0.1447,-0.158,0,0.0619,0.1335,0.158,0.1725,0.1725,0,0,0.0854,0.1666,0.1522,0.1308,0.1383,0.1826,0.2136,0.2216,0.2333,0.2488,0.2718,0.2808,0.2616,0.2146,0.1655,0.1244,0.0913,0.0646,0.0459,0.0384,0.0203,-0.016,-0.0523,-0.0705,-0.0683,-0.0625,-0.0657,-0.0849,-0.0876,-0.0753,-0.0806,-0.0993,-0.1303,-0.1559,-0.1532,-0.1431,-0.1458,-0.1527,0.4778,0.2872,0.1746,0.1452,0.1623,0.2162,0.2472,0.2664,0.2696,0.2141,0.1735,0.1671,0.1709,0.205,0.229,0.228,0.213,0.197,0.2082,0.2451,0.2504,0.2029,0.1564,0.1207,0.0892,0.0566,0.024,0.0107,-0.0016,-0.0294,-0.063,-0.0769,-0.0625,-0.0545,-0.0774,-0.1217,-0.1207,-0.0998,-0.0913,-0.087,-0.1292,-0.1762,-0.1676,-0.166,-0.1554,-0.1538,0.0892,0.1586,0.1313,0.1271,0.1458,0.1927,0.2269,0.2413,0.2515,0.1922,0.141,0.1757,0.1666,0.1281,0,0,0.0272,0.0828,0.1383,0.1959,0.2066,0.158,0.1335,0.1148,0.0956,0.0678,0.0182,-0.0133,0,0,0,-0.0064,-0.0032,-0.0315,-0.0326,-0.0582,-0.0406,-0.0812,-0.0464,0.0176,0.063,0,-0.1111,-0.212,-0.1847,-0.157,0,0.0742,0.1345,0.1212,0.134,0.1746,0.2146,0.2136,0.2007,0,0,0,0.0481,0.0924,0.0892,0.0886,0,0.0363,0.0897,0.1068,0,0,0,0,0,0,0,-0.0123,0.0203,0.0785,0.0924,0.0876,0.095,0.1089,0,0,0.0438,0.0128,-0.0614,-0.0678,-0.047,-0.0214,-0.0219,0,0,0,0,0,0.0694,0.1329,0.1426,0.1778,0.2141,0.2322,0.2328,0.2221,0.2168,0.2306,0.2093,0.1666,0.1612,0.2066,0.2579,0.2397,0.1874,0.1185,0.1036,0.1426,0.1372,0.1249,0.141,0.1703,0.1949,0.2024,0.181,0.15,0.1303,0.1239,0.0849,0.0048,0.0379,0.1244,0.1372,0.1426,0,0,0,-0.0342,-0.0187,0.016,-0.0037,0,0,0,0,0.0662,0.1522,0.1986,0.244,0.2798,0.267,0.2221,0.2152,0.2221,0.2088,0.1922,0.1954,0.2194,0.2419,0.2408,0.2248,0.2216,0.2146,0.1692,0.1372,0.1356,0.1522,0.1778,0.1676,0.1666,0.1874,0.1901,0.1522,0.1383,0.1676,0.1671,0.11,0.0214,-0.039,-0.0448,-0.0262,-0.0256,-0.0144,-0.0187,-0.0224,0.0048,0.0144,0,0,0,0,0,0,0,0,0,0.0726,0.1714,0.2285,0.2381,0.2093,0.2045,0.2141,0.2285,0.2397,0.2365,0.2189,0.2189,0.2109,0.1943,0.1954,0.1714,0.1618,0.1735,0,0,0,0,0.04,0.0956,0.1084,0.1009,0.0972,0,0,0,0,0,-0.0101,-0.023,-0.0288,-0.0021,0.0256,0,0,0,0,0,0,0,0,0,0,0,0,0.063,0.1586,0.2056,0.2269,0.2387,0.2424,0.2306,0.1933,0.166,0,0,0,0,0,0,0,0,0,0,0,0,0.0406,0.0747,0.0683,0,0,0,0,0,0.0539,0.0849,0.0278,0.0069,0.0411,0,0,0,0,0,0,0,0,0,0,0,0,0,0,0,0,0,0,0,0,0,0,0,0,0,0,0,0,0,0,0,0,0,0,0,0,0,0,0,0,0,0.0902,0.1826,0.1474,0.0758,0.0726,0,0,0,0,0,0,0,0,0,0,0,0,0,0,0,0,0,0,0,0,0,0,0,0,0,0,0,0,0,0,0,0,0,0,0,0,0,0,0,0,0,0.0812,0.1676,0.1767,0.1874,0.1719,0,0,0,0,0,0,0,0,0,0,0,0,0,0,0,0,0,0,0,0,0,0,0,0,0,0,0,0,0,0,0,0,0,0,0,0,0,0,0,0,0,0,0.1313,0.1239,0.141,0.1185,0,0,0,0,0,0,0,0,0,0,0,0,0,0,0,0,0,0,0,0,0,0,0,0,0,0,0,0,0,0,0,0,0,0,0,0,0,0,0,0,0,0,0.0587,0.1265,0.1212,0.1036,0,0,0,0,0,0,0,0,0,0,0,0,0,0,0,0,0,0,0,0,0,0,0,0,0,0,0,0,0,0,0,0,0,0,0,0,0,0,0,0,0,0,0.0614,0.1345,0.1239,0.0966,0,0,0,0,0,0,0,0,0,0,0,0,0,0,0,0,0,0,0,0,0,0,0,0,0,0,0,0,0,0,0,0,0,0,0,0,0,0,0,0,0,0,0.0497,0.1036,0.0972,0.0753,0]}],[{"header":{"parameterUnit":"kt","parameterCategory":2,"dx":1,"dy":1,"la1":29.46422004699707,"la2":30.564109802246094,"lo1":-89.4342041015625,"lo2":-87.934326171875,"nx":46,"ny":34,"refTime":"2022-10-27T00:00:00:Z","depth":"8","parameterNumber":3,"parameterNumberName":"V-component_of_CURRENTS"},"data":[-0.0438,-0.0635,-0.0854,-0.1084,-0.1377,-0.1805,-0.267,0,0.0155,-0.229,-0.2835,-0.2066,-0.2611,-0.2926,-0.3337,-0.3556,-0.3577,-0.3636,-0.3502,-0.3433,-0.3081,-0.2835,-0.2723,-0.2718,-0.2803,-0.2835,-0.2963,-0.3203,-0.347,-0.3812,-0.4223,-0.4202,-0.3844,-0.3374,-0.3081,-0.2915,-0.2883,-0.2969,-0.2947,-0.2819,-0.2648,-0.2504,-0.2333,-0.2072,-0.1757,-0.1287,-0.0454,-0.0657,-0.0854,-0.1057,-0.1281,-0.1522,-0.1703,-0.0149,0,-0.3438,-0.394,-0.1778,-0.2541,-0.2969,-0.3091,-0.3289,-0.323,-0.3134,-0.3268,-0.3433,-0.354,-0.3017,-0.2435,-0.213,-0.2157,-0.2355,-0.2632,-0.2963,-0.3262,-0.3502,-0.3951,-0.4325,-0.4197,-0.3737,-0.346,-0.3401,-0.3412,-0.339,-0.3182,-0.2846,-0.2504,-0.2168,-0.1847,-0.1564,-0.1367,-0.1185,-0.0443,-0.0641,-0.0822,-0.0998,-0.1164,-0.1287,-0.1281,-0.0763,-0.0705,-0.3198,-0.3641,0,-0.3209,-0.3251,-0.2883,-0.2915,-0.3075,-0.2894,-0.2798,-0.3017,-0.3481,-0.3534,-0.3043,-0.2232,-0.1751,-0.1735,-0.1922,-0.2216,-0.2557,-0.2792,-0.3059,-0.3369,-0.3518,-0.3417,-0.3396,-0.3454,-0.3289,-0.3102,-0.2953,-0.2787,-0.2552,-0.221,-0.1794,-0.1426,-0.1116,-0.0897,-0.0379,-0.0598,-0.0774,-0.095,-0.1116,-0.1265,-0.1372,-0.1388,-0.1575,-0.2248,-0.2536,-0.1111,-0.3396,-0.3358,-0.2248,-0.2232,-0.2632,-0.2814,-0.2686,-0.2824,-0.3097,-0.3609,-0.362,-0.3091,-0.2312,-0.1639,-0.1372,-0.1474,-0.1757,-0.2007,-0.2184,-0.2339,-0.2509,-0.2696,-0.299,-0.3193,-0.2846,-0.2531,-0.2467,-0.2451,-0.2301,-0.205,-0.1698,-0.1377,-0.102,-0.0646,-0.0219,-0.0491,-0.0694,-0.0881,-0.1068,-0.1255,-0.1431,-0.1586,-0.1794,-0.2125,-0.2408,-0.2467,-0.3107,-0.3668,-0.1725,-0.1233,-0.1959,-0.244,-0.2605,-0.268,-0.2787,-0.3219,-0.3561,-0.3615,-0.3214,-0.2493,-0.1719,-0.1335,-0.1393,-0.157,-0.1612,-0.158,-0.1628,-0.1879,-0.2312,-0.2734,-0.2595,-0.2317,-0.2349,-0.2445,-0.2344,-0.204,-0.1596,-0.1271,-0.0918,-0.0502,-0.0101,-0.0331,-0.0555,-0.0769,-0.0966,-0.1185,-0.1431,-0.1628,-0.1831,-0.2082,-0.2371,-0.2675,-0.3145,-0.3705,0,-0.0662,-0.15,-0.2018,-0.2376,-0.2557,-0.2621,-0.2851,-0.3177,-0.3438,-0.3556,-0.3369,-0.2718,-0.2114,-0.1826,-0.181,-0.15,-0.1105,-0.0913,-0.1041,-0.1484,-0.205,-0.2242,-0.2136,-0.2248,-0.2381,-0.2317,-0.1981,-0.1511,-0.1191,-0.0972,-0.0667,-0.0085,-0.0027,-0.0299,-0.0587,-0.0801,-0.0988,-0.1426,-0.1623,-0.1794,-0.1975,-0.2189,-0.2419,-0.2675,-0.2766,-0.0977,0,-0.1372,-0.1762,-0.2226,-0.2461,-0.2552,-0.2659,-0.2851,-0.3011,-0.3129,-0.3209,-0.3081,-0.283,-0.2451,-0.2456,-0.1794,-0.095,-0.0432,-0.0347,-0.071,-0.1329,-0.1815,-0.2002,-0.2146,-0.2274,-0.2184,-0.1842,-0.1297,-0.0934,-0.0828,-0.0683,0,0.0128,-0.0128,-0.0422,-0.0571,-0.0844,-0.1596,-0.166,-0.1741,-0.1842,-0.1949,-0.204,-0.2066,-0.1949,-0.173,-0.0699,0,-0.1682,-0.228,-0.2403,-0.2515,-0.2595,-0.2691,-0.2771,-0.2712,-0.26,-0.2563,-0.2659,-0.2584,-0.2766,-0.204,-0.0929,-0.016,0.0085,-0.0166,-0.078,-0.1452,-0.1847,-0.197,-0.2098,-0.2002,-0.1623,-0.1073,-0.0721,-0.0598,-0.0502,0,0.0064,0,-0.0481,-0.0448,0,-0.1692,-0.1666,-0.1676,-0.1714,-0.1757,-0.1773,-0.173,-0.1442,-0.1426,-0.1303,-0.0507,0,-0.189,-0.2264,-0.2445,-0.2563,-0.2638,-0.2659,-0.2568,-0.2397,-0.2226,-0.2285,-0.2547,-0.2728,-0.2002,-0.0918,-0.0096,0.0203,0.0037,-0.0513,-0.1191,-0.1591,-0.173,-0.1858,-0.1799,-0.1324,-0.0897,-0.0646,-0.0502,-0.0384,0,0.0059,0.0,-0.0603,0,-0.0224,-0.1399,-0.1516,-0.1564,-0.1607,-0.1639,-0.1655,-0.166,-0.1175,-0.1484,-0.1308,-0.1132,0,-0.1442,-0.2269,-0.2403,-0.2541,-0.26,-0.2573,-0.2467,-0.228,-0.2056,-0.1991,-0.2322,-0.2573,-0.1965,-0.1014,-0.0283,0.0016,-0.0064,-0.0475,-0.0982,-0.1281,-0.1495,-0.1618,-0.1458,-0.1046,-0.079,-0.0641,-0.0529,-0.0422,0,0,0,0,0,-0.0448,-0.1233,-0.1399,-0.1484,-0.1527,-0.1559,-0.1618,-0.1682,0,-0.1634,-0.1452,-0.1089,0,0,-0.2216,-0.2312,-0.2461,-0.252,-0.2477,-0.2355,-0.2157,-0.1938,-0.1773,-0.1869,-0.2253,-0.2002,-0.1287,-0.063,-0.032,-0.0304,-0.0539,-0.0849,-0.1143,-0.1345,-0.1329,-0.1057,-0.0822,-0.0715,-0.0641,-0.0561,-0.047,0,0,0,0,0,0,-0.118,-0.1367,-0.1436,-0.1436,-0.142,-0.1452,-0.1463,-0.0603,-0.1548,-0.1644,-0.094,0,0,-0.1938,-0.212,-0.2322,-0.2392,-0.2349,-0.2226,-0.205,-0.1847,-0.165,-0.1532,-0.1709,-0.181,-0.1564,-0.1041,-0.0737,-0.063,-0.0731,-0.0902,-0.1121,-0.1143,-0.0977,-0.0774,-0.0683,-0.0662,-0.063,-0.0566,-0.0464,0,0,0,0,0,0,-0.0844,-0.1153,-0.1244,-0.1303,-0.1265,-0.1228,-0.1271,-0.1249,-0.1436,-0.1692,0,0,0,-0.1773,-0.1938,-0.2189,-0.2264,-0.2226,-0.2114,-0.1943,-0.1767,-0.1586,-0.141,-0.1303,-0.1383,-0.1383,-0.1148,-0.0977,-0.086,-0.0865,-0.0924,-0.0966,-0.0881,-0.0742,-0.0635,-0.0603,-0.0609,-0.0582,-0.0507,-0.0411,0,0,0,0,0,0,-0.0625,-0.0705,-0.0934,-0.1228,-0.1297,-0.1148,-0.1265,-0.1239,-0.1239,-0.1223,-0.023,-0.0144,0,-0.1655,-0.1815,-0.2104,-0.2168,-0.2114,-0.2002,-0.1842,-0.1671,-0.1516,-0.1361,-0.1212,-0.1105,-0.103,-0.0966,-0.0902,-0.0838,-0.0817,-0.0812,-0.0796,-0.0726,-0.0651,-0.0587,-0.0561,-0.0534,-0.0486,-0.0411,-0.0331,0,0,0,0,0,0,0,-0.0438,-0.0726,-0.1105,-0.1447,-0.1329,-0.1372,-0.1271,-0.0998,-0.0715,-0.04,-0.0267,0,-0.1575,-0.1778,-0.2072,-0.2093,-0.2013,-0.189,-0.173,-0.157,-0.1436,-0.1308,-0.1175,-0.1057,-0.0961,-0.0892,-0.0833,-0.0796,-0.0774,-0.0758,-0.0726,-0.0678,-0.0614,-0.0561,-0.0513,-0.0448,-0.0384,-0.032,-0.0256,0,0,0,0.0363,0.0497,0,0,0,-0.0972,-0.095,-0.1207,-0.1361,-0.1356,-0.1292,-0.0913,-0.047,-0.0214,-0.0139,0,-0.1548,-0.1863,-0.2109,-0.2045,-0.1911,-0.1773,-0.1623,-0.1479,-0.1356,-0.1255,-0.1143,-0.1046,-0.0956,-0.0886,-0.0838,-0.0801,-0.0763,-0.0731,-0.0689,-0.0641,-0.0587,-0.0518,-0.0443,-0.0374,-0.0304,-0.024,-0.0171,0,0,-0.0144,0.0523,0.1292,-0.0326,0.0,0.0,-0.0806,-0.0598,-0.0796,-0.1105,-0.1084,-0.0956,-0.0667,-0.0117,0.0251,-0.0032,0,-0.1735,-0.2088,-0.2184,-0.2002,-0.181,-0.166,-0.1527,-0.1404,-0.1297,-0.1223,-0.1127,-0.1052,-0.0977,-0.0908,-0.0849,-0.0796,-0.0747,-0.0705,-0.0667,-0.0614,-0.0539,-0.0443,-0.0352,-0.0278,-0.0203,-0.0149,-0.0091,0,0,-0.0977,0.031,0.1575,-0.0651,0,0,-0.0299,-0.0251,-0.0721,-0.0998,-0.0892,-0.0598,-0.0283,0.031,0.1089,0,-0.0865,-0.189,-0.2168,-0.2136,-0.1895,-0.1676,-0.1538,-0.1436,-0.134,-0.1249,-0.1185,-0.1116,-0.1062,-0.0998,-0.0918,-0.0849,-0.078,-0.0731,-0.0699,-0.0662,-0.0582,-0.047,-0.0347,-0.023,-0.0139,-0.0059,-0.0021,-0.0011,-0.0481,0.008,-0.0416,0,0,0,0,0,-0.0064,0.0187,-0.0566,-0.0966,-0.0838,-0.0555,-0.0133,0.0363,0.1046,-0.0123,-0.1399,-0.1751,-0.1965,-0.1895,-0.1676,-0.1479,-0.1388,-0.1335,-0.1271,-0.1175,-0.1089,-0.1052,-0.1036,-0.0993,-0.0918,-0.0833,-0.0758,-0.0731,-0.0721,-0.0646,-0.0518,-0.0368,-0.0214,-0.0085,0.0016,0.0123,0.0133,0.0091,-0.0961,0.0726,0.0945,0.016,0.055,0,0,0,0.0641,0.0481,-0.0128,-0.0683,-0.079,-0.0678,-0.0219,0.0112,0.0246,-0.0384,-0.1137,-0.1564,-0.165,-0.1527,-0.134,-0.1207,-0.1185,-0.1223,-0.1217,-0.11,-0.0881,-0.086,-0.0908,-0.0972,-0.095,-0.0881,-0.0785,-0.0774,-0.0812,-0.063,-0.0416,-0.023,-0.0032,0.008,0.0117,0.0288,0.0299,0.0219,0,0.1009,0.0988,0.0529,0.0897,0.0812,0,0,0.0123,0.0117,0.008,-0.0336,-0.0683,-0.087,-0.0235,0.0005,-0.0032,-0.0667,-0.1335,-0.1596,-0.1319,-0.1073,-0.0918,-0.0854,-0.0908,-0.1041,-0.1153,-0.1111,-0.0539,-0.0507,-0.0614,-0.1014,-0.1111,-0.1062,-0.0844,-0.0833,-0.1116,-0.0742,-0.0315,0.0,0.0352,0.032,0.0075,0.04,0.0422,0.0336,0.1164,0.1319,0.1271,0.1068,0.094,0.1308,0.0096,-0.0021,-0.0774,0.0192,0.024,-0.0064,-0.0475,-0.1196,-0.0187,0.0032,0.0208,-0.0796,-0.1554,-0.1981,-0.0929,-0.0545,-0.0448,-0.0448,-0.0518,-0.0699,-0.0934,-0.1244,-0.0336,-0.0288,-0.0411,-0.1111,-0.1191,-0.1105,-0.055,-0.0518,-0.1442,-0.0828,-0.0101,0.0571,0.1468,0.0518,0.0032,0.04,0.0459,0.0363,0.2328,0.1906,0.1687,0.15,0.1239,0.094,0.024,-0.0011,-0.0763,0.0513,0.0427,0.0123,-0.0219,-0.0828,0,0,0.0481,-0.1036,-0.1826,-0.2605,-0.0641,-0.0256,-0.0214,-0.0235,-0.0294,-0.047,-0.0737,-0.142,0,0,0,-0.0908,-0.0886,-0.0278,0.0085,-0.0101,-0.1105,-0.0288,0.0235,0.0678,0.1949,0,0.126,0.0368,0.0459,0.0352,0,0.1927,0.1762,0.1554,0.1308,0.0913,0.0283,0.0027,-0.0069,0,0,0,-0.0481,-0.0358,0.0101,0.0566,0,-0.1506,-0.1997,-0.2584,0,0,0,0,0,0,0,-0.1265,-0.047,-0.0123,0.0037,-0.0481,-0.079,-0.0342,0,0,-0.0374,0.0694,0.0021,0.0352,0.1869,-0.0117,0.2312,0,0,0,0,0,0.1767,0.1474,0.1148,0.0865,0.0352,0.0187,0.0758,0.0299,0.0203,0.0123,-0.0464,-0.023,0.0203,0.0753,-0.0075,-0.126,-0.1559,-0.1522,0.0176,0.0603,0.047,0.0395,0.0443,0.0182,0.0454,-0.0326,-0.0459,-0.0085,0.0283,0.0203,-0.0155,-0.0395,-0.0144,-0.0005,-0.0192,0.1175,0,0,0,0.0411,0.141,0.0224,0.0278,0,0,0,0,0.1436,0.0961,0.0796,0.0427,0.0342,0.1175,0.0812,0.0491,0.0422,0.0166,0.0117,0.0192,0.0246,-0.0155,-0.0673,-0.0961,-0.0934,0.0251,0.0683,0.0577,0.0635,0.0737,0.0059,0.0902,0.0326,0.0011,0.008,0.0742,0.0673,0.0518,0.0053,-0.0096,-0.0011,-0.0646,0.071,0.0,0.0,-0.016,0.1036,0.0481,0.04,0.0464,0,0,0,0,0,0,0,0,0,0.1596,0.1025,0.0577,0.0966,0.0571,0.0278,0.0166,0.0091,-0.0128,-0.0459,-0.0785,-0.141,0.0149,0.016,0.0214,0.0486,0.0587,-0.0251,0,0,0,0,0.0993,0.0747,0.0833,0.0438,0.0208,0,0,0,0,0,0.031,0.1062,0.0171,0.0043,0.0203,0,0,0,0,0,0,0,0,0,0,0,0,0.134,0.0726,0.0304,0.0149,0.0059,-0.0096,-0.0352,-0.0715,-0.1858,0,0,0,0,0,0,0,0,0,0,0,0,0.102,0.0464,0.032,0,0,0,0,0,0.1623,0.1105,0.0053,-0.0363,-0.0075,0,0,0,0,0,0,0,0,0,0,0,0,0,0,0,0,0,0,0,0,0,0,0,0,0,0,0,0,0,0,0,0,0,0,0,0,0,0,0,0,0,0.2093,0.1057,0.0235,-0.0117,0.0123,0,0,0,0,0,0,0,0,0,0,0,0,0,0,0,0,0,0,0,0,0,0,0,0,0,0,0,0,0,0,0,0,0,0,0,0,0,0,0,0,0,0.1703,0.0929,0.0534,0.0422,0.0545,0,0,0,0,0,0,0,0,0,0,0,0,0,0,0,0,0,0,0,0,0,0,0,0,0,0,0,0,0,0,0,0,0,0,0,0,0,0,0,0,0,0,0.1111,0.0828,0.0497,0.0475,0,0,0,0,0,0,0,0,0,0,0,0,0,0,0,0,0,0,0,0,0,0,0,0,0,0,0,0,0,0,0,0,0,0,0,0,0,0,0,0,0,0,0.2162,0.1116,0.0422,0.0379,0,0,0,0,0,0,0,0,0,0,0,0,0,0,0,0,0,0,0,0,0,0,0,0,0,0,0,0,0,0,0,0,0,0,0,0,0,0,0,0,0,0,0.2178,0.1377,0.0571,0.0523,0,0,0,0,0,0,0,0,0,0,0,0,0,0,0,0,0,0,0,0,0,0,0,0,0,0,0,0,0,0,0,0,0,0,0,0,0,0,0,0,0,0,0.1388,0.1458,0.0747,0.0614,0]}]],[[{"header":{"parameterUnit":"kt","parameterCategory":2,"dx":1,"dy":1,"la1":29.46422004699707,"la2":30.564109802246094,"lo1":-89.4342041015625,"lo2":-87.934326171875,"nx":46,"ny":34,"refTime":"2022-10-27T00:00:00:Z","depth":"10","parameterNumber":2,"parameterNumberName":"U-component_of_CURRENTS"},"data":[0.0459,0.0582,0.0705,0.0822,0.0908,0.0897,0.0865,0,0.0208,0.0892,0.1741,0.1981,0.1783,0.1538,0.1185,0.0993,0.1116,0.1356,0.1676,0.1084,0.1116,0.1548,0.1666,0.134,0.0443,-0.0689,-0.1564,-0.205,-0.228,-0.2445,-0.2621,-0.2862,-0.3209,-0.3593,-0.3978,-0.4378,-0.4762,-0.5024,-0.5093,-0.504,-0.4997,-0.4981,-0.496,-0.4869,-0.4613,-0.4143,0.0352,0.0454,0.055,0.0619,0.063,0.0491,0.0027,-0.0315,0,0.0529,0.1612,0.1591,0.1127,0.1292,0.1164,0.0828,0.071,0.0849,0.0796,0.095,0.0667,-0.0069,0.0384,0.0747,0.0582,-0.0037,-0.0747,-0.1319,-0.1687,-0.1922,-0.205,-0.2056,-0.2082,-0.2328,-0.2744,-0.3145,-0.3508,-0.37,-0.3705,-0.3748,-0.3876,-0.3972,-0.3999,-0.401,-0.4031,-0.3978,0.0288,0.0363,0.0443,0.0513,0.0571,0.0635,0.078,0.1297,0.221,0.2104,0.1495,0,0.0529,0.1265,0.1356,0.0956,0.0518,0.0406,0.0539,0.0427,0.0619,0.0075,-0.086,-0.0828,-0.0214,-0.0219,-0.0497,-0.0844,-0.1175,-0.141,-0.1468,-0.141,-0.1351,-0.1479,-0.1821,-0.213,-0.2296,-0.2381,-0.2472,-0.26,-0.2691,-0.2712,-0.2718,-0.2744,-0.2819,-0.2958,0.0288,0.0315,0.0363,0.0422,0.0481,0.0561,0.0715,0.1009,0.1361,0.1452,0.1345,0.2114,0.2638,0.2306,0.1943,0.1239,0.0566,0.0133,0.0048,0.023,0.023,0.0336,-0.0246,-0.1281,-0.1554,-0.1121,-0.0801,-0.0849,-0.0945,-0.0977,-0.0956,-0.0929,-0.0945,-0.1095,-0.1335,-0.1447,-0.1564,-0.1847,-0.2114,-0.2264,-0.228,-0.2168,-0.2024,-0.1933,-0.1901,-0.1938,0.0384,0.0331,0.0326,0.0342,0.0363,0.0416,0.0529,0.0705,0.0913,0.1057,0.1159,0.142,0.1725,0.22,0.2007,0.1046,0.0395,-0.0048,-0.0331,-0.0427,-0.0262,-0.0075,0.0037,-0.0491,-0.15,-0.1927,-0.1815,-0.1564,-0.1271,-0.0897,-0.0587,-0.0459,-0.0518,-0.0758,-0.0998,-0.1052,-0.1249,-0.1655,-0.1986,-0.221,-0.2226,-0.2013,-0.1794,-0.1692,-0.1575,-0.1452,0.039,0.039,0.0331,0.0283,0.024,0.023,0.0283,0.04,0.0529,0.0625,0.0651,0.0635,0.0603,0.0571,0,-0.0171,-0.0352,-0.0432,-0.0571,-0.0673,-0.0689,-0.0651,-0.0507,-0.0347,-0.055,-0.1169,-0.173,-0.1687,-0.1228,-0.0678,-0.0272,-0.0133,-0.0262,-0.055,-0.0785,-0.0865,-0.1036,-0.1345,-0.1612,-0.1815,-0.1842,-0.1703,-0.1655,-0.1746,-0.1837,-0.181,0.071,0.0582,0.0379,0.024,0.0128,0.0,-0.0021,0.0091,0.0198,0.0246,0.0203,0.0011,-0.0406,-0.1111,-0.1543,0,-0.0464,-0.0876,-0.0774,-0.0785,-0.0763,-0.0726,-0.0721,-0.0667,-0.0555,-0.0545,-0.0683,-0.0646,-0.0497,-0.0326,-0.0214,-0.0224,-0.039,-0.0646,-0.0833,-0.087,-0.0886,-0.0998,-0.1233,-0.1468,-0.1511,-0.1479,-0.158,-0.1789,-0.1997,-0.2114,0,0.0123,0.0224,0.0203,0.0133,-0.0235,-0.0374,-0.0128,-0.0016,0.0027,-0.0005,-0.0133,-0.0352,-0.0641,-0.0961,-0.1127,0,-0.055,-0.0924,-0.0763,-0.0753,-0.0699,-0.0641,-0.0598,-0.0566,-0.0534,-0.0427,-0.0331,-0.0529,-0.078,-0.0876,-0.0945,-0.1057,-0.1191,-0.1196,-0.1052,-0.0833,-0.0747,-0.0945,-0.1153,-0.1201,-0.1255,-0.1345,-0.1436,-0.1564,-0.1692,0,-0.0053,0,0.0192,0.0379,0,0.0,-0.0016,-0.0037,-0.0032,-0.0043,-0.0096,-0.0192,-0.0438,-0.0657,-0.0769,-0.0844,0,-0.0262,-0.0555,-0.0651,-0.063,-0.0561,-0.0513,-0.0475,-0.0443,-0.0459,-0.0646,-0.0956,-0.1329,-0.1612,-0.173,-0.1789,-0.1757,-0.1586,-0.1255,-0.0833,-0.0625,-0.0801,-0.0982,-0.1009,-0.1068,-0.1175,-0.1239,-0.1249,-0.1223,0,0.0358,0.0459,0.0507,0,0.0262,0.0347,0.0096,0.0005,-0.0016,0.0,0.0037,0.0149,-0.0224,-0.0529,-0.0262,-0.016,0,-0.047,-0.0731,-0.0534,-0.0464,-0.039,-0.0336,-0.032,-0.0331,-0.0374,-0.0523,-0.0913,-0.1639,-0.2189,-0.2306,-0.2312,-0.2146,-0.1821,-0.1351,-0.0849,-0.0657,-0.0774,-0.0849,-0.086,-0.0972,-0.1105,-0.1175,-0.1175,-0.1132,0,0,0,0,0,-0.0139,-0.0176,-0.0064,-0.0027,0.0005,0.0016,0.0032,0.0048,0,0.0069,0.0203,0.0272,0,0,-0.0048,-0.0139,-0.0187,-0.0182,-0.0182,-0.0192,-0.0219,-0.0251,-0.0331,-0.0641,-0.1393,-0.2157,-0.2456,-0.2461,-0.2258,-0.1847,-0.1351,-0.0913,-0.0769,-0.0742,-0.0662,-0.071,-0.087,-0.0998,-0.1057,-0.1062,-0.1041,0,0,0,0,0,0,-0.0048,-0.0075,0.0005,0.0075,0.0037,-0.0107,-0.0336,0.0069,0.0534,0.0635,0.0812,0,0,0.0021,0.0027,-0.0011,-0.0027,-0.0043,-0.0064,-0.0101,-0.0139,-0.0187,-0.0294,-0.0673,-0.1426,-0.2056,-0.2221,-0.2066,-0.1714,-0.1281,-0.095,-0.0715,-0.0513,-0.0491,-0.0625,-0.0758,-0.0854,-0.0918,-0.0961,-0.0998,0,0,0,0,0,0,-0.0107,-0.0101,0.0043,0.0101,0.0101,0.0037,0.0011,0.0085,0.0149,0.0155,0,0,0,0.0053,0.0107,0.0096,0.0091,0.008,0.0053,0.0005,-0.0048,-0.0096,-0.0144,-0.0246,-0.0534,-0.0977,-0.1287,-0.1319,-0.1121,-0.0806,-0.0534,-0.0384,-0.0374,-0.0454,-0.0539,-0.0614,-0.0694,-0.0796,-0.0892,-0.0977,0,0,0,0,0,0,-0.0149,0.0101,0.032,0.0021,-0.0043,0.0016,0.0027,0.0027,-0.0107,-0.0502,-0.0539,-0.0299,0,0.0075,0.016,0.0192,0.0208,0.0203,0.0171,0.0117,0.0048,-0.0016,-0.0069,-0.0112,-0.0176,-0.0288,-0.0406,-0.0448,-0.0395,-0.031,-0.0256,-0.0278,-0.0342,-0.0411,-0.0464,-0.0529,-0.0625,-0.0758,-0.0881,-0.0972,0,0,0,0,0,0,0,0.0411,0.0737,0.0342,0.008,0.0182,0.023,0.0219,0.0198,0.0091,0.0005,0.0005,0,0.0085,0.0224,0.032,0.0363,0.0358,0.0315,0.0246,0.0166,0.008,0.0011,-0.0043,-0.008,-0.0107,-0.0133,-0.0149,-0.0166,-0.0182,-0.0219,-0.0283,-0.0352,-0.0422,-0.0491,-0.0593,-0.0721,-0.0844,-0.0945,-0.103,0,0,0,0.0096,0.0192,0,0,0,0.0464,0.0822,0.0646,0.0566,0.0513,0.0443,0.0395,0.0326,0.0214,0.0144,0,0.0107,0.0331,0.0513,0.0561,0.0539,0.0475,0.0384,0.0294,0.0203,0.0117,0.0048,-0.0011,-0.0048,-0.0075,-0.0107,-0.0139,-0.0192,-0.0262,-0.0347,-0.0443,-0.0545,-0.0662,-0.0801,-0.0924,-0.1025,-0.1116,-0.1201,0,0,0.0529,0.079,0.078,0.134,0.1639,0.173,0.1719,0.1442,0.1062,0.0731,0.0539,0.0432,0.0395,0.0422,0.023,0.0011,0,0.024,0.0651,0.0849,0.0838,0.0753,0.0641,0.0529,0.0422,0.0315,0.0214,0.0123,0.0043,-0.0027,-0.0085,-0.0149,-0.0219,-0.0304,-0.04,-0.0491,-0.0582,-0.0699,-0.0844,-0.0993,-0.1132,-0.1255,-0.1356,-0.1426,0,0,0.0555,0.0892,0.0961,0.1244,0,0,0.0481,0.087,0.0801,0.0758,0.0641,0.0555,0.0651,0.0796,0.0828,0,0.0785,0.1516,0.1554,0.1388,0.1164,0.0966,0.079,0.0641,0.0502,0.0363,0.0219,0.0091,-0.0011,-0.0101,-0.0182,-0.0267,-0.0363,-0.0443,-0.0507,-0.0561,-0.0651,-0.0769,-0.0913,-0.1057,-0.1207,-0.1351,-0.1474,-0.1559,0.0529,0.1105,0.1153,0,0,0,0,0,0.0315,0.0699,0.0721,0.0763,0.0886,0.1014,0.126,0.1564,0.2109,0.2621,0.2525,0.2216,0.2125,0.1783,0.1426,0.1132,0.0902,0.0721,0.0561,0.04,0.0214,0.0021,-0.0139,-0.0251,-0.0331,-0.039,-0.0432,-0.0459,-0.0475,-0.0529,-0.063,-0.0753,-0.0886,-0.1025,-0.1159,-0.1308,-0.1474,-0.1596,0.3481,0.2045,0.1313,0.1116,0.0913,0,0,0,0.0379,0.0854,0.086,0.0881,0.1175,0.1463,0.165,0.1842,0.2178,0.2472,0.2504,0.2621,0.2429,0.2018,0.158,0.1217,0.094,0.0731,0.0582,0.0448,0.023,-0.0059,-0.0304,-0.0448,-0.0481,-0.0464,-0.0448,-0.0454,-0.0443,-0.047,-0.0582,-0.0737,-0.0929,-0.1105,-0.1201,-0.1281,-0.1415,-0.1548,0,0.0336,0.0721,0.0838,0.086,0.0812,0,0,0.0432,0.1046,0.1185,0.1052,0.1153,0.1596,0.1901,0.1986,0.2088,0.221,0.2317,0.2568,0.2483,0.2093,0.1634,0.1239,0.0918,0.0662,0.0486,0.0411,0.0224,-0.0133,-0.0486,-0.0646,-0.0609,-0.0561,-0.0598,-0.0657,-0.0571,-0.0497,-0.0603,-0.0828,-0.1175,-0.1447,-0.1452,-0.1388,-0.1415,-0.1484,0.393,0.2264,0.1239,0.0956,0.1111,0.1607,0.1927,0.2066,0.2029,0.1639,0.1361,0.1143,0.1121,0.1607,0.1981,0.204,0.1917,0.1778,0.1858,0.2077,0.228,0.1938,0.1532,0.1196,0.0892,0.0587,0.0283,0.0139,-0.0005,-0.0272,-0.0577,-0.0641,-0.0438,-0.0358,-0.0459,-0.0625,-0.0614,-0.0577,-0.0539,-0.0497,-0.0865,-0.1415,-0.1436,-0.1575,-0.149,-0.1468,0.0715,0.1265,0.1014,0.0982,0.1185,0.1618,0.1911,0.1991,0.205,0.1623,0.1212,0.1127,0.1036,0.1052,0,0,0.0267,0.0785,0.1255,0.1714,0.1709,0.1463,0.1297,0.1127,0.0945,0.0678,0.0208,-0.0096,0,0,0,-0.0016,0.0085,-0.0256,0.0299,0.0678,0.0561,-0.0192,-0.0075,0.0347,0.0577,0,-0.1004,-0.1911,-0.1676,-0.1442,0,0.0529,0.1014,0.0988,0.1116,0.1484,0.1821,0.1714,0.1527,0,0,0,0.0219,0.0646,0.0854,0.0865,0,0.0342,0.079,0.0897,0,0,0,0,0,0,0,-0.0107,0.0214,0.0758,0.086,0.0801,0.0796,0.0838,0,0,0.0208,0.008,-0.0347,-0.0481,-0.0283,-0.0112,-0.0192,0,0,0,0,0,0.0518,0.1052,0.1201,0.1506,0.1815,0.1949,0.1927,0.1842,0.1837,0.1933,0.1751,0.1468,0.1484,0.1869,0.2285,0.2088,0.1506,0.1089,0.0977,0.1025,0.0998,0.0913,0.1004,0.134,0.1655,0.1751,0.1618,0.1367,0.0998,0.0769,0.0822,0.0817,0.0534,0.0358,0.0497,0.0593,0,0,0,-0.0075,0.0149,0.0283,0.0101,0,0,0,0,0.0518,0.1265,0.1719,0.2104,0.2408,0.2301,0.1922,0.1879,0.1965,0.1874,0.1741,0.1767,0.1975,0.2168,0.2114,0.1799,0.1479,0.1276,0.1143,0.1116,0.1089,0.1191,0.1399,0.1351,0.1436,0.1676,0.1714,0.1351,0.0913,0.0865,0.0838,0.0491,0.0107,-0.0171,-0.0166,0.0053,0.0304,0.0406,0.0406,0.0571,0.0635,0.0534,0,0,0,0,0,0,0,0,0,0.0657,0.1538,0.2013,0.2104,0.1874,0.1842,0.1922,0.205,0.2152,0.213,0.1954,0.1885,0.1826,0.1735,0.1741,0.1511,0.1276,0.1244,0,0,0,0,0.0379,0.0876,0.0945,0.0806,0.0721,0,0,0,0,0,0.0182,0.0539,0.0721,0.0726,0.0641,0,0,0,0,0,0,0,0,0,0,0,0,0.0587,0.1458,0.1853,0.2029,0.213,0.2162,0.2077,0.1762,0.1532,0,0,0,0,0,0,0,0,0,0,0,0,0.0262,0.0582,0.0635,0,0,0,0,0,0.0192,0.0555,0.0715,0.0715,0.079,0,0,0,0,0,0,0,0,0,0,0,0,0,0,0,0,0,0,0,0,0,0,0,0,0,0,0,0,0,0,0,0,0,0,0,0,0,0,0,0,0,0.0192,0.0486,0.0641,0.0657,0.0742,0,0,0,0,0,0,0,0,0,0,0,0,0,0,0,0,0,0,0,0,0,0,0,0,0,0,0,0,0,0,0,0,0,0,0,0,0,0,0,0,0,0.0347,0.0673,0.0785,0.0924,0.0817,0,0,0,0,0,0,0,0,0,0,0,0,0,0,0,0,0,0,0,0,0,0,0,0,0,0,0,0,0,0,0,0,0,0,0,0,0,0,0,0,0,0,0.0747,0.0833,0.0934,0.0822,0,0,0,0,0,0,0,0,0,0,0,0,0,0,0,0,0,0,0,0,0,0,0,0,0,0,0,0,0,0,0,0,0,0,0,0,0,0,0,0,0,0,0.0187,0.0651,0.0854,0.0844,0,0,0,0,0,0,0,0,0,0,0,0,0,0,0,0,0,0,0,0,0,0,0,0,0,0,0,0,0,0,0,0,0,0,0,0,0,0,0,0,0,0,0.0171,0.0609,0.0812,0.079,0,0,0,0,0,0,0,0,0,0,0,0,0,0,0,0,0,0,0,0,0,0,0,0,0,0,0,0,0,0,0,0,0,0,0,0,0,0,0,0,0,0,0.0304,0.0566,0.0603,0.063,0]}],[{"header":{"parameterUnit":"kt","parameterCategory":2,"dx":1,"dy":1,"la1":29.46422004699707,"la2":30.564109802246094,"lo1":-89.4342041015625,"lo2":-87.934326171875,"nx":46,"ny":34,"refTime":"2022-10-27T00:00:00:Z","depth":"10","parameterNumber":3,"parameterNumberName":"V-component_of_CURRENTS"},"data":[-0.0422,-0.0603,-0.0796,-0.0993,-0.1249,-0.1618,-0.2344,0,0.0133,-0.2007,-0.2451,-0.1794,-0.2269,-0.2525,-0.2766,-0.2947,-0.2819,-0.2926,-0.3337,-0.3513,-0.2947,-0.2403,-0.2093,-0.1938,-0.2205,-0.2344,-0.2531,-0.2814,-0.3118,-0.3502,-0.4026,-0.4138,-0.3823,-0.3358,-0.307,-0.2904,-0.2872,-0.2953,-0.2926,-0.2787,-0.2616,-0.2467,-0.2296,-0.204,-0.1725,-0.126,-0.0438,-0.0625,-0.0806,-0.0982,-0.118,-0.1388,-0.1554,-0.0144,0,-0.2963,-0.3364,-0.1548,-0.2226,-0.2573,-0.2568,-0.2755,-0.2712,-0.2488,-0.2419,-0.3107,-0.3737,-0.3118,-0.2301,-0.1746,-0.1644,-0.1879,-0.2146,-0.2504,-0.2856,-0.3145,-0.3647,-0.4159,-0.4143,-0.3711,-0.3444,-0.339,-0.3406,-0.3385,-0.3177,-0.284,-0.2493,-0.2152,-0.1821,-0.1538,-0.1329,-0.1143,-0.0427,-0.0614,-0.078,-0.0934,-0.1084,-0.1191,-0.1191,-0.0705,-0.063,-0.2766,-0.3139,0,-0.2776,-0.2808,-0.2493,-0.2403,-0.2643,-0.2541,-0.2333,-0.2216,-0.2963,-0.3769,-0.3497,-0.2445,-0.1709,-0.1447,-0.1516,-0.1778,-0.2162,-0.2445,-0.2782,-0.3171,-0.3433,-0.3385,-0.3369,-0.3438,-0.3278,-0.3097,-0.2947,-0.2782,-0.2547,-0.2205,-0.1789,-0.1415,-0.1105,-0.0876,-0.0368,-0.0571,-0.0737,-0.0892,-0.1041,-0.1169,-0.126,-0.1265,-0.1415,-0.1997,-0.2248,-0.0972,-0.2931,-0.2899,-0.1959,-0.1975,-0.2232,-0.2531,-0.2451,-0.2451,-0.2419,-0.292,-0.3599,-0.3545,-0.2702,-0.1863,-0.1367,-0.1276,-0.1522,-0.1794,-0.2029,-0.2237,-0.2445,-0.2664,-0.2953,-0.3166,-0.283,-0.252,-0.2461,-0.2445,-0.229,-0.2045,-0.1692,-0.1372,-0.102,-0.0646,-0.0208,-0.047,-0.0662,-0.0833,-0.0993,-0.1159,-0.1308,-0.1447,-0.1623,-0.1901,-0.2136,-0.2173,-0.2707,-0.3166,-0.1516,-0.1137,-0.1783,-0.212,-0.2424,-0.2568,-0.2579,-0.2707,-0.3123,-0.3476,-0.3497,-0.2974,-0.1975,-0.1431,-0.1367,-0.1527,-0.1591,-0.1559,-0.1602,-0.1858,-0.228,-0.2707,-0.2579,-0.2306,-0.2344,-0.2435,-0.2333,-0.2029,-0.1586,-0.1265,-0.0913,-0.0502,-0.0091,-0.0315,-0.0529,-0.0731,-0.0908,-0.11,-0.1308,-0.1479,-0.166,-0.1874,-0.2114,-0.2371,-0.276,-0.3219,0,-0.0646,-0.1393,-0.181,-0.2141,-0.2445,-0.2563,-0.2718,-0.3001,-0.3182,-0.3444,-0.3422,-0.2862,-0.2237,-0.1869,-0.1837,-0.1522,-0.1116,-0.0913,-0.1036,-0.1468,-0.2029,-0.2226,-0.2125,-0.2237,-0.2376,-0.2306,-0.1975,-0.1506,-0.118,-0.0961,-0.0657,-0.0075,-0.0016,-0.0283,-0.0561,-0.0758,-0.0924,-0.1292,-0.1463,-0.1618,-0.1783,-0.1965,-0.2162,-0.2371,-0.244,-0.087,0,-0.1281,-0.1607,-0.1943,-0.2312,-0.2483,-0.2611,-0.2819,-0.2969,-0.3065,-0.3161,-0.3075,-0.2835,-0.2456,-0.2456,-0.1805,-0.0956,-0.0438,-0.0342,-0.0699,-0.1319,-0.1799,-0.1991,-0.2141,-0.2269,-0.2178,-0.1837,-0.1292,-0.0929,-0.0812,-0.0667,0,0.0139,-0.0112,-0.04,-0.0545,-0.079,-0.1442,-0.1495,-0.157,-0.166,-0.1762,-0.1842,-0.1863,-0.1757,-0.1559,-0.0641,0,-0.1532,-0.1991,-0.2173,-0.2408,-0.2531,-0.2654,-0.2744,-0.2691,-0.2584,-0.2552,-0.2648,-0.2579,-0.276,-0.2034,-0.0924,-0.0155,0.0096,-0.0155,-0.0769,-0.1442,-0.1842,-0.1965,-0.2088,-0.1997,-0.1612,-0.1068,-0.071,-0.0587,-0.0491,0,0.0075,0,-0.0464,-0.0432,0,-0.1527,-0.1506,-0.1516,-0.1548,-0.1591,-0.1607,-0.1575,-0.1324,-0.1303,-0.1196,-0.0481,0,-0.1703,-0.1975,-0.2306,-0.2488,-0.2589,-0.2621,-0.2547,-0.2381,-0.221,-0.2274,-0.2536,-0.2718,-0.1991,-0.0902,-0.0085,0.0214,0.0048,-0.0502,-0.118,-0.158,-0.1719,-0.1853,-0.1789,-0.1319,-0.0892,-0.0641,-0.0491,-0.0379,0,0.0064,0.0,-0.0577,0,-0.0214,-0.1281,-0.1383,-0.1426,-0.1458,-0.1484,-0.15,-0.1506,-0.1095,-0.1351,-0.1207,-0.1057,0,-0.1329,-0.1981,-0.2226,-0.2451,-0.2541,-0.2536,-0.244,-0.2258,-0.204,-0.1981,-0.2312,-0.2568,-0.1959,-0.1009,-0.0272,0.0027,-0.0059,-0.047,-0.0977,-0.1276,-0.149,-0.1607,-0.1447,-0.1036,-0.0785,-0.0635,-0.0523,-0.0416,0,0,0,0,0,-0.0432,-0.1143,-0.1287,-0.1356,-0.1383,-0.141,-0.1463,-0.1516,0,-0.1479,-0.1329,-0.102,0,0,-0.1959,-0.2082,-0.2365,-0.2456,-0.2435,-0.2322,-0.2136,-0.1922,-0.1757,-0.1858,-0.2248,-0.1997,-0.1287,-0.0625,-0.0315,-0.0299,-0.0534,-0.0838,-0.1137,-0.1335,-0.1319,-0.1046,-0.0817,-0.071,-0.0635,-0.0555,-0.0464,0,0,0,0,0,0,-0.1095,-0.1233,-0.1287,-0.1287,-0.1281,-0.1313,-0.1324,-0.0555,-0.1404,-0.149,-0.0886,0,0,-0.1751,-0.1869,-0.2221,-0.2333,-0.2306,-0.22,-0.2029,-0.1831,-0.1639,-0.1522,-0.1698,-0.1805,-0.1559,-0.1036,-0.0737,-0.063,-0.0726,-0.0897,-0.1116,-0.1137,-0.0972,-0.0763,-0.0673,-0.0657,-0.0625,-0.0561,-0.0459,0,0,0,0,0,0,-0.079,-0.0982,-0.1014,-0.1084,-0.1105,-0.1116,-0.1153,-0.1143,-0.1313,-0.1538,0,0,0,-0.1612,-0.1698,-0.2093,-0.221,-0.2189,-0.2088,-0.1927,-0.1746,-0.157,-0.1399,-0.1297,-0.1372,-0.1372,-0.1143,-0.0972,-0.0854,-0.086,-0.0918,-0.0961,-0.087,-0.0737,-0.0625,-0.0598,-0.0603,-0.0571,-0.0502,-0.04,0,0,0,0,0,0,-0.0587,-0.0459,-0.0523,-0.0758,-0.0977,-0.102,-0.1089,-0.1095,-0.1116,-0.1121,-0.0214,-0.0133,0,-0.1506,-0.1591,-0.2013,-0.2114,-0.2082,-0.1975,-0.1821,-0.1655,-0.1506,-0.1351,-0.1201,-0.11,-0.1025,-0.0961,-0.0892,-0.0828,-0.0806,-0.0806,-0.079,-0.0721,-0.0641,-0.0577,-0.0555,-0.0529,-0.0481,-0.0406,-0.0326,0,0,0,0,0,0,0,-0.0139,-0.031,-0.0518,-0.0822,-0.0646,-0.0593,-0.0641,-0.0657,-0.0651,-0.0379,-0.0251,0,-0.1436,-0.1559,-0.1991,-0.2045,-0.1981,-0.1863,-0.1714,-0.1554,-0.142,-0.1297,-0.1164,-0.1046,-0.095,-0.0881,-0.0828,-0.079,-0.0769,-0.0753,-0.0721,-0.0667,-0.0609,-0.0555,-0.0502,-0.0443,-0.0379,-0.0315,-0.0246,0,0,0,0.0176,0.0214,0,0,0,-0.0625,-0.0577,-0.0507,-0.0155,-0.0021,-0.0059,-0.0149,-0.0262,-0.0198,-0.0128,0,-0.141,-0.1639,-0.2029,-0.2002,-0.1879,-0.1751,-0.1607,-0.1463,-0.134,-0.1244,-0.1132,-0.1036,-0.095,-0.0881,-0.0833,-0.079,-0.0758,-0.0721,-0.0683,-0.0635,-0.0577,-0.0507,-0.0432,-0.0358,-0.0294,-0.023,-0.016,0,0,0.008,0.0315,0.0454,-0.0256,0.0,0.0,-0.0529,-0.0427,-0.0331,-0.0107,0.0075,0.0107,0.0021,0.0059,0.0256,-0.0021,0,-0.1559,-0.1879,-0.2098,-0.1959,-0.1778,-0.1634,-0.1506,-0.1388,-0.1281,-0.1207,-0.1111,-0.1041,-0.0966,-0.0897,-0.0838,-0.0785,-0.0737,-0.0694,-0.0657,-0.0603,-0.0529,-0.0432,-0.0336,-0.0262,-0.0187,-0.0128,-0.0075,0,0,-0.0155,0.0278,0.0486,-0.0513,0,0,0.0139,-0.0107,-0.0315,-0.031,-0.0117,-0.0069,-0.0037,0.0283,0.1014,0,-0.0758,-0.1628,-0.1986,-0.2056,-0.1847,-0.1639,-0.1506,-0.141,-0.1319,-0.1223,-0.1164,-0.1095,-0.1041,-0.0977,-0.0902,-0.0828,-0.0758,-0.071,-0.0683,-0.0651,-0.0571,-0.0454,-0.0326,-0.0208,-0.0117,-0.0037,-0.0005,0.0005,-0.0384,0.0101,0.0064,0,0,0,0,0,0.0534,0.0203,-0.0144,-0.0486,-0.0464,-0.0352,-0.008,0.0331,0.095,-0.0101,-0.1217,-0.1463,-0.1815,-0.1821,-0.1623,-0.1442,-0.1351,-0.1303,-0.1239,-0.1143,-0.1057,-0.102,-0.1004,-0.0956,-0.0886,-0.0806,-0.0737,-0.071,-0.0705,-0.063,-0.0497,-0.0347,-0.0192,-0.0064,0.0037,0.0139,0.0149,0.0107,-0.0763,0.0539,0.0678,0.0133,0.032,0,0,0,0.0593,0.0384,0.0069,-0.039,-0.0619,-0.0587,-0.0187,0.0107,0.023,-0.032,-0.0924,-0.1372,-0.1527,-0.1452,-0.1292,-0.1169,-0.1148,-0.118,-0.1169,-0.1046,-0.0838,-0.0817,-0.0865,-0.0924,-0.0908,-0.0838,-0.0758,-0.0747,-0.0785,-0.0603,-0.0384,-0.0198,0.0,0.0112,0.0155,0.031,0.032,0.024,0,0.0737,0.0737,0.0368,0.0555,0.0539,0,0,0.0027,0.0176,0.0123,-0.0149,-0.0497,-0.0715,-0.0198,0.0027,-0.0005,-0.0566,-0.1078,-0.1383,-0.118,-0.0993,-0.0865,-0.0806,-0.086,-0.0988,-0.1084,-0.1025,-0.0497,-0.0464,-0.0566,-0.0924,-0.0966,-0.0924,-0.0763,-0.0678,-0.0876,-0.0539,-0.0192,0.0112,0.0427,0.0395,0.016,0.0427,0.0443,0.0358,0.0988,0.1068,0.0998,0.0785,0.0705,0.095,0.0091,-0.0005,-0.0481,0.024,0.0246,0.0069,-0.0085,-0.0876,-0.0133,0.0059,0.0224,-0.0694,-0.1335,-0.157,-0.0731,-0.0459,-0.0395,-0.0395,-0.0459,-0.0635,-0.0833,-0.1057,-0.0288,-0.0246,-0.0358,-0.0902,-0.0817,-0.0646,-0.0176,-0.0198,-0.0828,-0.0294,0.0214,0.0763,0.1303,0.0609,0.0171,0.0427,0.0475,0.0384,0.197,0.1495,0.1372,0.1212,0.102,0.0801,0.023,0.0027,-0.0523,0.0454,0.0406,0.0224,0.0422,-0.0534,0,0,0.047,-0.0913,-0.1495,-0.2093,-0.0411,-0.0166,-0.0155,-0.0176,-0.0224,-0.039,-0.0657,-0.1255,0,0,0,-0.0689,-0.0491,0.0214,0.0801,0.0374,0.0342,0.0646,0.0459,0.0721,0.1714,0,0.1169,0.0374,0.0454,0.0363,0,0.1452,0.1404,0.1319,0.1121,0.0812,0.0278,0.0064,0.0016,0,0,0,0.0021,-0.0198,0.0101,0.0529,0,-0.1313,-0.1361,-0.166,0,0,0,0,0,0,0,-0.1105,-0.0416,-0.0107,0.0069,-0.0085,0.0059,0.0577,0,0,0.0571,0.0844,0.0203,0.0384,0.1639,-0.0011,0.2045,0,0,0,0,0,0.134,0.1217,0.0993,0.0774,0.0336,0.0198,0.0662,0.0272,0.0187,0.0123,-0.0304,-0.0144,0.0208,0.071,-0.0048,-0.1068,-0.0849,-0.0539,0.0331,0.0481,0.04,0.0358,0.0331,0.0192,0.0406,-0.0251,-0.0395,-0.0053,0.031,0.055,0.0534,0.0571,0.0139,0.0219,0.0256,0.0961,0,0,0,0.0534,0.1329,0.024,0.0294,0,0,0,0,0.1127,0.0844,0.0705,0.04,0.0336,0.1068,0.0737,0.0464,0.04,0.0176,0.0139,0.0208,0.0256,-0.0101,-0.0561,-0.0587,-0.0342,0.0443,0.0582,0.0523,0.0598,0.0598,0.0176,0.0817,0.0336,0.0043,0.0101,0.0715,0.071,0.0566,0.0352,0.0315,0.0432,-0.0358,0.0731,0.0,0.0,0.0427,0.095,0.0726,0.0491,0.0513,0,0,0,0,0,0,0,0,0,0.1447,0.0929,0.055,0.0897,0.0539,0.0278,0.0182,0.0112,-0.0085,-0.0379,-0.0651,-0.1078,0.0214,0.0203,0.0246,0.0481,0.0539,-0.0037,0,0,0,0,0.094,0.0646,0.0683,0.039,0.0347,0,0,0,0,0,0.087,0.0785,0.0646,0.0443,0.0251,0,0,0,0,0,0,0,0,0,0,0,0,0.1233,0.0683,0.0304,0.016,0.0085,-0.0059,-0.0294,-0.063,-0.157,0,0,0,0,0,0,0,0,0,0,0,0,0.0812,0.04,0.0336,0,0,0,0,0,0.087,0.0737,0.0571,0.0411,0.0144,0,0,0,0,0,0,0,0,0,0,0,0,0,0,0,0,0,0,0,0,0,0,0,0,0,0,0,0,0,0,0,0,0,0,0,0,0,0,0,0,0,0.0886,0.063,0.0438,0.0352,0.0331,0,0,0,0,0,0,0,0,0,0,0,0,0,0,0,0,0,0,0,0,0,0,0,0,0,0,0,0,0,0,0,0,0,0,0,0,0,0,0,0,0,0.0854,0.0571,0.0411,0.0374,0.0315,0,0,0,0,0,0,0,0,0,0,0,0,0,0,0,0,0,0,0,0,0,0,0,0,0,0,0,0,0,0,0,0,0,0,0,0,0,0,0,0,0,0,0.0747,0.0534,0.0395,0.0176,0,0,0,0,0,0,0,0,0,0,0,0,0,0,0,0,0,0,0,0,0,0,0,0,0,0,0,0,0,0,0,0,0,0,0,0,0,0,0,0,0,0,0.0918,0.0646,0.0368,0.0283,0,0,0,0,0,0,0,0,0,0,0,0,0,0,0,0,0,0,0,0,0,0,0,0,0,0,0,0,0,0,0,0,0,0,0,0,0,0,0,0,0,0,0.0924,0.0742,0.0475,0.0443,0,0,0,0,0,0,0,0,0,0,0,0,0,0,0,0,0,0,0,0,0,0,0,0,0,0,0,0,0,0,0,0,0,0,0,0,0,0,0,0,0,0,0.0918,0.0747,0.0571,0.0545,0]}]],[[{"header":{"parameterUnit":"kt","parameterCategory":2,"dx":1,"dy":1,"la1":29.46422004699707,"la2":30.564109802246094,"lo1":-89.4342041015625,"lo2":-87.934326171875,"nx":46,"ny":34,"refTime":"2022-10-27T00:00:00:Z","depth":"12","parameterNumber":2,"parameterNumberName":"U-component_of_CURRENTS"},"data":[0,0,0,0,0,0,0,0,0,0,0,0,0,0,0,0.0833,0.1025,0.1255,0.1773,0.2232,0.2136,0.2536,0.2995,0.3065,0.2846,0.0934,-0.0502,-0.1367,-0.1869,-0.2232,-0.2547,-0.2846,-0.3198,-0.3588,-0.3972,-0.4373,-0.4746,-0.5003,-0.5061,-0.5003,-0.4949,-0.4944,-0.4933,-0.4837,-0.4586,-0.4122,0,0,0,0,0,0,0,0,0,0,0,0,0,0,0,0,0.0603,0.0753,0.0731,0.1143,0.1874,0.1773,0.1447,0.213,0.2605,0.2098,0.071,-0.0278,-0.0961,-0.1431,-0.1751,-0.1938,-0.2056,-0.2322,-0.2739,-0.3134,-0.3502,-0.3689,-0.3695,-0.3737,-0.386,-0.3951,-0.3962,-0.3951,-0.3956,-0.3914,0,0,0,0,0,0,0,0,0,0,0,0,0,0,0,0,0.0464,0.0368,0.0481,0.0384,0.0683,0.1506,0.0785,0.0523,0.1078,0.1789,0.1345,0.0486,-0.023,-0.0715,-0.1004,-0.1153,-0.1255,-0.1463,-0.181,-0.212,-0.229,-0.2376,-0.2461,-0.2589,-0.2686,-0.2707,-0.2707,-0.2728,-0.2798,-0.2926,0,0,0,0,0,0,0,0,0,0,0,0,0,0,0,0,0,0.0117,0.0075,0.024,0.0192,0.0464,0.11,0.0374,-0.0176,0.0224,0.0892,0.0657,0.0123,-0.0219,-0.0448,-0.0646,-0.0822,-0.1052,-0.1313,-0.1442,-0.1564,-0.1842,-0.2104,-0.2253,-0.2269,-0.2157,-0.2013,-0.1922,-0.189,-0.1927,0,0,0,0,0,0,0,0,0,0,0,0,0,0,0,0,0,0,-0.0294,-0.0326,-0.0139,-0.0021,0.0251,0.0683,-0.0128,-0.0817,-0.0705,-0.0486,-0.0422,-0.0336,-0.0235,-0.0224,-0.0374,-0.0673,-0.0956,-0.1046,-0.1249,-0.165,-0.1975,-0.22,-0.2216,-0.2002,-0.1789,-0.1682,-0.1564,-0.1442,0,0,0,0,0,0,0,0,0,0,0,0,0,0,0,0,0,0,0,-0.0582,-0.0619,-0.0448,-0.0251,-0.0021,0.0133,-0.0288,-0.1078,-0.1388,-0.1111,-0.0609,-0.0224,-0.0075,-0.0187,-0.0486,-0.0747,-0.086,-0.1036,-0.1335,-0.1602,-0.1805,-0.1831,-0.1698,-0.1644,-0.1741,-0.1826,-0.1799,0,0,0,0,0,0,0,0,0,0,0,0,0,0,0,0,0,0,0,-0.0689,-0.0678,-0.0678,-0.063,-0.0518,-0.032,-0.0182,-0.0427,-0.0598,-0.0491,-0.0315,-0.0198,-0.0203,-0.0352,-0.0603,-0.0796,-0.0854,-0.0881,-0.0993,-0.1223,-0.1463,-0.1506,-0.1474,-0.1575,-0.1773,-0.1981,-0.2104,0,0,0,0,0,0,0,0,0,0,0,0,0,0,0,0,0,0,0,0,-0.0646,-0.0662,-0.0619,-0.0587,-0.0555,-0.0518,-0.0422,-0.0326,-0.0518,-0.0763,-0.086,-0.0913,-0.1004,-0.1132,-0.1159,-0.1036,-0.0822,-0.0737,-0.0934,-0.1143,-0.1196,-0.1244,-0.1329,-0.142,-0.1548,-0.1682,0,0,0,0,0,0,0,0,0,0,0,0,0,0,0,0,0,0,0,0,-0.0561,-0.0577,-0.0534,-0.0497,-0.0464,-0.0432,-0.0454,-0.0635,-0.094,-0.1308,-0.1586,-0.1692,-0.1735,-0.1698,-0.1548,-0.1233,-0.0822,-0.0614,-0.079,-0.0977,-0.0998,-0.1057,-0.1159,-0.1228,-0.1233,-0.1212,0,0,0,0,0,0,0,0,0,0,0,0,0,0,0,0,0,0,0,0,-0.0475,-0.0411,-0.0363,-0.032,-0.0304,-0.032,-0.0363,-0.0507,-0.0892,-0.1618,-0.2162,-0.228,-0.228,-0.2114,-0.1799,-0.134,-0.0838,-0.0651,-0.0763,-0.0838,-0.0849,-0.0961,-0.1095,-0.1159,-0.1164,-0.1127,0,0,0,0,0,0,0,0,0,0,0,0,0,0,0,0,0,0,0,0,0,-0.0144,-0.0155,-0.016,-0.0176,-0.0208,-0.024,-0.0315,-0.0625,-0.1367,-0.213,-0.2429,-0.2435,-0.2237,-0.1831,-0.1335,-0.0902,-0.0758,-0.0731,-0.0651,-0.0699,-0.086,-0.0988,-0.1046,-0.1052,-0.1036,0,0,0,0,0,0,0,0,0,0,0,0,0,0,0,0,0,0,0,0,0,0.0021,0.0,-0.0027,-0.0053,-0.0091,-0.0133,-0.0176,-0.0283,-0.0657,-0.1399,-0.2034,-0.22,-0.205,-0.1703,-0.1265,-0.0934,-0.0705,-0.0502,-0.0481,-0.0614,-0.0747,-0.0844,-0.0908,-0.095,-0.0988,0,0,0,0,0,0,0,0,0,0,0,0,0,0,0,0,0,0,0,0,0,0.0117,0.0112,0.0096,0.0064,0.0016,-0.0037,-0.0085,-0.0133,-0.0235,-0.0523,-0.0961,-0.1271,-0.1303,-0.1105,-0.0796,-0.0523,-0.0374,-0.0363,-0.0443,-0.0534,-0.0603,-0.0683,-0.0785,-0.0881,-0.0966,0,0,0,0,0,0,0,0,0,0,0,0,0,0,0,0,0,0,0,0,0,0.0208,0.0224,0.0214,0.0182,0.0123,0.0059,-0.0011,-0.0059,-0.0101,-0.0166,-0.0278,-0.0395,-0.0438,-0.0384,-0.0294,-0.0246,-0.0267,-0.0331,-0.04,-0.0459,-0.0518,-0.0619,-0.0747,-0.0865,-0.0961,0,0,0,0,0,0,0,0,0,0,0,0,0,0,0,0,0,0,0,0,0,0.0326,0.0368,0.0363,0.032,0.0251,0.0171,0.0091,0.0021,-0.0032,-0.0069,-0.0096,-0.0123,-0.0144,-0.0155,-0.0171,-0.0208,-0.0272,-0.0342,-0.0411,-0.0486,-0.0582,-0.071,-0.0833,-0.0934,-0.1014,0,0,0,0,0,0,0,0,0,0,0,0,0,0,0,0,0,0,0,0,0,0.0507,0.0566,0.0545,0.0475,0.039,0.0299,0.0214,0.0128,0.0059,0.0,-0.0037,-0.0064,-0.0096,-0.0128,-0.0182,-0.0251,-0.0336,-0.0432,-0.0529,-0.0651,-0.0785,-0.0913,-0.1014,-0.11,-0.1185,0,0,0,0,0,0,0,0,0,0,0,0,0,0,0,0,0,0,0,0,0.0619,0.0833,0.0833,0.0753,0.0641,0.0534,0.0427,0.0326,0.0224,0.0133,0.0053,-0.0016,-0.0075,-0.0133,-0.0208,-0.0294,-0.0384,-0.0475,-0.0571,-0.0683,-0.0822,-0.0972,-0.1111,-0.1233,-0.1335,-0.1404,0,0,0,0,0,0,0,0,0,0,0,0,0,0,0,0,0,0,0,0,0.1388,0.1345,0.1153,0.0961,0.079,0.0641,0.0507,0.0368,0.023,0.0107,0.0,-0.0085,-0.0166,-0.0251,-0.0347,-0.0427,-0.0491,-0.055,-0.063,-0.0747,-0.0886,-0.103,-0.118,-0.1319,-0.1447,-0.1532,0,0,0,0,0,0,0,0,0,0,0,0,0,0,0,0,0,0,0,0,0.1869,0.1714,0.1404,0.1121,0.0897,0.0721,0.0571,0.0411,0.023,0.0037,-0.0117,-0.0235,-0.0315,-0.0368,-0.0411,-0.0443,-0.0464,-0.0513,-0.0609,-0.0726,-0.086,-0.0993,-0.1127,-0.1281,-0.1442,-0.1564,0,0,0,0,0,0,0,0,0,0,0,0,0,0,0,0,0,0,0,0.2349,0.2152,0.1927,0.1548,0.1207,0.0934,0.0737,0.0593,0.0464,0.0251,-0.0032,-0.0283,-0.0422,-0.0454,-0.0448,-0.0438,-0.0438,-0.0427,-0.0443,-0.055,-0.0705,-0.0892,-0.1068,-0.1164,-0.1249,-0.1377,-0.1506,0,0,0,0,0,0,0,0,0,0,0,0,0,0,0,0,0,0,0,0.2296,0.2168,0.1938,0.1575,0.1212,0.0908,0.0667,0.0507,0.0427,0.024,-0.0107,-0.0443,-0.0582,-0.0518,-0.0486,-0.0523,-0.0454,-0.0267,-0.023,-0.0384,-0.0646,-0.1009,-0.1281,-0.1335,-0.1324,-0.1351,-0.141,0,0,0,0,0,0,0,0,0,0,0,0,0,0,0,0,0,0,0,0,0.205,0.173,0.1415,0.1127,0.086,0.0582,0.0299,0,0.0,-0.024,-0.0502,-0.0566,-0.0331,-0.0219,-0.0112,0.0091,0.008,-0.0112,-0.0053,-0.0203,0,-0.1255,0,-0.149,-0.1377,-0.1356,0,0,0,0,0,0,0,0,0,0,0,0,0,0,0,0,0,0,0,0,0,0.1367,0.1228,0.1084,0.0924,0,0,0,0,0,0,0,0,0,-0.0128,0.0913,0,0,0,0,0,0,0,0,0,0,0,0,0,0,0,0,0,0,0,0,0,0,0,0,0,0,0,0,0,0,0,0,0,0,0,0,0,0,0,0,0,0,0,0,0,0,0,0,0,0,0,0,0,0,0,0,0,0,0,0,0,0,0,0,0,0,0,0,0,0,0,0,0,0,0,0,0,0,0,0,0,0,0,0,0,0,0,0,0,0,0,0,0,0,0,0,0,0,0,0,0,0,0,0,0,0,0,0,0,0,0,0,0,0,0,0,0,0,0,0,0,0,0,0,0,0,0,0,0,0,0,0,0,0,0,0,0,0,0,0,0,0,0,0,0,0,0,0,0,0,0,0,0,0,0,0,0,0,0,0,0,0,0,0,0,0,0,0,0,0,0,0,0,0,0,0,0,0,0,0,0,0,0,0,0,0,0,0,0,0,0,0,0,0,0,0,0,0,0,0,0,0,0,0,0,0,0,0,0,0,0,0,0,0,0,0,0,0,0,0,0,0,0,0,0,0,0,0,0,0,0,0,0,0,0,0,0,0,0,0,0,0,0,0,0,0,0,0,0,0,0,0,0,0,0,0,0,0,0,0,0,0,0,0,0,0,0,0,0,0,0,0,0,0,0,0,0,0,0,0,0,0,0,0,0,0,0,0,0,0,0,0,0,0,0,0,0,0,0,0,0,0,0,0,0,0,0,0,0,0,0,0,0,0,0,0,0,0,0,0,0,0,0,0,0,0,0,0,0,0,0,0,0,0,0,0,0,0,0,0,0,0,0,0,0,0,0,0,0,0,0,0,0,0,0,0,0,0,0,0,0,0,0,0,0,0,0,0,0,0,0,0,0,0,0,0,0,0,0,0,0,0,0,0,0,0,0,0,0,0,0,0,0,0,0,0,0,0,0,0,0,0,0,0,0,0,0,0,0,0,0,0,0,0,0,0,0,0,0,0,0,0,0,0,0,0,0,0,0,0,0,0,0,0,0,0,0,0,0,0,0,0,0,0,0,0,0,0,0,0,0,0,0,0,0,0,0,0,0,0,0,0,0,0,0,0,0,0,0,0,0,0,0,0,0,0,0,0,0,0,0,0,0,0,0,0,0,0,0,0,0,0,0,0,0,0,0,0,0,0,0,0,0,0,0,0,0,0,0,0,0,0,0,0,0,0]}],[{"header":{"parameterUnit":"kt","parameterCategory":2,"dx":1,"dy":1,"la1":29.46422004699707,"la2":30.564109802246094,"lo1":-89.4342041015625,"lo2":-87.934326171875,"nx":46,"ny":34,"refTime":"2022-10-27T00:00:00:Z","depth":"12","parameterNumber":3,"parameterNumberName":"V-component_of_CURRENTS"},"data":[0,0,0,0,0,0,0,0,0,0,0,0,0,0,0,-0.2301,-0.2146,-0.2082,-0.2381,-0.3625,-0.3097,-0.205,-0.1361,-0.0945,-0.1105,-0.1714,-0.1965,-0.2232,-0.2563,-0.3001,-0.3657,-0.3994,-0.378,-0.3342,-0.3059,-0.2894,-0.2856,-0.292,-0.2878,-0.2728,-0.2557,-0.2408,-0.2248,-0.1991,-0.1682,-0.1228,0,0,0,0,0,0,0,0,0,0,0,0,0,0,0,0,-0.213,-0.1917,-0.1666,-0.2034,-0.3556,-0.3849,-0.2451,-0.1324,-0.0902,-0.1111,-0.1452,-0.1826,-0.2205,-0.2552,-0.315,-0.3823,-0.3999,-0.3684,-0.3422,-0.338,-0.3396,-0.3374,-0.3166,-0.2835,-0.2483,-0.212,-0.1767,-0.1484,-0.126,-0.1084,0,0,0,0,0,0,0,0,0,0,0,0,0,0,0,0,-0.2371,-0.2088,-0.1842,-0.1543,-0.1986,-0.3353,-0.3908,-0.2782,-0.1612,-0.1062,-0.0886,-0.1078,-0.1495,-0.1847,-0.2269,-0.2792,-0.3198,-0.3326,-0.3326,-0.3417,-0.3268,-0.3091,-0.2942,-0.2776,-0.2541,-0.2205,-0.1783,-0.141,-0.1089,-0.0838,0,0,0,0,0,0,0,0,0,0,0,0,0,0,0,0,0,-0.229,-0.2082,-0.2007,-0.1692,-0.1879,-0.2915,-0.3807,-0.2931,-0.1975,-0.1276,-0.0892,-0.1046,-0.1324,-0.1671,-0.1975,-0.2274,-0.2595,-0.2894,-0.3139,-0.2819,-0.2515,-0.2451,-0.2435,-0.2285,-0.204,-0.1687,-0.1372,-0.102,-0.0641,0,0,0,0,0,0,0,0,0,0,0,0,0,0,0,0,0,0,-0.2168,-0.2232,-0.2205,-0.1965,-0.1959,-0.2589,-0.3262,-0.2995,-0.2088,-0.1436,-0.1281,-0.1383,-0.1495,-0.1468,-0.1532,-0.1799,-0.2216,-0.2675,-0.2563,-0.2296,-0.2333,-0.2424,-0.2322,-0.2024,-0.158,-0.126,-0.0908,-0.0497,0,0,0,0,0,0,0,0,0,0,0,0,0,0,0,0,0,0,0,-0.2157,-0.2376,-0.2387,-0.2387,-0.2306,-0.268,-0.3097,-0.291,-0.2376,-0.1959,-0.1927,-0.1591,-0.1143,-0.0918,-0.1014,-0.1436,-0.2002,-0.221,-0.2114,-0.2232,-0.2365,-0.2301,-0.1965,-0.1495,-0.1175,-0.095,-0.0646,0,0,0,0,0,0,0,0,0,0,0,0,0,0,0,0,0,0,0,-0.2072,-0.2264,-0.2472,-0.2654,-0.2744,-0.2734,-0.2819,-0.2851,-0.2734,-0.2467,-0.2467,-0.1815,-0.0966,-0.0448,-0.0347,-0.0689,-0.1297,-0.1783,-0.1986,-0.213,-0.2258,-0.2173,-0.1831,-0.1287,-0.0918,-0.0801,-0.0657,0,0,0,0,0,0,0,0,0,0,0,0,0,0,0,0,0,0,0,0,-0.2136,-0.2408,-0.2584,-0.2707,-0.267,-0.2568,-0.252,-0.2638,-0.2573,-0.2755,-0.2029,-0.0918,-0.0149,0.0096,-0.0144,-0.0758,-0.1426,-0.1831,-0.1959,-0.2082,-0.1991,-0.1607,-0.1057,-0.0705,-0.0582,-0.0486,0,0,0,0,0,0,0,0,0,0,0,0,0,0,0,0,0,0,0,0,-0.205,-0.2322,-0.2509,-0.2579,-0.252,-0.2365,-0.22,-0.2264,-0.2525,-0.2712,-0.1981,-0.0892,-0.0075,0.0224,0.0059,-0.0491,-0.1169,-0.1575,-0.1714,-0.1847,-0.1783,-0.1308,-0.0881,-0.063,-0.0486,-0.0374,0,0,0,0,0,0,0,0,0,0,0,0,0,0,0,0,0,0,0,0,-0.2034,-0.2237,-0.2445,-0.2477,-0.2403,-0.2237,-0.2024,-0.197,-0.2306,-0.2563,-0.1954,-0.1004,-0.0267,0.0032,-0.0048,-0.0459,-0.0972,-0.1271,-0.1484,-0.1602,-0.1442,-0.103,-0.0774,-0.063,-0.0518,-0.0416,0,0,0,0,0,0,0,0,0,0,0,0,0,0,0,0,0,0,0,0,0,-0.2125,-0.2355,-0.2376,-0.2285,-0.2114,-0.1906,-0.1746,-0.1847,-0.2237,-0.1997,-0.1281,-0.0625,-0.0315,-0.0294,-0.0529,-0.0833,-0.1132,-0.1329,-0.1313,-0.1041,-0.0806,-0.0705,-0.063,-0.0555,-0.0459,0,0,0,0,0,0,0,0,0,0,0,0,0,0,0,0,0,0,0,0,0,-0.1986,-0.2237,-0.2253,-0.2168,-0.2007,-0.1815,-0.1623,-0.1516,-0.1692,-0.1799,-0.1554,-0.1036,-0.0731,-0.0625,-0.0721,-0.0892,-0.1111,-0.1127,-0.0961,-0.0758,-0.0667,-0.0646,-0.0619,-0.0555,-0.0454,0,0,0,0,0,0,0,0,0,0,0,0,0,0,0,0,0,0,0,0,0,-0.1874,-0.2125,-0.2141,-0.2056,-0.1906,-0.173,-0.1559,-0.1388,-0.1287,-0.1367,-0.1367,-0.1137,-0.0966,-0.0849,-0.0854,-0.0913,-0.095,-0.0865,-0.0726,-0.0619,-0.0593,-0.0598,-0.0571,-0.0497,-0.04,0,0,0,0,0,0,0,0,0,0,0,0,0,0,0,0,0,0,0,0,0,-0.1815,-0.204,-0.2034,-0.1949,-0.1799,-0.1639,-0.149,-0.1335,-0.1191,-0.1089,-0.1014,-0.095,-0.0886,-0.0822,-0.0801,-0.0801,-0.078,-0.0715,-0.0635,-0.0571,-0.055,-0.0523,-0.0475,-0.04,-0.032,0,0,0,0,0,0,0,0,0,0,0,0,0,0,0,0,0,0,0,0,0,-0.1815,-0.1981,-0.1938,-0.1837,-0.1692,-0.1543,-0.141,-0.1287,-0.1153,-0.1041,-0.0945,-0.0876,-0.0817,-0.078,-0.0763,-0.0747,-0.0715,-0.0662,-0.0603,-0.055,-0.0497,-0.0438,-0.0374,-0.031,-0.024,0,0,0,0,0,0,0,0,0,0,0,0,0,0,0,0,0,0,0,0,0,-0.1874,-0.1938,-0.1842,-0.1725,-0.1586,-0.1447,-0.1329,-0.1233,-0.1127,-0.103,-0.0945,-0.0876,-0.0828,-0.0785,-0.0753,-0.0715,-0.0678,-0.063,-0.0571,-0.0502,-0.0422,-0.0352,-0.0283,-0.0219,-0.0149,0,0,0,0,0,0,0,0,0,0,0,0,0,0,0,0,0,0,0,0,-0.1719,-0.1959,-0.1895,-0.1735,-0.1607,-0.1484,-0.1367,-0.1271,-0.1196,-0.11,-0.103,-0.0956,-0.0886,-0.0833,-0.078,-0.0726,-0.0683,-0.0651,-0.0598,-0.0518,-0.0422,-0.032,-0.0246,-0.0171,-0.0112,-0.0059,0,0,0,0,0,0,0,0,0,0,0,0,0,0,0,0,0,0,0,0,-0.1719,-0.1917,-0.1783,-0.1596,-0.1474,-0.1383,-0.1292,-0.1201,-0.1143,-0.1073,-0.102,-0.0956,-0.0881,-0.0812,-0.0742,-0.0694,-0.0667,-0.0635,-0.0555,-0.0438,-0.031,-0.0192,-0.0101,-0.0021,0.0016,0.0021,0,0,0,0,0,0,0,0,0,0,0,0,0,0,0,0,0,0,0,0,-0.1543,-0.1692,-0.1559,-0.1399,-0.1313,-0.1271,-0.1201,-0.1105,-0.102,-0.0982,-0.0966,-0.0924,-0.0854,-0.0774,-0.071,-0.0694,-0.0683,-0.0609,-0.0481,-0.032,-0.0171,-0.0043,0.0059,0.016,0.0166,0.0123,0,0,0,0,0,0,0,0,0,0,0,0,0,0,0,0,0,0,0,-0.1201,-0.1292,-0.1329,-0.1217,-0.1116,-0.1105,-0.1132,-0.1116,-0.0988,-0.079,-0.0769,-0.0817,-0.087,-0.0849,-0.0796,-0.0726,-0.0721,-0.0737,-0.0561,-0.0352,-0.0166,0.0037,0.0149,0.0187,0.0331,0.0336,0.0256,0,0,0,0,0,0,0,0,0,0,0,0,0,0,0,0,0,0,0,-0.1201,-0.0966,-0.086,-0.078,-0.0742,-0.0801,-0.0913,-0.0982,-0.0897,-0.0438,-0.0411,-0.0507,-0.0812,-0.0801,-0.0758,-0.0657,-0.0523,-0.0614,-0.0326,-0.0059,0.0219,0.0491,0.0454,0.0251,0.0454,0.0454,0.0374,0,0,0,0,0,0,0,0,0,0,0,0,0,0,0,0,0,0,0,0,-0.0603,-0.0347,-0.0304,-0.031,-0.0379,-0.0555,-0.0763,0,-0.0246,-0.0198,-0.0283,-0.078,-0.0577,-0.0171,0.0251,0.0219,-0.0182,0.0283,0.0534,0.0838,0,0.0619,0,0.0432,0.0464,0.0384,0,0,0,0,0,0,0,0,0,0,0,0,0,0,0,0,0,0,0,0,0,-0.0123,-0.0107,-0.0128,-0.0187,0,0,0,0,0,0,0,0,0,0.0982,0.0683,0,0,0,0,0,0,0,0,0,0,0,0,0,0,0,0,0,0,0,0,0,0,0,0,0,0,0,0,0,0,0,0,0,0,0,0,0,0,0,0,0,0,0,0,0,0,0,0,0,0,0,0,0,0,0,0,0,0,0,0,0,0,0,0,0,0,0,0,0,0,0,0,0,0,0,0,0,0,0,0,0,0,0,0,0,0,0,0,0,0,0,0,0,0,0,0,0,0,0,0,0,0,0,0,0,0,0,0,0,0,0,0,0,0,0,0,0,0,0,0,0,0,0,0,0,0,0,0,0,0,0,0,0,0,0,0,0,0,0,0,0,0,0,0,0,0,0,0,0,0,0,0,0,0,0,0,0,0,0,0,0,0,0,0,0,0,0,0,0,0,0,0,0,0,0,0,0,0,0,0,0,0,0,0,0,0,0,0,0,0,0,0,0,0,0,0,0,0,0,0,0,0,0,0,0,0,0,0,0,0,0,0,0,0,0,0,0,0,0,0,0,0,0,0,0,0,0,0,0,0,0,0,0,0,0,0,0,0,0,0,0,0,0,0,0,0,0,0,0,0,0,0,0,0,0,0,0,0,0,0,0,0,0,0,0,0,0,0,0,0,0,0,0,0,0,0,0,0,0,0,0,0,0,0,0,0,0,0,0,0,0,0,0,0,0,0,0,0,0,0,0,0,0,0,0,0,0,0,0,0,0,0,0,0,0,0,0,0,0,0,0,0,0,0,0,0,0,0,0,0,0,0,0,0,0,0,0,0,0,0,0,0,0,0,0,0,0,0,0,0,0,0,0,0,0,0,0,0,0,0,0,0,0,0,0,0,0,0,0,0,0,0,0,0,0,0,0,0,0,0,0,0,0,0,0,0,0,0,0,0,0,0,0,0,0,0,0,0,0,0,0,0,0,0,0,0,0,0,0,0,0,0,0,0,0,0,0,0,0,0,0,0,0,0,0,0,0,0,0,0,0,0,0,0,0,0,0,0,0,0,0,0,0,0,0,0,0,0,0,0,0,0,0,0,0,0,0,0,0,0,0,0,0,0,0,0,0,0,0,0,0,0,0,0,0,0,0,0,0,0,0,0,0,0,0,0,0,0,0,0,0,0,0,0,0,0,0,0,0,0,0,0,0,0,0,0,0,0,0,0,0,0,0,0,0,0]}]],[[{"header":{"parameterUnit":"kt","parameterCategory":2,"dx":1,"dy":1,"la1":29.46422004699707,"la2":30.564109802246094,"lo1":-89.4342041015625,"lo2":-87.934326171875,"nx":46,"ny":34,"refTime":"2022-10-27T00:00:00:Z","depth":"15","parameterNumber":2,"parameterNumberName":"U-component_of_CURRENTS"},"data":[0,0,0,0,0,0,0,0,0,0,0,0,0,0,0,0,0,0.0817,0.1228,0.1799,0.1986,0.2435,0.3091,0.3401,0.3476,0.3209,0.2472,0.0817,-0.0566,-0.158,-0.2306,-0.2792,-0.3187,-0.3577,-0.3967,-0.4357,-0.4709,-0.4917,-0.4928,-0.4827,-0.4741,-0.473,-0.4757,-0.4704,-0.4479,-0.4063,0,0,0,0,0,0,0,0,0,0,0,0,0,0,0,0,0,0,0.0497,0.0566,0.1255,0.1821,0.1906,0.2189,0.2926,0.3454,0.3081,0.228,0.1062,0.0,-0.0833,-0.1511,-0.1938,-0.2301,-0.2728,-0.3123,-0.3492,-0.3679,-0.3679,-0.3721,-0.3817,-0.3855,-0.3785,-0.3716,-0.3668,-0.3636,0,0,0,0,0,0,0,0,0,0,0,0,0,0,0,0,0,0,0,0.0251,0.0219,0.0929,0.1564,0.1468,0.1495,0.2451,0.315,0.2958,0.2077,0.1164,0.0358,-0.0342,-0.0908,-0.1356,-0.1767,-0.2104,-0.2285,-0.2365,-0.2451,-0.2573,-0.267,-0.2691,-0.268,-0.2686,-0.2718,-0.2776,0,0,0,0,0,0,0,0,0,0,0,0,0,0,0,0,0,0,0,0,0.0069,0.0037,0.079,0.1388,0.1319,0.0993,0.1933,0.267,0.2899,0.2056,0.1089,0.0299,-0.0294,-0.0796,-0.1196,-0.1415,-0.157,-0.1837,-0.2093,-0.2242,-0.2258,-0.2152,-0.2002,-0.1911,-0.1874,-0.1906,0,0,0,0,0,0,0,0,0,0,0,0,0,0,0,0,0,0,0,0,0,-0.0027,-0.0059,0.0678,0.1137,0.0833,0.0486,0.1185,0.1436,0.1239,0.0977,0.0689,0.0272,-0.024,-0.0715,-0.0998,-0.126,-0.1644,-0.1959,-0.2178,-0.2205,-0.1991,-0.1778,-0.1676,-0.1554,-0.1431,0,0,0,0,0,0,0,0,0,0,0,0,0,0,0,0,0,0,0,0,0,-0.0304,-0.0117,-0.0117,0.0203,0.0742,0.0096,-0.032,-0.0251,-0.0128,0.0272,0.047,0.0288,-0.008,-0.0502,-0.0801,-0.1041,-0.1329,-0.1586,-0.1789,-0.1821,-0.1687,-0.1634,-0.1725,-0.1815,-0.1789,0,0,0,0,0,0,0,0,0,0,0,0,0,0,0,0,0,0,0,0,0,-0.0582,-0.0416,-0.0267,-0.0198,-0.0048,-0.0037,-0.0326,-0.0374,-0.0251,-0.0096,-0.0043,-0.0117,-0.0304,-0.0577,-0.0785,-0.087,-0.0982,-0.1207,-0.1447,-0.1495,-0.1468,-0.1559,-0.1757,-0.1965,-0.2088,0,0,0,0,0,0,0,0,0,0,0,0,0,0,0,0,0,0,0,0,0,0,-0.0534,-0.0513,-0.0475,-0.0438,-0.0416,-0.0304,-0.0491,-0.0747,-0.0838,-0.0854,-0.0796,-0.0812,-0.0956,-0.0972,-0.0801,-0.0726,-0.0924,-0.1132,-0.1185,-0.1233,-0.1313,-0.1399,-0.1527,-0.166,0,0,0,0,0,0,0,0,0,0,0,0,0,0,0,0,0,0,0,0,0,0,-0.0459,-0.0448,-0.0443,-0.0422,-0.0448,-0.0625,-0.0918,-0.1271,-0.1516,-0.1538,-0.1458,-0.1399,-0.1351,-0.1153,-0.0796,-0.0603,-0.078,-0.0966,-0.0988,-0.1041,-0.1143,-0.1207,-0.1217,-0.1201,0,0,0,0,0,0,0,0,0,0,0,0,0,0,0,0,0,0,0,0,0,0,-0.0299,-0.0267,-0.0278,-0.0299,-0.0347,-0.0486,-0.086,-0.1575,-0.2093,-0.2162,-0.2098,-0.1938,-0.1709,-0.1303,-0.0822,-0.0641,-0.0758,-0.0828,-0.0833,-0.0945,-0.1073,-0.1143,-0.1148,-0.1111,0,0,0,0,0,0,0,0,0,0,0,0,0,0,0,0,0,0,0,0,0,0,-0.0112,-0.0117,-0.0155,-0.0192,-0.0224,-0.0299,-0.0603,-0.1324,-0.2061,-0.2365,-0.2371,-0.2178,-0.1799,-0.1319,-0.0886,-0.0747,-0.0721,-0.0635,-0.0683,-0.0844,-0.0972,-0.103,-0.1041,-0.102,0,0,0,0,0,0,0,0,0,0,0,0,0,0,0,0,0,0,0,0,0,0,0.0037,0.0005,-0.0032,-0.0075,-0.0117,-0.0166,-0.0267,-0.0635,-0.1361,-0.1986,-0.2162,-0.2024,-0.1682,-0.1249,-0.0918,-0.0689,-0.0486,-0.0464,-0.0598,-0.0731,-0.0828,-0.0892,-0.094,-0.0977,0,0,0,0,0,0,0,0,0,0,0,0,0,0,0,0,0,0,0,0,0,0,0.0139,0.0112,0.0075,0.0027,-0.0027,-0.0075,-0.0123,-0.0219,-0.0507,-0.094,-0.1244,-0.1281,-0.1084,-0.078,-0.0507,-0.0358,-0.0347,-0.0432,-0.0518,-0.0593,-0.0673,-0.0769,-0.087,-0.095,0,0,0,0,0,0,0,0,0,0,0,0,0,0,0,0,0,0,0,0,0,0,0.024,0.0224,0.0192,0.0133,0.0069,0.0,-0.0048,-0.0091,-0.0155,-0.0262,-0.0379,-0.0416,-0.0363,-0.0278,-0.023,-0.0256,-0.032,-0.039,-0.0448,-0.0507,-0.0603,-0.0731,-0.0854,-0.0945,0,0,0,0,0,0,0,0,0,0,0,0,0,0,0,0,0,0,0,0,0,0,0.0368,0.0368,0.0326,0.0262,0.0182,0.0101,0.0032,-0.0021,-0.0053,-0.0085,-0.0112,-0.0128,-0.0144,-0.016,-0.0198,-0.0262,-0.0331,-0.04,-0.047,-0.0571,-0.0694,-0.0812,-0.0913,-0.0998,0,0,0,0,0,0,0,0,0,0,0,0,0,0,0,0,0,0,0,0,0,0,0.055,0.0539,0.0475,0.0395,0.031,0.0219,0.0139,0.0069,0.0016,-0.0027,-0.0053,-0.008,-0.0117,-0.0166,-0.024,-0.0326,-0.0416,-0.0518,-0.0635,-0.0769,-0.0892,-0.0988,-0.1078,-0.1159,0,0,0,0,0,0,0,0,0,0,0,0,0,0,0,0,0,0,0,0,0,0,0.079,0.0737,0.0635,0.0529,0.0432,0.0331,0.0235,0.0144,0.0064,-0.0005,-0.0064,-0.0123,-0.0192,-0.0278,-0.0368,-0.0459,-0.055,-0.0662,-0.0796,-0.094,-0.1078,-0.1196,-0.1297,-0.1367,0,0,0,0,0,0,0,0,0,0,0,0,0,0,0,0,0,0,0,0,0,0.1217,0.1073,0.0934,0.078,0.0635,0.0507,0.0379,0.0246,0.0123,0.0016,-0.0069,-0.0149,-0.0235,-0.032,-0.0406,-0.047,-0.0529,-0.0609,-0.0715,-0.0849,-0.0988,-0.1132,-0.1271,-0.1399,-0.1484,0,0,0,0,0,0,0,0,0,0,0,0,0,0,0,0,0,0,0,0,0,0.1543,0.1271,0.1068,0.0876,0.071,0.0571,0.0427,0.0251,0.0064,-0.0091,-0.0203,-0.0283,-0.0342,-0.0384,-0.0422,-0.0443,-0.0486,-0.0571,-0.0683,-0.0812,-0.0945,-0.1073,-0.1212,-0.1361,-0.1468,0,0,0,0,0,0,0,0,0,0,0,0,0,0,0,0,0,0,0,0,0,0,0.1399,0.1111,0.0886,0.0715,0.0593,0.0475,0.0278,0.0005,-0.023,-0.0363,-0.04,-0.0411,-0.0416,-0.0416,-0.0379,-0.0379,-0.0475,-0.063,-0.0812,-0.0977,-0.1068,-0.1143,-0.1265,-0.1388,0,0,0,0,0,0,0,0,0,0,0,0,0,0,0,0,0,0,0,0,0,0,0,0.1132,0.0865,0,0,0,0,0,0,-0.0513,-0.0416,-0.0374,-0.0368,-0.0096,0.0219,0.0198,-0.0075,-0.0459,0,0,0,0,0,0,0,0,0,0,0,0,0,0,0,0,0,0,0,0,0,0,0,0,0,0,0,0,0,0,0,0,0,0,0,0,0,0,0,0,0,0.0715,0.0641,0,0,0,0,0,0,0,0,0,0,0,0,0,0,0,0,0,0,0,0,0,0,0,0,0,0,0,0,0,0,0,0,0,0,0,0,0,0,0,0,0,0,0,0,0,0,0,0,0,0,0,0,0,0,0,0,0,0,0,0,0,0,0,0,0,0,0,0,0,0,0,0,0,0,0,0,0,0,0,0,0,0,0,0,0,0,0,0,0,0,0,0,0,0,0,0,0,0,0,0,0,0,0,0,0,0,0,0,0,0,0,0,0,0,0,0,0,0,0,0,0,0,0,0,0,0,0,0,0,0,0,0,0,0,0,0,0,0,0,0,0,0,0,0,0,0,0,0,0,0,0,0,0,0,0,0,0,0,0,0,0,0,0,0,0,0,0,0,0,0,0,0,0,0,0,0,0,0,0,0,0,0,0,0,0,0,0,0,0,0,0,0,0,0,0,0,0,0,0,0,0,0,0,0,0,0,0,0,0,0,0,0,0,0,0,0,0,0,0,0,0,0,0,0,0,0,0,0,0,0,0,0,0,0,0,0,0,0,0,0,0,0,0,0,0,0,0,0,0,0,0,0,0,0,0,0,0,0,0,0,0,0,0,0,0,0,0,0,0,0,0,0,0,0,0,0,0,0,0,0,0,0,0,0,0,0,0,0,0,0,0,0,0,0,0,0,0,0,0,0,0,0,0,0,0,0,0,0,0,0,0,0,0,0,0,0,0,0,0,0,0,0,0,0,0,0,0,0,0,0,0,0,0,0,0,0,0,0,0,0,0,0,0,0,0,0,0,0,0,0,0,0,0,0,0,0,0,0,0,0,0,0,0,0,0,0,0,0,0,0,0,0,0,0,0,0,0,0,0,0,0,0,0,0,0,0,0,0,0,0,0,0,0,0,0,0,0,0,0,0,0,0,0,0,0,0,0,0,0,0,0,0,0,0,0,0,0,0,0,0,0,0,0,0,0,0,0,0,0,0,0,0,0,0,0,0,0,0,0,0,0,0,0,0,0,0,0,0,0,0,0,0,0,0,0,0,0,0,0,0,0,0,0,0,0,0,0,0,0,0,0,0,0,0,0,0,0,0,0,0,0,0,0,0,0,0,0,0,0,0,0,0,0,0,0,0,0,0,0,0,0,0,0,0,0,0,0,0,0,0,0,0,0,0,0,0,0,0,0,0,0,0,0,0,0,0,0,0,0,0,0,0,0,0,0,0,0,0,0,0,0,0,0,0,0,0,0,0,0,0,0,0,0,0,0,0,0,0,0,0,0]}],[{"header":{"parameterUnit":"kt","parameterCategory":2,"dx":1,"dy":1,"la1":29.46422004699707,"la2":30.564109802246094,"lo1":-89.4342041015625,"lo2":-87.934326171875,"nx":46,"ny":34,"refTime":"2022-10-27T00:00:00:Z","depth":"15","parameterNumber":3,"parameterNumberName":"V-component_of_CURRENTS"},"data":[0,0,0,0,0,0,0,0,0,0,0,0,0,0,0,0,0,-0.1025,-0.0929,-0.1687,-0.2872,-0.2178,-0.0881,-0.0166,0.0021,-0.008,-0.0352,-0.0769,-0.1271,-0.1837,-0.2766,-0.355,-0.3641,-0.3316,-0.3049,-0.2878,-0.2814,-0.2808,-0.2718,-0.2525,-0.2322,-0.2178,-0.2056,-0.1842,-0.1527,-0.1116,0,0,0,0,0,0,0,0,0,0,0,0,0,0,0,0,0,0,-0.0998,-0.0747,-0.1692,-0.3342,-0.3145,-0.1255,-0.032,-0.0032,0.0032,-0.0187,-0.0646,-0.1185,-0.197,-0.2931,-0.3518,-0.3572,-0.339,-0.3364,-0.3385,-0.3369,-0.3161,-0.2824,-0.2445,-0.2002,-0.1564,-0.1276,-0.102,-0.0833,0,0,0,0,0,0,0,0,0,0,0,0,0,0,0,0,0,0,0,-0.1004,-0.0689,-0.1442,-0.307,-0.378,-0.1746,-0.0539,0.0,0.031,0.0101,-0.0368,-0.0988,-0.1778,-0.252,-0.3049,-0.3182,-0.3374,-0.3251,-0.3081,-0.2936,-0.2771,-0.2536,-0.22,-0.1778,-0.1393,-0.1041,-0.0731,0,0,0,0,0,0,0,0,0,0,0,0,0,0,0,0,0,0,0,0,-0.103,-0.0571,-0.1159,-0.275,-0.3663,-0.1922,-0.0731,-0.0032,0.0304,0.0048,-0.055,-0.1116,-0.1687,-0.2226,-0.2568,-0.3022,-0.2798,-0.2504,-0.244,-0.2424,-0.2274,-0.2029,-0.1682,-0.1372,-0.102,-0.0646,0,0,0,0,0,0,0,0,0,0,0,0,0,0,0,0,0,0,0,0,0,-0.1121,-0.0582,-0.1084,-0.2477,-0.3054,-0.1943,-0.0865,-0.0432,-0.0545,-0.0812,-0.0892,-0.1212,-0.149,-0.1895,-0.2499,-0.2531,-0.2285,-0.2322,-0.2408,-0.2306,-0.2007,-0.157,-0.1249,-0.0902,-0.0497,0,0,0,0,0,0,0,0,0,0,0,0,0,0,0,0,0,0,0,0,0,-0.1911,-0.1303,-0.1041,-0.1249,-0.22,-0.2269,-0.1607,-0.1164,-0.1516,-0.1404,-0.0988,-0.0886,-0.0886,-0.1239,-0.1858,-0.2173,-0.2104,-0.2221,-0.2355,-0.229,-0.1954,-0.1484,-0.1159,-0.0934,-0.0635,0,0,0,0,0,0,0,0,0,0,0,0,0,0,0,0,0,0,0,0,0,-0.2184,-0.204,-0.197,-0.1837,-0.1949,-0.2114,-0.2221,-0.205,-0.2403,-0.189,-0.1084,-0.0529,-0.0358,-0.0614,-0.1217,-0.1751,-0.197,-0.2125,-0.2253,-0.2162,-0.1821,-0.1276,-0.0908,-0.079,-0.0641,0,0,0,0,0,0,0,0,0,0,0,0,0,0,0,0,0,0,0,0,0,0,-0.2242,-0.2413,-0.2467,-0.2392,-0.2328,-0.2547,-0.2568,-0.275,-0.2024,-0.0918,-0.016,0.0085,-0.0107,-0.0705,-0.1393,-0.1815,-0.1949,-0.2072,-0.1986,-0.1602,-0.1046,-0.0694,-0.0566,-0.047,0,0,0,0,0,0,0,0,0,0,0,0,0,0,0,0,0,0,0,0,0,0,-0.2216,-0.2371,-0.244,-0.2328,-0.2184,-0.2258,-0.2515,-0.2707,-0.197,-0.087,-0.0059,0.023,0.0091,-0.0459,-0.1148,-0.1564,-0.1709,-0.1837,-0.1778,-0.1297,-0.087,-0.0625,-0.0481,-0.0368,0,0,0,0,0,0,0,0,0,0,0,0,0,0,0,0,0,0,0,0,0,0,-0.2152,-0.2269,-0.2328,-0.2194,-0.2002,-0.1949,-0.229,-0.2557,-0.1949,-0.0988,-0.0256,0.0043,-0.0032,-0.0443,-0.0961,-0.1265,-0.1474,-0.1596,-0.1431,-0.102,-0.0769,-0.0625,-0.0513,-0.0411,0,0,0,0,0,0,0,0,0,0,0,0,0,0,0,0,0,0,0,0,0,0,-0.2072,-0.2173,-0.2205,-0.2072,-0.1879,-0.1725,-0.1837,-0.2232,-0.1997,-0.1287,-0.0625,-0.031,-0.0288,-0.0523,-0.0828,-0.1127,-0.1324,-0.1303,-0.103,-0.0801,-0.0694,-0.0625,-0.055,-0.0459,0,0,0,0,0,0,0,0,0,0,0,0,0,0,0,0,0,0,0,0,0,0,-0.1959,-0.2082,-0.2093,-0.1965,-0.1789,-0.1607,-0.15,-0.1682,-0.1794,-0.1559,-0.1036,-0.0731,-0.0625,-0.0715,-0.0886,-0.1105,-0.1121,-0.095,-0.0747,-0.0657,-0.0641,-0.0614,-0.055,-0.0448,0,0,0,0,0,0,0,0,0,0,0,0,0,0,0,0,0,0,0,0,0,0,-0.1858,-0.1997,-0.1986,-0.1863,-0.1703,-0.1538,-0.1372,-0.1276,-0.1356,-0.1361,-0.1132,-0.0961,-0.0844,-0.0844,-0.0902,-0.0945,-0.0854,-0.0721,-0.0614,-0.0587,-0.0593,-0.0561,-0.0491,-0.039,0,0,0,0,0,0,0,0,0,0,0,0,0,0,0,0,0,0,0,0,0,0,-0.1783,-0.1917,-0.1885,-0.1762,-0.1612,-0.1474,-0.1324,-0.1175,-0.1084,-0.1009,-0.0945,-0.0881,-0.0812,-0.079,-0.079,-0.0774,-0.0705,-0.063,-0.0566,-0.0545,-0.0518,-0.047,-0.0395,-0.031,0,0,0,0,0,0,0,0,0,0,0,0,0,0,0,0,0,0,0,0,0,0,-0.1741,-0.1842,-0.1783,-0.166,-0.1516,-0.1393,-0.1271,-0.1143,-0.103,-0.0934,-0.087,-0.0812,-0.0774,-0.0753,-0.0737,-0.071,-0.0657,-0.0598,-0.0545,-0.0491,-0.0427,-0.0363,-0.0299,-0.023,0,0,0,0,0,0,0,0,0,0,0,0,0,0,0,0,0,0,0,0,0,0,-0.1725,-0.1757,-0.1671,-0.1554,-0.1426,-0.1313,-0.1223,-0.1116,-0.102,-0.0934,-0.087,-0.0822,-0.078,-0.0747,-0.071,-0.0667,-0.0625,-0.0566,-0.0491,-0.0411,-0.0336,-0.0267,-0.0203,-0.0133,0,0,0,0,0,0,0,0,0,0,0,0,0,0,0,0,0,0,0,0,0,0,-0.1687,-0.165,-0.1548,-0.1447,-0.134,-0.1244,-0.1175,-0.1084,-0.1014,-0.094,-0.0876,-0.0817,-0.0763,-0.071,-0.0673,-0.0635,-0.0587,-0.0507,-0.04,-0.0299,-0.0224,-0.0144,-0.0091,-0.0037,0,0,0,0,0,0,0,0,0,0,0,0,0,0,0,0,0,0,0,0,0,-0.1666,-0.157,-0.15,-0.1404,-0.1329,-0.1249,-0.1164,-0.1105,-0.1036,-0.0988,-0.0924,-0.0849,-0.078,-0.0715,-0.0667,-0.0646,-0.0614,-0.0534,-0.0411,-0.0278,-0.016,-0.0069,0.0011,0.0043,0.0048,0,0,0,0,0,0,0,0,0,0,0,0,0,0,0,0,0,0,0,0,0,-0.1458,-0.1329,-0.1265,-0.1228,-0.1191,-0.1132,-0.103,-0.095,-0.0913,-0.0897,-0.086,-0.0796,-0.0726,-0.0667,-0.0657,-0.0651,-0.0577,-0.0443,-0.0283,-0.0128,-0.0005,0.0091,0.0187,0.0192,0.0144,0,0,0,0,0,0,0,0,0,0,0,0,0,0,0,0,0,0,0,0,0,0,-0.103,-0.0961,-0.0966,-0.0998,-0.0966,-0.0833,-0.0673,-0.0657,-0.0694,-0.0737,-0.0721,-0.0694,-0.0662,-0.0662,-0.063,-0.0459,-0.0283,-0.0091,0.0096,0.0203,0.0246,0.0358,0.0352,0.0272,0,0,0,0,0,0,0,0,0,0,0,0,0,0,0,0,0,0,0,0,0,0,0,-0.0641,-0.0705,0,0,0,0,0,0,-0.0689,-0.0603,-0.0481,-0.0384,-0.0187,-0.0117,0.0075,0.0139,0.0326,0,0,0,0,0,0,0,0,0,0,0,0,0,0,0,0,0,0,0,0,0,0,0,0,0,0,0,0,0,0,0,0,0,0,0,0,0,0,0,0,0,0.0534,0.0518,0,0,0,0,0,0,0,0,0,0,0,0,0,0,0,0,0,0,0,0,0,0,0,0,0,0,0,0,0,0,0,0,0,0,0,0,0,0,0,0,0,0,0,0,0,0,0,0,0,0,0,0,0,0,0,0,0,0,0,0,0,0,0,0,0,0,0,0,0,0,0,0,0,0,0,0,0,0,0,0,0,0,0,0,0,0,0,0,0,0,0,0,0,0,0,0,0,0,0,0,0,0,0,0,0,0,0,0,0,0,0,0,0,0,0,0,0,0,0,0,0,0,0,0,0,0,0,0,0,0,0,0,0,0,0,0,0,0,0,0,0,0,0,0,0,0,0,0,0,0,0,0,0,0,0,0,0,0,0,0,0,0,0,0,0,0,0,0,0,0,0,0,0,0,0,0,0,0,0,0,0,0,0,0,0,0,0,0,0,0,0,0,0,0,0,0,0,0,0,0,0,0,0,0,0,0,0,0,0,0,0,0,0,0,0,0,0,0,0,0,0,0,0,0,0,0,0,0,0,0,0,0,0,0,0,0,0,0,0,0,0,0,0,0,0,0,0,0,0,0,0,0,0,0,0,0,0,0,0,0,0,0,0,0,0,0,0,0,0,0,0,0,0,0,0,0,0,0,0,0,0,0,0,0,0,0,0,0,0,0,0,0,0,0,0,0,0,0,0,0,0,0,0,0,0,0,0,0,0,0,0,0,0,0,0,0,0,0,0,0,0,0,0,0,0,0,0,0,0,0,0,0,0,0,0,0,0,0,0,0,0,0,0,0,0,0,0,0,0,0,0,0,0,0,0,0,0,0,0,0,0,0,0,0,0,0,0,0,0,0,0,0,0,0,0,0,0,0,0,0,0,0,0,0,0,0,0,0,0,0,0,0,0,0,0,0,0,0,0,0,0,0,0,0,0,0,0,0,0,0,0,0,0,0,0,0,0,0,0,0,0,0,0,0,0,0,0,0,0,0,0,0,0,0,0,0,0,0,0,0,0,0,0,0,0,0,0,0,0,0,0,0,0,0,0,0,0,0,0,0,0,0,0,0,0,0,0,0,0,0,0,0,0,0,0,0,0,0,0,0,0,0,0,0,0,0,0,0,0,0,0,0,0,0,0,0,0,0,0,0,0,0,0,0,0,0,0,0,0,0,0,0,0,0,0,0,0,0,0,0,0,0,0,0,0,0,0,0,0,0,0,0,0,0,0,0,0,0,0,0,0,0,0,0,0,0,0,0,0,0,0,0,0,0,0,0,0,0,0,0,0]}]],[[{"header":{"parameterUnit":"kt","parameterCategory":2,"dx":1,"dy":1,"la1":29.46422004699707,"la2":30.564109802246094,"lo1":-89.4342041015625,"lo2":-87.934326171875,"nx":46,"ny":34,"refTime":"2022-10-27T00:00:00:Z","depth":"20","parameterNumber":2,"parameterNumberName":"U-component_of_CURRENTS"},"data":[0,0,0,0,0,0,0,0,0,0,0,0,0,0,0,0,0,0,0,0.0742,0.0657,0.1068,0.1879,0.2605,0.3134,0.338,0.2867,0.2098,0.1367,0.032,-0.1057,-0.22,-0.2947,-0.3508,-0.3962,-0.4277,-0.4469,-0.4506,-0.441,-0.4255,-0.4127,-0.4111,-0.4164,-0.4143,-0.4004,-0.3769,0,0,0,0,0,0,0,0,0,0,0,0,0,0,0,0,0,0,0,0,0,0.055,0.0518,0.1201,0.1773,0.2776,0.3166,0.2744,0.2162,0.1623,0.1073,0.0235,-0.0934,-0.1965,-0.2643,-0.3065,-0.3262,-0.3385,-0.3513,-0.354,-0.3524,-0.3406,-0.3161,-0.2953,-0.2851,-0.2872,0,0,0,0,0,0,0,0,0,0,0,0,0,0,0,0,0,0,0,0,0,0,0.0641,0.055,0.1025,0.1415,0.2541,0.2814,0.2541,0.2258,0.2082,0.1639,0.063,-0.0555,-0.1377,-0.1933,-0.2221,-0.2306,-0.2392,-0.2515,-0.2605,-0.2616,-0.2557,-0.2483,-0.2408,-0.2226,0,0,0,0,0,0,0,0,0,0,0,0,0,0,0,0,0,0,0,0,0,0,0,0,0.0721,0.1191,0.1308,0.2317,0.2696,0.2744,0.2659,0.2301,0.1751,0.0822,-0.0315,-0.1164,-0.1575,-0.1831,-0.2077,-0.2226,-0.2248,-0.2136,-0.1991,-0.1895,-0.1831,-0.1805,0,0,0,0,0,0,0,0,0,0,0,0,0,0,0,0,0,0,0,0,0,0,0,0,0.0459,0.1052,0.126,0.1265,0.2109,0.2547,0.2744,0.2792,0.2557,0.1826,0.0641,-0.0518,-0.126,-0.1628,-0.1927,-0.2136,-0.2157,-0.1965,-0.1767,-0.1666,-0.1543,-0.141,0,0,0,0,0,0,0,0,0,0,0,0,0,0,0,0,0,0,0,0,0,0,0,0,0,0.0294,0.1217,0.0593,0.0545,0.0838,0.1308,0.1853,0.2162,0.1943,0.1073,-0.0171,-0.0988,-0.1308,-0.1559,-0.1762,-0.1794,-0.1671,-0.1623,-0.1709,-0.1799,-0.1773,0,0,0,0,0,0,0,0,0,0,0,0,0,0,0,0,0,0,0,0,0,0,0,0,0,-0.0117,-0.0048,-0.0021,-0.0192,-0.0005,0.0395,0.102,0.1607,0.1725,0.1217,0.0149,-0.0667,-0.0945,-0.118,-0.1426,-0.1479,-0.1452,-0.1543,-0.173,-0.1938,-0.2072,0,0,0,0,0,0,0,0,0,0,0,0,0,0,0,0,0,0,0,0,0,0,0,0,0,-0.0288,-0.0374,-0.0272,-0.0278,-0.0454,-0.0347,0.0208,0.0924,0.1335,0.1078,0.023,-0.0438,-0.0667,-0.0902,-0.1111,-0.1169,-0.1212,-0.1281,-0.1361,-0.149,-0.1634,0,0,0,0,0,0,0,0,0,0,0,0,0,0,0,0,0,0,0,0,0,0,0,0,0,-0.0374,-0.0432,-0.0598,-0.0865,-0.1073,-0.0838,-0.0101,0.0539,0.0849,0.0753,0.0166,-0.0374,-0.0561,-0.0763,-0.0945,-0.0961,-0.1014,-0.1111,-0.1175,-0.1191,-0.118,0,0,0,0,0,0,0,0,0,0,0,0,0,0,0,0,0,0,0,0,0,0,0,0,0,-0.0246,-0.032,-0.0443,-0.0715,-0.1175,-0.1303,-0.0838,-0.0272,0.0,-0.0016,-0.0283,-0.0534,-0.0609,-0.0737,-0.0801,-0.0806,-0.0913,-0.1046,-0.1111,-0.1127,-0.1095,0,0,0,0,0,0,0,0,0,0,0,0,0,0,0,0,0,0,0,0,0,0,0,0,-0.0107,-0.0144,-0.0198,-0.0272,-0.0486,-0.0924,-0.1506,-0.166,-0.1265,-0.0892,-0.0886,-0.0881,-0.0753,-0.0715,-0.0694,-0.0603,-0.0657,-0.0822,-0.0945,-0.1004,-0.102,-0.1004,0,0,0,0,0,0,0,0,0,0,0,0,0,0,0,0,0,0,0,0,0,0,0,0,-0.0005,-0.0043,-0.0096,-0.0144,-0.0235,-0.0502,-0.0988,-0.1538,-0.1762,-0.165,-0.1388,-0.1095,-0.087,-0.0651,-0.0454,-0.0438,-0.0577,-0.071,-0.0806,-0.087,-0.0918,-0.0956,0,0,0,0,0,0,0,0,0,0,0,0,0,0,0,0,0,0,0,0,0,0,0,0,0.0091,0.0053,-0.0005,-0.0059,-0.0107,-0.0176,-0.0427,-0.0785,-0.1073,-0.1175,-0.1009,-0.0715,-0.0464,-0.0326,-0.0326,-0.0411,-0.0502,-0.0577,-0.0651,-0.0747,-0.0849,-0.0929,0,0,0,0,0,0,0,0,0,0,0,0,0,0,0,0,0,0,0,0,0,0,0,0,0.0192,0.0149,0.0085,0.0016,-0.0032,-0.0075,-0.0139,-0.0246,-0.0342,-0.0368,-0.032,-0.0246,-0.0208,-0.024,-0.0304,-0.0374,-0.0432,-0.0491,-0.0587,-0.071,-0.0828,-0.0918,0,0,0,0,0,0,0,0,0,0,0,0,0,0,0,0,0,0,0,0,0,0,0,0,0.031,0.0256,0.0192,0.0112,0.0048,-0.0005,-0.0037,-0.0069,-0.0096,-0.0117,-0.0128,-0.0144,-0.0182,-0.024,-0.0315,-0.0379,-0.0454,-0.055,-0.0667,-0.0785,-0.0886,-0.0966,0,0,0,0,0,0,0,0,0,0,0,0,0,0,0,0,0,0,0,0,0,0,0,0,0.0448,0.0379,0.031,0.023,0.0155,0.0085,0.0032,-0.0005,-0.0037,-0.0064,-0.0096,-0.0149,-0.0219,-0.0304,-0.0395,-0.0491,-0.0603,-0.0731,-0.0844,-0.094,-0.1025,-0.1105,0,0,0,0,0,0,0,0,0,0,0,0,0,0,0,0,0,0,0,0,0,0,0,0,0.0593,0.0497,0.0416,0.0331,0.0246,0.0166,0.0085,0.0016,-0.0043,-0.0096,-0.0166,-0.0246,-0.0342,-0.0432,-0.0518,-0.0614,-0.0726,-0.086,-0.0982,-0.1089,-0.118,-0.1255,0,0,0,0,0,0,0,0,0,0,0,0,0,0,0,0,0,0,0,0,0,0,0,0,0,0.0598,0.0486,0.0379,0.0262,0.0149,0.0048,-0.0032,-0.0112,-0.0187,-0.0272,-0.0358,-0.0427,-0.0486,-0.055,-0.0646,-0.0769,0,0,0,0,0,0,0,0,0,0,0,0,0,0,0,0,0,0,0,0,0,0,0,0,0,0,0,0,0,0,0,0,0,0,0,0,0,0,-0.0294,-0.0342,-0.0384,0,0,0,0,0,0,0,0,0,0,0,0,0,0,0,0,0,0,0,0,0,0,0,0,0,0,0,0,0,0,0,0,0,0,0,0,0,0,0,0,0,0,0,0,0,0,0,0,0,0,0,0,0,0,0,0,0,0,0,0,0,0,0,0,0,0,0,0,0,0,0,0,0,0,0,0,0,0,0,0,0,0,0,0,0,0,0,0,0,0,0,0,0,0,0,0,0,0,0,0,0,0,0,0,0,0,0,0,0,0,0,0,0,0,0,0,0,0,0,0,0,0,0,0,0,0,0,0,0,0,0,0,0,0,0,0,0,0,0,0,0,0,0,0,0,0,0,0,0,0,0,0,0,0,0,0,0,0,0,0,0,0,0,0,0,0,0,0,0,0,0,0,0,0,0,0,0,0,0,0,0,0,0,0,0,0,0,0,0,0,0,0,0,0,0,0,0,0,0,0,0,0,0,0,0,0,0,0,0,0,0,0,0,0,0,0,0,0,0,0,0,0,0,0,0,0,0,0,0,0,0,0,0,0,0,0,0,0,0,0,0,0,0,0,0,0,0,0,0,0,0,0,0,0,0,0,0,0,0,0,0,0,0,0,0,0,0,0,0,0,0,0,0,0,0,0,0,0,0,0,0,0,0,0,0,0,0,0,0,0,0,0,0,0,0,0,0,0,0,0,0,0,0,0,0,0,0,0,0,0,0,0,0,0,0,0,0,0,0,0,0,0,0,0,0,0,0,0,0,0,0,0,0,0,0,0,0,0,0,0,0,0,0,0,0,0,0,0,0,0,0,0,0,0,0,0,0,0,0,0,0,0,0,0,0,0,0,0,0,0,0,0,0,0,0,0,0,0,0,0,0,0,0,0,0,0,0,0,0,0,0,0,0,0,0,0,0,0,0,0,0,0,0,0,0,0,0,0,0,0,0,0,0,0,0,0,0,0,0,0,0,0,0,0,0,0,0,0,0,0,0,0,0,0,0,0,0,0,0,0,0,0,0,0,0,0,0,0,0,0,0,0,0,0,0,0,0,0,0,0,0,0,0,0,0,0,0,0,0,0,0,0,0,0,0,0,0,0,0,0,0,0,0,0,0,0,0,0,0,0,0,0,0,0,0,0,0,0,0,0,0,0,0,0,0,0,0,0,0,0,0,0,0,0,0,0,0,0,0,0,0,0,0,0,0,0,0,0,0,0,0,0,0,0,0,0,0,0,0,0,0,0,0,0,0,0,0,0,0,0,0,0,0,0,0,0,0,0,0,0,0,0,0,0,0,0,0,0,0,0,0,0,0,0,0,0,0,0,0,0,0,0,0,0,0,0,0,0,0,0,0,0,0,0,0,0,0,0,0,0,0,0,0,0,0,0,0,0,0,0,0,0,0,0,0,0,0,0,0,0,0,0,0,0,0,0,0,0,0,0,0,0,0,0,0,0,0,0,0,0,0,0,0,0,0,0,0,0,0,0,0,0,0,0,0,0,0,0,0,0,0,0,0,0,0,0,0,0,0,0,0,0,0,0,0,0,0,0,0,0,0,0,0,0,0,0,0,0,0,0,0,0,0,0,0,0,0,0,0,0]}],[{"header":{"parameterUnit":"kt","parameterCategory":2,"dx":1,"dy":1,"la1":29.46422004699707,"la2":30.564109802246094,"lo1":-89.4342041015625,"lo2":-87.934326171875,"nx":46,"ny":34,"refTime":"2022-10-27T00:00:00:Z","depth":"20","parameterNumber":3,"parameterNumberName":"V-component_of_CURRENTS"},"data":[0,0,0,0,0,0,0,0,0,0,0,0,0,0,0,0,0,0,0,-0.0053,-0.0155,-0.1201,-0.1324,-0.0267,0.016,0.0379,0.0646,0.086,0.102,0.0582,-0.0491,-0.1927,-0.2878,-0.3187,-0.3027,-0.2782,-0.2563,-0.2413,-0.2306,-0.2072,-0.1746,-0.1479,-0.1297,-0.1164,-0.0924,-0.0689,0,0,0,0,0,0,0,0,0,0,0,0,0,0,0,0,0,0,0,0,0,-0.0753,-0.1308,-0.2515,-0.079,0.0091,0.055,0.0731,0.0699,0.0587,0.0422,-0.0294,-0.1837,-0.2974,-0.3145,-0.3262,-0.3262,-0.3235,-0.3102,-0.2771,-0.228,-0.1666,-0.1121,-0.0785,-0.0459,-0.0203,0,0,0,0,0,0,0,0,0,0,0,0,0,0,0,0,0,0,0,0,0,0,-0.1228,-0.1602,-0.299,-0.0956,0.0144,0.0742,0.0886,0.087,0.0918,0.0598,-0.0448,-0.1783,-0.2322,-0.3017,-0.3134,-0.3033,-0.2894,-0.275,-0.2547,-0.221,-0.1757,-0.1319,-0.0913,-0.0475,0,0,0,0,0,0,0,0,0,0,0,0,0,0,0,0,0,0,0,0,0,0,0,0,-0.1842,-0.2995,-0.1052,0.0149,0.0763,0.0998,0.1143,0.0892,0.0374,-0.0352,-0.1239,-0.2242,-0.268,-0.2488,-0.2429,-0.2408,-0.2248,-0.2013,-0.1682,-0.1377,-0.1036,-0.0662,0,0,0,0,0,0,0,0,0,0,0,0,0,0,0,0,0,0,0,0,0,0,0,0,-0.102,-0.2162,-0.2536,-0.0966,0.0112,0.0507,0.0689,0.0838,0.087,0.0486,-0.0363,-0.1335,-0.2242,-0.2269,-0.2306,-0.2381,-0.2264,-0.1981,-0.1559,-0.1244,-0.0897,-0.0507,0,0,0,0,0,0,0,0,0,0,0,0,0,0,0,0,0,0,0,0,0,0,0,0,0,-0.0774,-0.1959,-0.1484,-0.078,-0.0577,-0.0406,0.0048,0.0486,0.0379,0.0059,-0.0614,-0.1719,-0.2072,-0.221,-0.2333,-0.2248,-0.1938,-0.1468,-0.1143,-0.0913,-0.0614,0,0,0,0,0,0,0,0,0,0,0,0,0,0,0,0,0,0,0,0,0,0,0,0,0,-0.1132,-0.1217,-0.1767,-0.1805,-0.197,-0.165,-0.0892,-0.0203,0.0005,0.0192,-0.0091,-0.126,-0.1911,-0.2114,-0.2232,-0.2152,-0.181,-0.126,-0.0886,-0.0763,-0.0614,0,0,0,0,0,0,0,0,0,0,0,0,0,0,0,0,0,0,0,0,0,0,0,0,0,-0.1975,-0.1826,-0.2226,-0.2515,-0.2707,-0.2098,-0.1148,-0.0454,-0.0085,0.0304,0.023,-0.0929,-0.1746,-0.1943,-0.2045,-0.1981,-0.1586,-0.103,-0.0673,-0.0545,-0.0448,0,0,0,0,0,0,0,0,0,0,0,0,0,0,0,0,0,0,0,0,0,0,0,0,0,-0.2104,-0.212,-0.2237,-0.2488,-0.268,-0.1986,-0.1084,-0.0454,-0.0027,0.0406,0.0315,-0.0801,-0.1522,-0.1703,-0.1815,-0.1767,-0.1281,-0.086,-0.0609,-0.047,-0.0358,0,0,0,0,0,0,0,0,0,0,0,0,0,0,0,0,0,0,0,0,0,0,0,0,0,-0.1981,-0.1933,-0.1922,-0.2237,-0.2557,-0.2109,-0.1244,-0.0561,-0.0085,0.0304,0.0048,-0.0763,-0.1249,-0.1463,-0.158,-0.141,-0.1004,-0.0753,-0.0614,-0.0507,-0.0411,0,0,0,0,0,0,0,0,0,0,0,0,0,0,0,0,0,0,0,0,0,0,0,0,-0.1954,-0.1863,-0.1799,-0.1692,-0.1783,-0.2194,-0.213,-0.1479,-0.0796,-0.0363,-0.0112,-0.0342,-0.0763,-0.1121,-0.1303,-0.1287,-0.1009,-0.0785,-0.0678,-0.0614,-0.0539,-0.0454,0,0,0,0,0,0,0,0,0,0,0,0,0,0,0,0,0,0,0,0,0,0,0,0,-0.1858,-0.1773,-0.1714,-0.1564,-0.1468,-0.1607,-0.1789,-0.1628,-0.1116,-0.0774,-0.0587,-0.0673,-0.0876,-0.1095,-0.11,-0.0929,-0.0737,-0.0646,-0.063,-0.0603,-0.0539,-0.0443,0,0,0,0,0,0,0,0,0,0,0,0,0,0,0,0,0,0,0,0,0,0,0,0,-0.1773,-0.1687,-0.1634,-0.1495,-0.1345,-0.1239,-0.1313,-0.1351,-0.1111,-0.094,-0.0822,-0.0828,-0.0892,-0.0929,-0.0833,-0.0705,-0.0603,-0.0577,-0.0582,-0.0555,-0.0481,-0.0384,0,0,0,0,0,0,0,0,0,0,0,0,0,0,0,0,0,0,0,0,0,0,0,0,-0.1687,-0.1602,-0.1538,-0.1426,-0.1292,-0.1153,-0.1068,-0.0993,-0.0918,-0.086,-0.0796,-0.0769,-0.0774,-0.0758,-0.0694,-0.0625,-0.0561,-0.0539,-0.0513,-0.0459,-0.0384,-0.0304,0,0,0,0,0,0,0,0,0,0,0,0,0,0,0,0,0,0,0,0,0,0,0,0,-0.1596,-0.1511,-0.1447,-0.1351,-0.1244,-0.1121,-0.1014,-0.0924,-0.0854,-0.0801,-0.0763,-0.0742,-0.0731,-0.0705,-0.0651,-0.0587,-0.0534,-0.0481,-0.0416,-0.0352,-0.0283,-0.0214,0,0,0,0,0,0,0,0,0,0,0,0,0,0,0,0,0,0,0,0,0,0,0,0,-0.1495,-0.141,-0.1345,-0.1271,-0.1191,-0.1095,-0.1004,-0.0918,-0.086,-0.0812,-0.0774,-0.0737,-0.0699,-0.0657,-0.0614,-0.0555,-0.0475,-0.039,-0.031,-0.024,-0.0176,-0.0101,0,0,0,0,0,0,0,0,0,0,0,0,0,0,0,0,0,0,0,0,0,0,0,0,-0.1377,-0.1292,-0.1233,-0.1175,-0.1127,-0.1046,-0.0982,-0.0913,-0.0849,-0.0796,-0.0742,-0.0689,-0.0646,-0.0614,-0.0561,-0.0475,-0.0363,-0.0256,-0.0171,-0.0091,-0.0037,0.0011,0,0,0,0,0,0,0,0,0,0,0,0,0,0,0,0,0,0,0,0,0,0,0,0,0,-0.118,-0.1111,-0.1036,-0.0988,-0.0929,-0.0886,-0.0828,-0.0769,-0.0705,-0.0641,-0.0598,-0.0587,-0.0566,-0.0486,-0.0363,-0.023,0,0,0,0,0,0,0,0,0,0,0,0,0,0,0,0,0,0,0,0,0,0,0,0,0,0,0,0,0,0,0,0,0,0,0,0,0,0,-0.063,-0.0593,-0.0593,0,0,0,0,0,0,0,0,0,0,0,0,0,0,0,0,0,0,0,0,0,0,0,0,0,0,0,0,0,0,0,0,0,0,0,0,0,0,0,0,0,0,0,0,0,0,0,0,0,0,0,0,0,0,0,0,0,0,0,0,0,0,0,0,0,0,0,0,0,0,0,0,0,0,0,0,0,0,0,0,0,0,0,0,0,0,0,0,0,0,0,0,0,0,0,0,0,0,0,0,0,0,0,0,0,0,0,0,0,0,0,0,0,0,0,0,0,0,0,0,0,0,0,0,0,0,0,0,0,0,0,0,0,0,0,0,0,0,0,0,0,0,0,0,0,0,0,0,0,0,0,0,0,0,0,0,0,0,0,0,0,0,0,0,0,0,0,0,0,0,0,0,0,0,0,0,0,0,0,0,0,0,0,0,0,0,0,0,0,0,0,0,0,0,0,0,0,0,0,0,0,0,0,0,0,0,0,0,0,0,0,0,0,0,0,0,0,0,0,0,0,0,0,0,0,0,0,0,0,0,0,0,0,0,0,0,0,0,0,0,0,0,0,0,0,0,0,0,0,0,0,0,0,0,0,0,0,0,0,0,0,0,0,0,0,0,0,0,0,0,0,0,0,0,0,0,0,0,0,0,0,0,0,0,0,0,0,0,0,0,0,0,0,0,0,0,0,0,0,0,0,0,0,0,0,0,0,0,0,0,0,0,0,0,0,0,0,0,0,0,0,0,0,0,0,0,0,0,0,0,0,0,0,0,0,0,0,0,0,0,0,0,0,0,0,0,0,0,0,0,0,0,0,0,0,0,0,0,0,0,0,0,0,0,0,0,0,0,0,0,0,0,0,0,0,0,0,0,0,0,0,0,0,0,0,0,0,0,0,0,0,0,0,0,0,0,0,0,0,0,0,0,0,0,0,0,0,0,0,0,0,0,0,0,0,0,0,0,0,0,0,0,0,0,0,0,0,0,0,0,0,0,0,0,0,0,0,0,0,0,0,0,0,0,0,0,0,0,0,0,0,0,0,0,0,0,0,0,0,0,0,0,0,0,0,0,0,0,0,0,0,0,0,0,0,0,0,0,0,0,0,0,0,0,0,0,0,0,0,0,0,0,0,0,0,0,0,0,0,0,0,0,0,0,0,0,0,0,0,0,0,0,0,0,0,0,0,0,0,0,0,0,0,0,0,0,0,0,0,0,0,0,0,0,0,0,0,0,0,0,0,0,0,0,0,0,0,0,0,0,0,0,0,0,0,0,0,0,0,0,0,0,0,0,0,0,0,0,0,0,0,0,0,0,0,0,0,0,0,0,0,0,0,0,0,0,0,0,0,0,0,0,0,0,0,0,0,0,0,0,0,0,0,0,0,0,0,0,0,0,0,0,0,0,0,0,0,0,0,0,0,0,0,0,0,0,0,0,0,0,0,0,0,0,0,0,0,0,0,0,0,0,0,0,0,0,0,0,0,0,0,0,0,0,0,0,0,0,0,0,0,0,0,0,0,0,0,0,0,0,0,0,0,0,0,0,0,0,0,0,0,0,0,0,0,0,0,0,0,0,0,0,0,0,0,0,0,0,0,0]}]],[[{"header":{"parameterUnit":"kt","parameterCategory":2,"dx":1,"dy":1,"la1":29.46422004699707,"la2":30.564109802246094,"lo1":-89.4342041015625,"lo2":-87.934326171875,"nx":46,"ny":34,"refTime":"2022-10-27T00:00:00:Z","depth":"25","parameterNumber":2,"parameterNumberName":"U-component_of_CURRENTS"},"data":[0,0,0,0,0,0,0,0,0,0,0,0,0,0,0,0,0,0,0,0,0,0.0368,0.0593,0.1244,0.1885,0.2589,0.2696,0.2066,0.1335,0.0561,-0.0304,-0.118,-0.1911,-0.2477,-0.2867,-0.3107,-0.3251,-0.3294,-0.3193,-0.3001,-0.2787,-0.2808,-0.3038,-0.3177,-0.3161,-0.3097,0,0,0,0,0,0,0,0,0,0,0,0,0,0,0,0,0,0,0,0,0,0,0,0.024,0.0678,0.1361,0.2146,0.221,0.1789,0.1292,0.0769,0.0278,-0.0198,-0.0657,-0.1137,-0.1746,-0.2269,-0.2627,-0.2787,-0.2627,-0.2258,-0.205,-0.2002,-0.1906,-0.1853,-0.1949,0,0,0,0,0,0,0,0,0,0,0,0,0,0,0,0,0,0,0,0,0,0,0,0,0.0171,0.0577,0.1265,0.2013,0.2082,0.1815,0.1548,0.1399,0.1148,0.0609,0.0091,-0.0513,-0.1196,-0.1762,-0.2093,-0.2189,-0.2061,-0.1879,-0.1746,-0.1586,-0.1313,-0.1111,0,0,0,0,0,0,0,0,0,0,0,0,0,0,0,0,0,0,0,0,0,0,0,0,0,0.032,0.071,0.1255,0.1965,0.2162,0.2088,0.1986,0.1831,0.1463,0.094,-0.0075,-0.1159,-0.1741,-0.2002,-0.2152,-0.2109,-0.1991,-0.1842,-0.1692,-0.1474,-0.1201,0,0,0,0,0,0,0,0,0,0,0,0,0,0,0,0,0,0,0,0,0,0,0,0,0,0,0.0742,0.1084,0.1522,0.213,0.2472,0.2541,0.2376,0.2061,0.1431,0.032,-0.0753,-0.1431,-0.1826,-0.1874,-0.1762,-0.1799,-0.1751,-0.1655,-0.1522,-0.1351,0,0,0,0,0,0,0,0,0,0,0,0,0,0,0,0,0,0,0,0,0,0,0,0,0,0,0.0491,0.1367,0.0828,0.1175,0.1842,0.2419,0.2664,0.2541,0.2002,0.0902,-0.0198,-0.0934,-0.1404,-0.1436,-0.1356,-0.1506,-0.1596,-0.1692,-0.1783,-0.1762,0,0,0,0,0,0,0,0,0,0,0,0,0,0,0,0,0,0,0,0,0,0,0,0,0,0,0,0.0294,0.0646,0.0715,0.1506,0.2424,0.2846,0.2782,0.2306,0.1383,0.0326,-0.0454,-0.0966,-0.1095,-0.1265,-0.142,-0.1516,-0.1692,-0.1901,-0.2045,0,0,0,0,0,0,0,0,0,0,0,0,0,0,0,0,0,0,0,0,0,0,0,0,0,0,0,-0.0123,0.0721,0.086,0.1842,0.2659,0.284,0.2712,0.2344,0.1607,0.071,-0.0107,-0.0662,-0.0796,-0.103,-0.1169,-0.1233,-0.1313,-0.1426,-0.158,0,0,0,0,0,0,0,0,0,0,0,0,0,0,0,0,0,0,0,0,0,0,0,0,0,0,0,-0.0203,-0.0112,0.0593,0.1436,0.2349,0.2659,0.2595,0.229,0.1746,0.0988,0.0107,-0.0411,-0.047,-0.078,-0.0972,-0.1078,-0.1143,-0.1159,-0.1153,0,0,0,0,0,0,0,0,0,0,0,0,0,0,0,0,0,0,0,0,0,0,0,0,0,0,-0.0272,-0.0246,-0.0182,0.0635,0.1078,0.1532,0.2184,0.2365,0.2173,0.1655,0.0865,0.0192,-0.0059,-0.0272,-0.0635,-0.0881,-0.1014,-0.1078,-0.1095,-0.1068,0,0,0,0,0,0,0,0,0,0,0,0,0,0,0,0,0,0,0,0,0,0,0,0,0,0,-0.0171,-0.0219,-0.0198,0.0299,0.0929,0.1073,0.1484,0.1858,0.1767,0.126,0.0577,0.0251,0.0149,-0.0283,-0.0598,-0.079,-0.0913,-0.0972,-0.0988,-0.0977,0,0,0,0,0,0,0,0,0,0,0,0,0,0,0,0,0,0,0,0,0,0,0,0,0,0,0,-0.0117,-0.0176,-0.0208,0.0347,0.0817,0.0785,0.0854,0.0758,0.0518,0.0502,0.0416,-0.0059,-0.0363,-0.0555,-0.0689,-0.0774,-0.0838,-0.0886,-0.0924,0,0,0,0,0,0,0,0,0,0,0,0,0,0,0,0,0,0,0,0,0,0,0,0,0,0,0,-0.0043,-0.0085,-0.0139,-0.0091,0.0182,0.0438,0.0486,0.0438,0.0368,0.0224,-0.0032,-0.0256,-0.0395,-0.0491,-0.0555,-0.063,-0.0715,-0.0812,-0.0892,0,0,0,0,0,0,0,0,0,0,0,0,0,0,0,0,0,0,0,0,0,0,0,0,0,0,0,0.0032,-0.0016,-0.0059,-0.0117,-0.0144,-0.0091,-0.0027,-0.0011,-0.0053,-0.0139,-0.0219,-0.0294,-0.0363,-0.0416,-0.047,-0.0561,-0.0673,-0.0785,-0.087,0,0,0,0,0,0,0,0,0,0,0,0,0,0,0,0,0,0,0,0,0,0,0,0,0,0,0,0.0123,0.0059,0.0016,-0.0021,-0.0053,-0.0085,-0.0107,-0.0117,-0.0133,-0.0171,-0.0224,-0.0294,-0.0358,-0.0427,-0.0518,-0.063,-0.0742,-0.0838,-0.0908,0,0,0,0,0,0,0,0,0,0,0,0,0,0,0,0,0,0,0,0,0,0,0,0,0,0,0,0.023,0.016,0.0101,0.0048,0.0011,-0.0016,-0.0043,-0.0075,-0.0123,-0.0192,-0.0278,-0.0363,-0.0464,-0.0571,0,0,0,0,0,0,0,0,0,0,0,0,0,0,0,0,0,0,0,0,0,0,0,0,0,0,0,0,0,0,0,0,0,0,0.0171,0.0096,0.0032,-0.0027,-0.008,-0.0139,-0.0224,0,0,0,0,0,0,0,0,0,0,0,0,0,0,0,0,0,0,0,0,0,0,0,0,0,0,0,0,0,0,0,0,0,0,0,0,0,0,0,0,0,0,0,0,0,0,0,0,0,0,0,0,0,0,0,0,0,0,0,0,0,0,0,0,0,0,0,0,0,0,0,0,0,0,0,0,0,0,0,0,0,0,0,0,0,0,0,0,0,0,0,0,0,0,0,0,0,0,0,0,0,0,0,0,0,0,0,0,0,0,0,0,0,0,0,0,0,0,0,0,0,0,0,0,0,0,0,0,0,0,0,0,0,0,0,0,0,0,0,0,0,0,0,0,0,0,0,0,0,0,0,0,0,0,0,0,0,0,0,0,0,0,0,0,0,0,0,0,0,0,0,0,0,0,0,0,0,0,0,0,0,0,0,0,0,0,0,0,0,0,0,0,0,0,0,0,0,0,0,0,0,0,0,0,0,0,0,0,0,0,0,0,0,0,0,0,0,0,0,0,0,0,0,0,0,0,0,0,0,0,0,0,0,0,0,0,0,0,0,0,0,0,0,0,0,0,0,0,0,0,0,0,0,0,0,0,0,0,0,0,0,0,0,0,0,0,0,0,0,0,0,0,0,0,0,0,0,0,0,0,0,0,0,0,0,0,0,0,0,0,0,0,0,0,0,0,0,0,0,0,0,0,0,0,0,0,0,0,0,0,0,0,0,0,0,0,0,0,0,0,0,0,0,0,0,0,0,0,0,0,0,0,0,0,0,0,0,0,0,0,0,0,0,0,0,0,0,0,0,0,0,0,0,0,0,0,0,0,0,0,0,0,0,0,0,0,0,0,0,0,0,0,0,0,0,0,0,0,0,0,0,0,0,0,0,0,0,0,0,0,0,0,0,0,0,0,0,0,0,0,0,0,0,0,0,0,0,0,0,0,0,0,0,0,0,0,0,0,0,0,0,0,0,0,0,0,0,0,0,0,0,0,0,0,0,0,0,0,0,0,0,0,0,0,0,0,0,0,0,0,0,0,0,0,0,0,0,0,0,0,0,0,0,0,0,0,0,0,0,0,0,0,0,0,0,0,0,0,0,0,0,0,0,0,0,0,0,0,0,0,0,0,0,0,0,0,0,0,0,0,0,0,0,0,0,0,0,0,0,0,0,0,0,0,0,0,0,0,0,0,0,0,0,0,0,0,0,0,0,0,0,0,0,0,0,0,0,0,0,0,0,0,0,0,0,0,0,0,0,0,0,0,0,0,0,0,0,0,0,0,0,0,0,0,0,0,0,0,0,0,0,0,0,0,0,0,0,0,0,0,0,0,0,0,0,0,0,0,0,0,0,0,0,0,0,0,0,0,0,0,0,0,0,0,0,0,0,0,0,0,0,0,0,0,0,0,0,0,0,0,0,0,0,0,0,0,0,0,0,0,0,0,0,0,0,0,0,0,0,0,0,0,0,0,0,0,0,0,0,0,0,0,0,0,0,0,0,0,0,0,0,0,0,0,0,0,0,0,0,0,0,0,0,0,0,0,0,0,0,0,0,0,0,0,0,0,0,0,0,0,0,0,0,0,0,0,0,0,0,0,0,0,0,0,0,0,0,0,0,0,0,0,0,0,0,0,0,0,0,0,0,0,0,0,0,0,0,0,0,0,0,0,0,0,0,0,0,0,0,0,0,0,0,0,0,0,0,0,0,0,0,0,0,0,0,0,0,0,0,0,0,0,0,0,0,0,0,0,0,0,0,0,0,0,0,0,0,0,0,0,0,0,0,0,0,0,0,0,0,0,0,0]}],[{"header":{"parameterUnit":"kt","parameterCategory":2,"dx":1,"dy":1,"la1":29.46422004699707,"la2":30.564109802246094,"lo1":-89.4342041015625,"lo2":-87.934326171875,"nx":46,"ny":34,"refTime":"2022-10-27T00:00:00:Z","depth":"25","parameterNumber":3,"parameterNumberName":"V-component_of_CURRENTS"},"data":[0,0,0,0,0,0,0,0,0,0,0,0,0,0,0,0,0,0,0,0,0,0.0464,-0.0214,-0.0806,-0.0294,-0.0059,0.0176,0.0299,0.0342,0.0299,-0.0075,-0.0753,-0.1393,-0.1837,-0.1954,-0.1815,-0.1532,-0.1399,-0.142,-0.1271,-0.0902,-0.0481,-0.0342,-0.0315,-0.016,0.0,0,0,0,0,0,0,0,0,0,0,0,0,0,0,0,0,0,0,0,0,0,0,0,-0.0491,-0.1458,-0.0513,0.0085,0.0336,0.0374,0.0267,0.0048,-0.0198,-0.0609,-0.1233,-0.1773,-0.2056,-0.2098,-0.229,-0.2493,-0.2322,-0.1746,-0.1036,-0.0518,-0.0171,0.0166,0.0518,0,0,0,0,0,0,0,0,0,0,0,0,0,0,0,0,0,0,0,0,0,0,0,0,-0.0897,-0.1719,-0.0507,0.0224,0.0513,0.0561,0.0513,0.04,0.0256,-0.0176,-0.0849,-0.1271,-0.2066,-0.2424,-0.2654,-0.2573,-0.221,-0.1815,-0.1516,-0.1159,-0.078,-0.0246,0,0,0,0,0,0,0,0,0,0,0,0,0,0,0,0,0,0,0,0,0,0,0,0,0,-0.1377,-0.1975,-0.0577,0.0187,0.0475,0.0598,0.0635,0.0603,0.0577,0.0288,-0.0208,-0.1773,-0.2317,-0.2408,-0.2328,-0.2098,-0.1895,-0.1676,-0.1404,-0.1084,-0.0667,0,0,0,0,0,0,0,0,0,0,0,0,0,0,0,0,0,0,0,0,0,0,0,0,0,0,-0.1917,-0.1709,-0.0545,-0.0064,0.0198,0.0352,0.0454,0.0619,0.063,0.0203,-0.0998,-0.1901,-0.2269,-0.2178,-0.1949,-0.1789,-0.1538,-0.1233,-0.094,-0.0603,0,0,0,0,0,0,0,0,0,0,0,0,0,0,0,0,0,0,0,0,0,0,0,0,0,0,-0.0737,-0.1863,-0.0892,-0.0641,-0.04,-0.0048,0.0027,0.0117,0.0443,0.0571,-0.016,-0.15,-0.2184,-0.2136,-0.1959,-0.1821,-0.1452,-0.1121,-0.0892,-0.0593,0,0,0,0,0,0,0,0,0,0,0,0,0,0,0,0,0,0,0,0,0,0,0,0,0,0,0,-0.0742,-0.1442,-0.142,-0.1084,-0.0561,-0.0267,-0.0101,0.0299,0.0849,0.0534,-0.1121,-0.2088,-0.1933,-0.1991,-0.1778,-0.1233,-0.086,-0.0731,-0.0587,0,0,0,0,0,0,0,0,0,0,0,0,0,0,0,0,0,0,0,0,0,0,0,0,0,0,0,-0.1062,-0.1943,-0.2312,-0.1847,-0.118,-0.0593,-0.0198,0.0368,0.1052,0.0913,-0.0822,-0.1885,-0.158,-0.1917,-0.1554,-0.1004,-0.0651,-0.0518,-0.0416,0,0,0,0,0,0,0,0,0,0,0,0,0,0,0,0,0,0,0,0,0,0,0,0,0,0,0,-0.1746,-0.2088,-0.2573,-0.2472,-0.1853,-0.1073,-0.039,0.0432,0.1175,0.0977,-0.0774,-0.1554,-0.1351,-0.1666,-0.1255,-0.0838,-0.0593,-0.0459,-0.0352,0,0,0,0,0,0,0,0,0,0,0,0,0,0,0,0,0,0,0,0,0,0,0,0,0,0,-0.181,-0.1671,-0.1746,-0.2488,-0.2654,-0.2056,-0.1313,-0.0475,0.0513,0.1233,0.0555,-0.0892,-0.1084,-0.1281,-0.1297,-0.0988,-0.0737,-0.0598,-0.0502,-0.0411,0,0,0,0,0,0,0,0,0,0,0,0,0,0,0,0,0,0,0,0,0,0,0,0,0,0,-0.1676,-0.1575,-0.1522,-0.1853,-0.2274,-0.1858,-0.1127,-0.031,0.0614,0.0902,-0.0011,-0.0737,-0.0828,-0.1116,-0.0966,-0.0769,-0.0662,-0.0598,-0.0529,-0.0448,0,0,0,0,0,0,0,0,0,0,0,0,0,0,0,0,0,0,0,0,0,0,0,0,0,0,0,-0.1474,-0.1383,-0.1308,-0.1468,-0.1442,-0.0908,-0.0288,0.0187,0.0128,-0.0267,-0.0577,-0.0833,-0.0865,-0.0721,-0.063,-0.0614,-0.0587,-0.0523,-0.0432,0,0,0,0,0,0,0,0,0,0,0,0,0,0,0,0,0,0,0,0,0,0,0,0,0,0,0,-0.1399,-0.1287,-0.1191,-0.1046,-0.0897,-0.0694,-0.0395,-0.0203,-0.023,-0.0448,-0.0796,-0.0774,-0.0689,-0.0593,-0.0566,-0.0571,-0.0539,-0.0464,-0.0368,0,0,0,0,0,0,0,0,0,0,0,0,0,0,0,0,0,0,0,0,0,0,0,0,0,0,0,-0.1335,-0.1223,-0.1111,-0.1041,-0.0908,-0.0763,-0.0651,-0.0619,-0.0635,-0.0715,-0.0742,-0.0683,-0.0614,-0.055,-0.0529,-0.0502,-0.0443,-0.0374,-0.0288,0,0,0,0,0,0,0,0,0,0,0,0,0,0,0,0,0,0,0,0,0,0,0,0,0,0,0,-0.1276,-0.1175,-0.1073,-0.0982,-0.0897,-0.0838,-0.079,-0.0753,-0.0731,-0.0715,-0.0689,-0.0635,-0.0577,-0.0523,-0.0464,-0.04,-0.0331,-0.0267,-0.0192,0,0,0,0,0,0,0,0,0,0,0,0,0,0,0,0,0,0,0,0,0,0,0,0,0,0,0,-0.1212,-0.1137,-0.1041,-0.0961,-0.0892,-0.0838,-0.0796,-0.0758,-0.0715,-0.0678,-0.0641,-0.0593,-0.0534,-0.0459,0,0,0,0,0,0,0,0,0,0,0,0,0,0,0,0,0,0,0,0,0,0,0,0,0,0,0,0,0,0,0,0,0,0,-0.0998,-0.0934,-0.087,-0.0812,-0.0763,-0.071,-0.0657,0,0,0,0,0,0,0,0,0,0,0,0,0,0,0,0,0,0,0,0,0,0,0,0,0,0,0,0,0,0,0,0,0,0,0,0,0,0,0,0,0,0,0,0,0,0,0,0,0,0,0,0,0,0,0,0,0,0,0,0,0,0,0,0,0,0,0,0,0,0,0,0,0,0,0,0,0,0,0,0,0,0,0,0,0,0,0,0,0,0,0,0,0,0,0,0,0,0,0,0,0,0,0,0,0,0,0,0,0,0,0,0,0,0,0,0,0,0,0,0,0,0,0,0,0,0,0,0,0,0,0,0,0,0,0,0,0,0,0,0,0,0,0,0,0,0,0,0,0,0,0,0,0,0,0,0,0,0,0,0,0,0,0,0,0,0,0,0,0,0,0,0,0,0,0,0,0,0,0,0,0,0,0,0,0,0,0,0,0,0,0,0,0,0,0,0,0,0,0,0,0,0,0,0,0,0,0,0,0,0,0,0,0,0,0,0,0,0,0,0,0,0,0,0,0,0,0,0,0,0,0,0,0,0,0,0,0,0,0,0,0,0,0,0,0,0,0,0,0,0,0,0,0,0,0,0,0,0,0,0,0,0,0,0,0,0,0,0,0,0,0,0,0,0,0,0,0,0,0,0,0,0,0,0,0,0,0,0,0,0,0,0,0,0,0,0,0,0,0,0,0,0,0,0,0,0,0,0,0,0,0,0,0,0,0,0,0,0,0,0,0,0,0,0,0,0,0,0,0,0,0,0,0,0,0,0,0,0,0,0,0,0,0,0,0,0,0,0,0,0,0,0,0,0,0,0,0,0,0,0,0,0,0,0,0,0,0,0,0,0,0,0,0,0,0,0,0,0,0,0,0,0,0,0,0,0,0,0,0,0,0,0,0,0,0,0,0,0,0,0,0,0,0,0,0,0,0,0,0,0,0,0,0,0,0,0,0,0,0,0,0,0,0,0,0,0,0,0,0,0,0,0,0,0,0,0,0,0,0,0,0,0,0,0,0,0,0,0,0,0,0,0,0,0,0,0,0,0,0,0,0,0,0,0,0,0,0,0,0,0,0,0,0,0,0,0,0,0,0,0,0,0,0,0,0,0,0,0,0,0,0,0,0,0,0,0,0,0,0,0,0,0,0,0,0,0,0,0,0,0,0,0,0,0,0,0,0,0,0,0,0,0,0,0,0,0,0,0,0,0,0,0,0,0,0,0,0,0,0,0,0,0,0,0,0,0,0,0,0,0,0,0,0,0,0,0,0,0,0,0,0,0,0,0,0,0,0,0,0,0,0,0,0,0,0,0,0,0,0,0,0,0,0,0,0,0,0,0,0,0,0,0,0,0,0,0,0,0,0,0,0,0,0,0,0,0,0,0,0,0,0,0,0,0,0,0,0,0,0,0,0,0,0,0,0,0,0,0,0,0,0,0,0,0,0,0,0,0,0,0,0,0,0,0,0,0,0,0,0,0,0,0,0,0,0,0,0,0,0,0,0,0,0,0,0,0,0,0,0,0,0,0,0,0,0,0,0,0,0,0,0,0,0,0,0,0,0,0,0,0,0,0,0,0,0,0,0,0,0,0,0,0,0,0,0,0,0,0,0,0,0,0,0,0,0,0,0,0,0,0,0,0,0,0,0,0,0,0,0,0,0,0,0,0,0,0,0,0,0,0,0,0,0,0,0,0,0,0,0,0,0,0,0,0,0,0,0,0,0,0,0,0,0,0,0,0,0,0,0,0,0,0,0,0,0,0,0,0,0,0,0,0,0,0,0,0,0,0,0,0,0,0]}]]]